GFSSE_sfc_rhum_000.txt.gz
RH
92 93 86 80 80 78 75 69 68 67 66 64 63 68 72 71 68 67 64 61 62 58 57 60 64 66 74 76 73 73 71 66 64 65 69 72 74 73 68 65 65 73 63
86 92 89 82 80 78 74 70 70 69 68 64 61 64 63 58 61 62 66 63 58 59 55 55 59 60 63 68 71 70 71 70 67 66 72 79 78 74 71 68 70 70 62
87 90 94 84 82 78 75 72 71 68 68 62 59 61 56 53 61 64 64 60 60 58 58 56 59 58 61 64 65 66 67 66 67 69 74 91 89 71 67 71 67 63 62
92 96 96 86 82 79 76 75 72 68 65 62 58 57 60 57 62 60 63 56 54 58 58 58 62 63 60 60 60 62 62 62 65 74 91 89 85 75 67 64 65 63 62
98 98 95 88 84 82 78 76 74 70 64 61 60 57 57 60 63 60 55 57 59 62 62 62 64 67 70 70 69 67 64 62 71 81 92 93 94 79 68 57 64 63 62
98 98 93 88 86 87 83 78 76 72 68 63 63 63 62 63 63 65 63 70 72 69 64 63 65 65 65 68 70 69 71 70 78 89 93 92 91 78 64 63 63 57 65
99 98 96 89 87 87 83 80 76 72 68 65 62 62 64 68 66 70 70 72 70 69 65 64 67 68 69 70 69 68 71 81 89 92 93 94 94 78 68 62 61 59 58
98 98 97 90 90 89 86 83 79 73 70 66 62 65 64 70 72 72 75 75 73 69 71 69 72 73 71 70 71 72 76 84 90 94 95 96 90 80 73 70 66 64 63
97 99 99 97 95 92 89 86 83 77 74 69 72 70 74 73 72 74 77 77 75 75 75 76 76 74 74 75 75 78 86 88 94 97 92 97 88 80 74 71 71 69 67
98 98 98 99 98 97 96 90 88 84 82 80 80 81 87 88 82 80 88 84 78 77 79 78 77 77 78 80 82 85 91 91 95 96 97 97 83 78 75 73 73 73 71
94 93 95 94 98 98 98 95 92 88 86 86 86 90 91 94 92 92 90 88 84 83 80 79 80 83 87 90 89 88 87 97 95 97 98 87 81 76 70 69 72 73 72
88 89 87 86 89 99 96 97 97 96 97 97 96 96 96 94 93 86 93 92 88 86 83 83 83 79 77 90 88 76 85 88 89 92 96 78 71 64 62 61 65 68 66
94 84 87 89 91 99 98 99 99 99 99 98 96 96 96 94 95 96 97 96 96 94 88 88 67 64 63 64 63 64 64 72 81 77 76 70 64 61 58 58 60 61 68
94 97 96 89 96 99 99 99 99 99 99 99 98 96 98 98 96 97 98 93 94 86 60 64 60 52 51 48 52 52 55 56 56 66 76 71 62 56 55 55 60 63 59
83 91 96 98 98 98 98 99 99 98 99 98 98 96 97 97 98 95 58 52 55 55 55 51 48 50 46 44 41 47 50 43 58 64 72 67 57 58 58 55 53 52 52
55 79 91 96 97 98 98 98 98 98 97 97 98 96 90 88 63 51 54 58 52 56 48 44 49 51 45 45 37 44 51 43 58 49 56 62 52 58 51 50 50 49 51
43 52 92 92 96 97 96 97 92 91 89 84 83 83 72 41 43 48 52 52 51 49 44 43 43 50 44 40 39 45 49 45 43 40 42 55 58 53 49 49 50 50 52
58 80 92 81 95 96 97 92 92 86 76 59 54 48 40 42 41 46 53 52 48 48 47 44 49 48 50 48 45 46 50 46 42 33 40 51 48 45 50 47 49 50 50
67 90 95 95 95 95 83 78 75 60 65 47 44 44 40 41 41 50 51 49 47 50 49 46 46 52 56 45 36 45 51 51 42 30 42 42 38 45 51 43 49 50 48
82 94 97 96 96 73 61 56 60 51 45 43 41 39 36 41 44 50 49 46 45 49 48 45 47 49 62 58 45 44 56 63 47 38 46 37 39 42 50 41 57 56 49
88 98 98 98 76 67 67 64 62 55 42 38 36 35 37 41 43 47 50 47 47 48 47 46 50 51 49 60 62 55 61 58 57 49 39 44 40 40 47 42 48 56 59
89 97 99 86 67 71 63 52 46 40 40 37 39 38 42 42 42 42 46 46 43 45 44 46 50 49 50 59 57 70 59 50 47 27 41 42 37 45 41 34 41 44 56
91 98 92 72 62 61 48 50 40 34 34 37 38 44 44 42 42 42 42 44 45 48 50 50 49 47 52 50 62 49 44 53 64 54 42 45 30 49 44 49 44 45 53
94 95 73 64 58 48 45 42 37 37 31 39 44 46 44 42 42 42 41 42 44 47 43 43 40 50 52 53 56 43 52 58 57 61 49 30 45 32 48 52 44 52 54
96 82 70 64 55 46 47 38 34 33 45 50 45 42 40 40 40 40 39 39 41 47 42 40 43 43 51 52 56 58 59 60 66 63 48 47 38 36 36 43 56 40 38
95 79 71 64 51 47 42 35 34 41 40 41 46 44 43 43 43 37 36 38 37 40 40 44 42 41 46 47 52 53 57 57 60 59 62 50 49 43 39 37 41 49 51

GFSSE_sfc_rhum_003.txt.gz
RH
70 71 86 80 79 78 74 71 70 70 67 65 65 72 74 76 74 70 66 63 62 60 57 57 64 66 77 78 75 75 71 69 69 66 70 73 72 70 69 65 68 57 66
62 70 89 83 79 79 74 72 72 72 69 64 68 68 64 67 67 68 67 62 61 58 56 55 62 62 65 68 71 73 70 70 68 68 74 78 76 72 70 69 74 57 62
66 72 73 85 84 79 75 74 74 73 68 63 69 64 54 57 61 68 65 61 60 58 59 58 62 60 62 65 65 65 65 65 66 70 79 58 60 71 66 65 70 62 57
68 71 71 87 85 81 77 76 74 71 70 62 60 59 58 53 66 65 61 61 55 60 62 61 66 68 65 64 63 60 60 60 65 80 57 59 58 69 65 66 59 63 61
71 73 77 87 85 83 78 78 75 71 67 64 62 60 60 59 64 61 58 57 60 66 64 65 67 69 70 70 70 69 69 68 67 67 61 61 61 59 66 64 61 64 59
76 79 82 89 87 87 84 80 78 72 67 64 62 63 61 62 63 64 65 72 71 70 66 66 68 68 68 70 69 65 67 71 74 63 64 65 64 72 67 59 63 63 59
85 81 73 88 87 89 86 83 80 75 70 65 65 64 62 67 70 69 71 73 72 71 68 67 71 72 72 72 70 70 69 78 64 65 65 66 67 78 73 68 63 62 62
86 85 74 85 91 90 88 86 81 75 72 68 64 64 63 73 74 74 77 75 75 71 75 72 74 74 74 74 74 75 78 86 69 66 66 65 74 78 74 71 71 68 66
86 86 77 70 81 90 89 87 85 79 75 72 70 71 74 82 77 79 84 79 79 79 78 78 78 77 77 78 80 83 87 89 66 65 67 62 78 79 73 70 70 73 72
87 83 81 78 76 77 78 90 88 85 82 81 81 85 89 90 87 84 88 87 83 81 81 80 80 81 85 87 87 86 85 81 59 61 59 59 81 77 72 71 72 73 74
87 85 80 80 81 83 80 80 87 88 86 87 85 92 86 74 76 77 88 92 88 86 84 82 83 79 79 74 68 67 67 49 44 46 48 73 74 71 68 67 65 67 70
81 80 78 81 80 85 83 79 79 78 78 77 78 81 76 74 72 73 87 92 89 88 86 76 64 57 50 39 38 46 36 39 38 38 39 70 64 60 60 60 62 63 65
75 76 77 84 84 89 83 86 85 84 84 83 81 79 78 75 73 72 70 72 73 84 60 45 39 36 35 32 32 30 33 28 27 37 50 71 61 56 55 54 61 68 63
79 75 74 83 91 90 86 86 83 82 82 83 81 79 79 72 76 75 74 72 61 46 41 35 33 30 27 25 26 27 26 28 35 40 43 66 59 60 61 59 57 57 57
68 79 79 80 88 90 89 87 82 78 79 78 78 78 77 75 80 62 45 47 38 34 30 30 29 24 21 21 21 27 25 30 28 32 35 64 61 57 56 57 55 53 58
57 64 77 86 85 88 89 86 82 82 80 76 76 77 79 82 63 53 46 44 36 29 28 27 28 26 21 20 18 25 25 29 25 26 34 34 56 54 53 54 54 57 55
36 40 66 78 86 88 86 82 87 80 76 74 77 79 78 49 46 44 37 34 33 30 26 25 24 28 22 19 18 22 25 28 23 26 32 30 34 49 50 50 50 51 52
32 39 50 71 86 84 82 88 89 87 90 82 76 55 42 43 43 38 40 34 32 30 28 27 25 26 25 23 22 22 26 31 22 26 28 27 31 31 36 47 46 47 49
32 42 65 77 87 87 87 88 87 77 76 63 49 44 41 40 34 32 34 35 30 29 28 26 26 28 27 27 24 22 30 34 24 25 23 29 30 30 30 37 47 46 44
46 55 70 83 88 84 77 71 72 57 50 48 44 39 36 36 34 34 33 31 28 29 26 26 25 28 31 33 26 23 38 44 32 28 22 22 27 27 31 31 31 28 42
66 73 83 88 85 76 78 69 65 60 47 41 38 34 35 36 34 36 33 30 30 29 29 26 28 29 30 36 27 27 31 32 35 33 20 25 26 26 30 26 24 24 27
67 83 84 86 77 76 74 68 59 51 43 40 41 37 37 34 33 33 32 32 31 30 30 30 34 29 31 37 30 37 31 23 25 17 30 27 24 23 25 21 24 23 27
74 87 89 81 75 72 67 57 48 39 37 39 39 41 34 31 31 31 32 30 33 33 34 34 35 34 32 34 34 29 26 27 31 28 24 30 20 26 21 27 26 24 25
75 89 83 73 71 61 61 54 51 46 40 32 35 37 33 32 32 30 32 31 30 31 31 30 29 34 36 35 34 27 30 31 30 30 28 22 27 23 26 26 25 26 26
81 89 75 66 62 58 58 52 54 43 34 36 38 34 32 31 32 31 30 31 30 30 31 32 33 33 35 34 36 35 35 33 40 36 29 28 29 27 28 26 28 26 27
86 80 72 62 59 56 53 49 44 37 33 38 36 33 30 30 31 30 29 29 30 30 32 34 36 37 36 35 36 37 36 35 33 35 38 37 37 31 30 30 27 28 30

GFSSE_sfc_rhum_006.txt.gz
RH
47 56 86 79 78 76 73 70 70 68 66 64 66 72 74 74 73 69 66 66 63 59 56 56 63 67 74 77 76 72 70 70 68 68 71 71 67 66 68 61 74 52 59
44 50 87 81 77 76 72 72 72 71 67 64 71 70 68 71 70 70 67 62 63 59 57 58 63 64 67 68 68 70 70 69 68 70 74 70 68 70 67 71 68 59 57
44 48 60 83 82 77 74 74 74 71 65 70 65 57 56 58 63 66 64 61 59 60 58 61 61 60 63 64 64 64 63 64 65 74 71 43 43 67 65 64 66 60 54
43 48 52 86 84 78 76 75 74 73 64 65 64 58 55 58 62 65 62 60 59 62 61 63 67 69 68 69 68 64 62 62 67 71 40 35 38 60 65 64 62 64 58
45 48 54 86 84 80 76 77 73 71 67 62 60 58 58 58 62 64 56 58 65 65 64 66 68 68 68 69 69 67 69 68 68 62 45 44 45 42 61 62 61 62 64
43 47 78 85 85 84 82 78 75 70 66 64 64 62 63 64 63 60 56 67 71 68 66 67 68 70 70 71 69 66 66 74 72 46 47 48 52 65 70 66 61 61 63
47 50 62 86 87 86 84 81 79 72 67 64 64 63 61 68 72 73 68 71 72 70 68 69 71 73 73 72 71 73 75 78 55 50 50 50 52 71 72 67 67 65 64
50 52 56 83 88 87 87 86 81 75 71 66 66 62 65 73 76 69 73 72 74 72 75 73 76 76 76 76 78 80 82 84 56 51 52 52 66 76 74 72 72 72 69
51 50 51 61 67 90 89 86 84 77 75 69 66 67 79 81 77 78 76 77 76 80 77 79 79 80 80 82 84 86 85 85 53 48 49 46 78 76 73 69 70 72 73
51 50 49 49 50 66 73 87 87 84 82 80 79 85 88 86 81 79 82 83 81 81 82 83 84 82 82 79 74 68 68 69 36 39 36 45 74 74 71 68 69 68 69
52 51 48 47 51 56 63 76 85 87 86 87 83 90 80 47 51 56 88 88 86 86 83 80 71 64 59 62 59 57 61 30 30 29 29 66 66 61 61 62 62 61 62
53 55 61 53 54 55 59 66 59 53 59 56 56 58 49 51 47 55 77 88 86 85 75 63 54 44 49 31 30 38 24 23 22 24 26 68 62 56 54 56 59 64 67
47 51 63 64 60 57 57 59 62 52 55 56 56 54 50 51 54 52 52 54 57 72 46 40 35 29 29 24 23 20 21 19 18 23 43 64 61 55 55 63 60 60 60
48 52 56 66 74 69 57 56 55 51 54 54 56 54 50 51 58 54 55 55 48 40 38 32 28 23 20 17 16 17 18 18 21 23 41 64 64 61 61 59 58 58 62
43 49 52 59 68 75 74 57 56 50 53 53 56 51 49 54 59 52 42 38 33 29 26 24 20 16 15 15 14 17 18 17 19 22 28 63 58 57 58 58 58 60 58
36 41 46 53 67 72 81 63 57 50 52 54 52 52 54 54 57 46 42 38 29 22 18 17 18 18 16 15 15 14 17 18 19 22 24 33 54 54 52 52 52 54 54
25 30 39 49 57 74 82 65 55 54 57 55 52 55 58 58 47 39 36 29 22 20 18 18 16 18 17 15 15 15 16 18 19 22 22 23 28 49 49 49 46 47 48
21 23 26 39 53 74 76 66 61 55 56 52 54 60 60 47 42 35 30 26 22 21 20 19 18 18 19 18 17 16 17 19 18 18 20 19 23 21 28 44 46 44 44
21 21 27 33 44 56 67 72 65 60 63 69 64 54 46 41 33 26 25 24 21 20 20 18 19 20 21 20 17 14 21 22 20 17 18 20 24 23 23 31 36 34 39
24 24 26 36 44 54 77 75 78 66 62 57 52 45 39 33 27 24 24 22 20 22 20 19 20 21 23 21 17 16 26 29 24 24 21 15 19 21 22 25 21 22 31
27 30 34 42 54 74 80 78 81 66 57 49 41 37 35 31 29 26 23 22 22 22 22 20 21 23 23 22 19 20 21 21 28 22 17 18 19 19 18 18 19 20 19
28 36 41 47 68 73 78 78 71 65 52 41 41 38 36 32 28 26 25 24 24 24 24 24 27 23 22 24 24 26 23 19 18 16 20 17 18 17 18 19 21 20 22
32 38 47 55 69 67 77 67 58 49 42 39 41 43 37 29 24 24 25 24 26 26 28 27 26 25 24 24 25 24 22 23 22 18 19 20 18 18 20 22 21 21 22
33 41 53 67 63 69 69 60 55 55 54 42 37 40 32 26 24 22 23 23 24 24 26 22 21 25 26 27 26 19 22 23 24 25 20 18 19 19 22 22 22 22 22
32 52 64 73 63 69 65 60 59 56 47 32 38 32 29 24 24 23 22 24 24 23 24 24 26 25 26 26 28 27 25 25 26 31 29 25 23 22 22 23 22 22 22
36 59 72 71 65 63 66 62 57 47 36 38 35 34 28 24 23 22 22 23 23 23 25 27 30 30 29 27 27 28 29 30 28 30 31 30 30 26 24 22 23 23 24

GFSSE_sfc_rhum_009.txt.gz
RH
42 60 85 79 77 75 72 70 70 67 65 64 69 71 74 74 70 68 68 66 61 59 57 60 66 69 74 76 77 74 74 72 70 71 70 66 63 66 67 64 72 57 62
40 56 85 81 76 74 72 72 71 68 64 65 70 71 74 72 72 70 64 64 60 60 58 62 64 64 66 67 67 67 69 68 69 73 72 70 66 67 65 67 71 64 56
42 49 60 82 81 77 74 74 72 67 70 68 60 58 59 62 65 64 60 60 61 59 61 64 64 63 64 65 65 62 62 62 71 72 69 47 42 60 64 65 63 63 55
39 47 50 84 82 79 76 75 74 66 69 68 61 58 57 62 65 63 61 60 62 61 62 66 68 69 69 70 70 68 68 65 65 69 43 31 34 60 58 63 64 59 60
38 43 52 85 83 80 78 76 74 69 63 63 60 60 60 62 64 60 59 64 66 64 66 68 69 68 70 69 68 59 67 71 69 68 43 46 49 60 61 59 57 62 67
37 39 78 86 84 82 82 76 73 69 64 63 64 64 65 63 64 60 59 69 70 68 68 68 70 71 72 71 69 69 70 72 75 44 45 49 50 68 68 68 66 62 61
37 44 60 85 84 84 84 81 76 70 66 64 64 62 66 71 72 70 67 72 71 70 70 69 73 76 74 74 74 75 76 78 62 49 49 51 57 69 72 68 63 65 66
37 44 61 82 85 85 84 84 80 72 69 65 66 64 72 72 74 70 74 73 73 75 73 74 77 77 78 79 80 82 83 85 55 47 50 50 73 70 71 66 69 70 69
37 40 58 62 71 89 87 86 82 77 73 68 68 68 81 77 78 73 75 76 77 77 77 81 82 82 82 81 79 75 73 75 55 41 40 42 72 69 69 66 69 70 69
38 39 43 54 56 60 72 87 85 83 81 77 78 86 88 84 77 82 87 83 80 80 82 82 79 78 73 66 60 57 64 70 36 35 33 53 62 62 63 63 63 62 62
41 40 38 39 43 58 63 75 84 87 85 86 84 87 79 51 54 60 87 88 86 83 80 71 62 52 55 61 52 50 59 28 26 27 28 64 59 55 54 56 58 60 64
42 41 39 40 42 58 59 65 60 57 63 58 56 58 46 44 46 53 76 90 84 82 72 59 47 43 51 32 29 43 22 22 22 25 41 64 61 53 51 64 66 62 64
38 41 44 43 46 52 55 62 54 50 59 54 49 50 42 44 53 54 58 64 72 82 49 49 40 32 28 23 22 18 20 21 20 24 54 66 64 61 64 63 60 63 65
36 40 49 47 50 50 51 59 52 51 51 53 49 46 44 48 54 49 51 62 51 44 41 37 31 24 18 16 16 16 17 18 19 22 58 66 62 63 62 62 64 62 62
32 38 44 49 60 53 51 65 58 53 46 46 48 48 41 46 53 50 47 43 38 34 30 26 20 18 17 17 15 15 17 17 18 22 39 65 58 57 57 57 58 57 57
27 35 39 46 57 64 61 61 60 50 44 51 52 46 42 45 58 48 42 38 32 26 20 19 19 19 18 16 15 14 16 17 18 22 27 45 52 53 51 50 49 49 49
22 27 34 40 47 63 67 67 62 49 45 61 55 45 48 57 48 43 37 32 26 22 20 20 17 18 19 16 16 16 17 17 19 21 25 27 42 52 46 45 45 44 45
18 21 26 34 41 57 72 70 68 57 52 68 55 56 58 49 44 38 34 30 24 23 22 21 20 22 22 21 20 17 18 20 19 19 23 22 29 24 42 38 38 39 40
19 20 22 27 38 50 71 70 69 66 61 59 56 59 55 46 37 33 32 27 22 24 23 21 24 24 25 25 21 19 26 26 23 18 20 22 26 28 29 38 36 37 32
20 21 20 26 30 41 59 74 83 67 83 69 59 56 47 37 32 32 26 24 24 26 25 25 25 24 25 25 17 19 30 30 27 25 25 15 21 24 26 30 29 29 36
20 23 23 24 32 37 53 82 89 88 78 65 53 47 39 32 32 33 27 25 27 28 27 25 26 27 27 26 27 28 27 22 28 29 19 20 21 20 22 23 26 27 25
24 25 26 28 33 41 66 76 78 76 71 53 45 38 33 34 34 32 30 29 28 30 30 29 31 27 28 28 28 35 32 26 23 20 23 20 20 23 23 23 25 25 29
26 27 26 31 39 55 72 76 73 62 53 48 42 39 37 34 33 32 30 29 31 33 34 32 30 29 31 31 28 30 33 33 28 26 26 23 23 24 23 27 25 25 26
28 31 30 36 46 59 71 74 70 64 62 52 41 40 35 33 35 30 28 28 29 30 31 27 24 28 32 33 30 21 24 25 30 31 28 25 23 20 25 27 26 26 26
25 36 39 39 51 56 72 68 62 56 58 42 36 36 33 34 34 29 26 29 28 28 28 29 29 27 28 29 32 32 29 29 28 33 37 32 28 26 26 26 26 25 26
28 37 46 45 56 60 72 66 58 58 49 44 38 35 33 32 33 26 26 28 27 28 30 31 33 32 30 30 30 31 32 34 33 36 38 35 35 31 27 26 26 27 28

GFSSE_sfc_rhum_012.txt.gz
RH
78 86 84 79 76 74 73 72 70 68 66 69 72 73 74 72 71 70 68 63 62 59 60 64 68 70 72 78 77 76 72 72 72 72 68 64 63 65 65 69 72 63 65
71 75 84 80 76 74 72 72 71 68 71 70 72 73 74 71 72 67 66 62 61 60 62 63 64 65 65 66 66 65 66 67 71 72 75 78 75 66 65 68 68 67 58
67 70 77 81 80 76 74 74 70 68 74 68 65 68 67 70 65 61 60 62 60 62 65 66 66 68 68 69 67 64 63 63 64 66 73 77 74 60 63 65 64 63 58
59 67 71 84 82 76 76 74 69 74 69 69 62 61 64 66 63 63 61 61 61 62 64 67 67 68 68 69 65 66 69 68 68 76 75 52 52 58 54 58 61 59 64
58 59 69 83 82 79 77 76 69 68 71 66 67 65 65 66 64 62 65 65 64 66 68 69 70 71 72 71 68 66 69 71 77 75 66 65 66 64 65 64 62 62 63
53 61 85 84 83 83 81 76 74 66 64 65 68 69 68 65 63 61 68 71 69 69 69 71 73 74 73 72 73 73 73 73 82 75 62 67 77 66 67 67 63 63 62
55 73 82 85 83 84 83 80 74 68 66 68 67 68 73 73 69 61 72 73 72 71 71 73 76 76 77 78 77 77 78 82 81 72 64 72 78 67 68 62 61 66 67
72 69 77 84 84 84 84 83 79 72 68 68 68 68 74 74 71 71 74 74 74 75 73 78 79 80 80 80 80 78 78 83 69 63 57 84 72 65 66 63 67 71 69
59 66 73 77 79 87 86 85 82 77 73 71 74 76 78 79 77 75 75 76 79 76 80 82 81 80 79 75 68 61 65 71 76 52 51 73 65 58 62 63 64 64 63
52 67 70 73 76 82 89 88 85 83 80 78 80 90 87 82 85 84 88 85 79 82 83 78 76 72 67 58 50 53 60 66 71 45 69 71 56 53 53 56 58 60 61
51 60 64 69 70 72 79 86 88 88 85 85 91 90 88 79 78 84 89 89 86 84 77 68 57 52 63 67 60 52 58 38 33 40 73 63 54 52 52 62 66 65 69
56 54 59 62 64 68 67 85 83 81 86 86 84 92 81 70 79 72 91 91 87 81 75 60 50 58 52 43 46 44 35 29 33 45 73 62 56 56 66 65 65 70 67
53 55 52 56 57 69 69 77 73 74 78 74 73 76 67 70 78 82 94 93 97 85 73 66 58 39 34 30 30 26 29 31 33 68 68 68 65 65 62 63 66 65 66
52 54 55 56 63 71 71 69 65 65 72 78 71 64 63 76 77 77 80 75 64 70 53 46 41 28 26 23 24 23 25 29 32 69 77 68 63 62 62 63 61 61 61
50 54 60 62 67 65 68 79 64 69 71 72 68 62 62 75 77 73 67 66 56 45 39 34 31 30 28 25 22 22 24 26 27 49 79 69 59 57 56 55 54 53 51
38 50 58 60 68 71 67 75 74 71 59 60 60 64 58 69 69 63 58 54 42 36 32 31 28 30 29 27 26 23 24 27 28 34 62 66 54 50 48 47 46 47 47
31 42 52 58 69 76 72 74 68 69 63 71 64 57 59 59 53 59 54 47 39 35 31 31 29 33 34 30 31 28 25 26 29 30 38 58 57 56 44 41 41 41 42
29 37 44 47 63 71 68 72 73 66 69 74 67 58 63 54 56 54 51 44 37 35 36 35 36 39 39 37 34 29 30 30 28 30 30 35 38 42 45 36 34 34 36
28 28 41 47 56 70 74 75 83 75 85 69 76 72 61 52 47 45 43 39 36 39 38 36 40 40 40 39 30 27 41 41 32 24 28 30 33 32 37 37 39 38 34
26 29 31 43 51 70 84 73 93 87 84 80 76 70 52 48 41 43 38 37 39 43 42 40 39 40 39 39 25 29 40 41 36 37 32 25 29 28 32 33 39 39 36
26 33 32 38 46 71 83 86 94 91 89 86 71 58 52 43 46 39 37 41 44 43 41 37 40 38 43 43 43 42 42 36 42 46 28 30 29 27 30 32 37 38 39
34 32 36 38 40 48 75 80 90 90 88 69 69 55 47 44 41 34 36 43 43 47 43 41 40 44 44 43 43 50 45 41 35 28 33 27 28 31 30 30 32 31 38
32 38 39 38 41 43 84 85 80 70 62 60 51 53 47 43 39 35 37 40 49 53 51 44 42 39 47 46 36 43 46 50 44 40 35 32 31 33 33 38 32 32 32
33 34 40 40 45 66 85 82 82 80 71 61 64 70 47 39 38 35 42 39 47 51 43 40 36 41 46 46 46 31 35 38 47 48 44 39 38 33 38 40 38 34 32
28 39 46 44 55 82 85 78 80 77 65 58 52 49 38 35 34 36 35 38 44 46 40 40 41 39 42 46 48 47 43 45 42 49 56 50 44 41 40 41 39 37 33
28 38 56 45 66 81 85 81 76 69 59 52 44 43 36 37 36 34 34 38 43 44 43 45 44 42 42 42 44 45 48 50 50 52 57 53 51 46 44 37 40 39 40

GFSSE_sfc_rhum_015.txt.gz
RH
96 88 85 79 76 74 74 72 70 69 73 74 74 75 74 73 71 69 65 63 61 63 64 66 69 72 75 75 73 72 72 72 71 67 67 65 63 64 67 71 70 67 67
92 85 84 80 75 74 73 72 69 71 76 72 72 72 71 72 69 66 64 61 62 62 63 65 67 68 68 66 66 66 64 65 65 66 72 75 77 65 68 68 68 64 58
87 80 78 81 79 75 74 71 70 72 75 75 76 74 73 68 65 62 62 60 63 64 65 66 68 68 68 68 68 68 66 65 63 65 73 79 76 60 63 67 63 62 58
79 80 78 83 80 76 74 70 76 73 68 69 68 68 68 64 62 61 60 60 62 64 65 65 66 67 68 65 65 70 70 68 70 78 78 67 60 58 54 57 58 62 66
81 78 79 84 81 77 75 70 76 70 69 70 71 69 68 64 64 66 62 63 66 68 70 71 72 72 71 70 68 67 68 68 76 76 73 68 81 64 65 65 64 60 61
75 77 86 85 83 82 80 74 70 73 66 68 71 70 70 66 65 69 69 69 71 71 72 74 75 73 74 74 74 73 73 74 82 83 74 77 78 65 66 65 59 59 64
71 80 83 84 85 84 83 80 72 69 68 70 70 69 70 69 65 70 73 73 73 73 72 76 75 77 79 78 77 77 78 82 80 78 70 86 80 65 64 60 59 70 68
78 79 78 82 84 85 84 82 76 74 72 70 73 74 74 72 68 72 74 75 76 72 77 78 78 80 80 78 76 73 71 76 70 68 82 82 70 60 61 56 68 66 66
76 80 80 81 84 87 86 83 79 76 76 74 77 78 79 81 77 75 76 77 77 76 80 81 80 79 76 69 58 53 63 68 74 68 61 74 63 50 52 56 59 60 59
77 80 89 87 83 88 89 87 84 81 79 80 84 86 84 86 83 82 85 85 78 82 81 79 76 71 64 54 48 55 62 56 48 72 75 73 55 50 51 54 58 64 67
78 80 82 86 88 92 95 89 88 86 84 85 92 88 87 90 93 89 91 88 86 84 77 69 60 58 64 67 60 60 52 33 44 74 76 66 50 47 69 67 68 70 69
85 81 79 85 83 86 78 95 95 88 95 96 96 95 94 87 93 86 94 91 89 83 77 63 55 54 49 44 38 41 35 30 47 74 80 67 63 67 62 71 69 65 70
64 79 77 79 78 81 80 88 96 97 98 96 94 95 90 83 88 96 99 97 97 89 79 67 58 39 30 30 29 27 31 32 66 80 74 67 65 63 66 65 66 66 65
62 60 70 71 76 79 82 77 82 86 89 90 86 86 79 88 91 96 99 98 97 93 61 50 37 31 28 25 26 24 28 31 64 81 84 73 63 62 62 61 59 57 56
62 59 61 66 70 78 81 77 71 72 80 80 78 75 69 80 85 88 85 75 55 45 37 35 33 31 30 26 25 24 27 30 58 75 87 72 62 56 53 51 50 50 49
54 59 60 70 73 80 81 83 70 69 73 76 74 64 65 77 85 74 59 51 40 36 35 31 31 34 34 32 30 28 28 31 39 67 67 73 54 47 45 45 43 44 45
43 59 61 63 70 80 83 81 71 70 69 67 63 56 64 77 60 60 53 43 39 36 31 32 37 39 38 33 32 28 32 30 32 54 60 64 63 60 44 39 39 38 41
35 60 62 56 69 80 86 80 71 70 78 72 62 57 66 61 57 55 48 44 40 38 37 38 40 41 40 39 35 32 37 34 33 35 46 52 52 53 44 38 36 38 39
34 36 63 62 69 71 84 87 82 74 88 71 65 66 59 54 50 48 46 43 38 40 43 38 44 41 40 40 33 31 46 46 35 30 34 38 39 38 39 41 43 40 37
30 35 49 61 70 72 81 79 96 85 87 83 76 65 57 49 46 43 41 41 42 45 45 43 41 44 42 43 29 36 43 47 40 42 31 31 32 33 34 33 40 39 38
31 32 38 61 72 80 88 82 93 88 90 91 84 62 53 43 39 40 40 41 46 44 44 40 41 38 45 46 42 44 47 42 45 47 34 34 29 32 31 36 38 40 41
35 35 40 48 72 80 83 83 85 96 95 82 75 58 49 43 45 39 41 45 43 48 43 40 43 47 48 47 42 56 45 43 37 34 38 30 34 36 34 34 35 35 38
38 40 39 44 70 81 84 92 96 87 84 67 63 57 52 43 40 40 41 40 48 48 51 44 43 44 48 49 41 45 41 47 47 44 39 40 36 40 43 42 36 35 35
37 42 44 45 48 78 89 90 92 88 87 88 78 72 60 41 45 41 41 40 47 51 44 43 40 46 51 46 50 37 40 42 43 39 45 45 45 38 43 46 44 39 37
30 37 44 46 50 77 89 88 92 90 89 82 74 65 48 39 38 38 39 42 46 46 39 42 42 42 46 50 51 49 47 51 48 49 53 52 48 45 46 46 44 45 42
35 36 48 50 60 88 91 90 89 88 76 78 70 60 42 46 43 38 38 44 37 38 40 48 47 43 46 46 50 50 51 51 52 54 59 59 56 52 48 46 47 45 45

GFSSE_sfc_rhum_018.txt.gz
RH
93 92 84 77 76 75 74 73 74 76 77 76 76 77 77 73 70 68 65 63 65 64 64 74 74 77 77 74 73 73 72 69 64 64 68 68 64 66 68 71 70 73 64
94 88 84 78 76 75 73 71 73 79 80 76 74 73 73 71 67 66 63 63 62 62 64 67 70 70 68 68 68 65 61 60 62 66 71 74 75 66 68 68 68 63 57
91 84 80 81 78 73 72 70 72 74 74 76 72 72 73 69 66 63 60 63 62 62 64 69 71 70 69 68 69 68 65 62 65 67 70 79 78 60 64 67 63 62 58
85 82 80 82 78 74 71 72 75 74 77 78 76 74 68 64 61 60 60 63 63 64 64 65 66 67 66 66 70 70 67 68 71 77 77 74 64 57 54 59 59 64 66
86 81 81 83 78 75 71 78 73 69 71 74 76 73 65 62 62 60 61 63 65 68 70 71 71 69 70 69 68 66 67 68 79 79 75 78 83 66 64 65 63 60 61
89 86 86 84 81 80 78 79 72 67 67 72 74 75 69 66 67 64 65 68 72 73 74 75 74 74 76 75 74 73 74 77 79 84 78 76 82 65 66 65 60 60 65
90 89 85 86 81 79 78 80 77 71 68 70 70 70 68 67 70 70 70 72 72 72 76 76 75 78 78 78 76 74 74 76 75 86 86 90 84 63 62 57 56 72 71
85 87 85 86 86 84 80 78 78 75 73 73 74 72 70 68 70 74 73 74 75 72 76 76 78 79 79 76 71 64 62 73 68 83 82 82 69 56 60 61 66 65 60
79 85 86 84 86 88 86 80 77 77 77 78 79 79 79 78 74 76 75 77 73 77 79 80 80 78 73 63 52 53 64 70 75 75 65 73 64 47 50 54 57 59 62
86 85 90 89 86 89 89 86 82 81 80 80 84 86 85 86 83 81 83 84 77 80 80 79 76 70 61 52 51 62 55 57 76 76 77 73 52 46 55 60 64 69 74
89 92 95 95 91 94 93 88 86 86 86 87 90 88 88 96 93 91 92 88 87 84 78 71 63 59 63 63 59 55 45 43 79 78 80 69 54 66 68 71 71 71 72
93 94 94 94 93 95 82 94 96 89 95 96 96 94 91 96 96 91 94 91 90 85 79 63 55 55 44 37 34 39 36 49 77 84 85 71 67 65 72 71 70 72 70
89 90 92 93 90 90 85 93 97 98 98 98 96 96 95 89 97 98 99 98 98 90 85 66 49 36 30 31 30 29 33 58 87 87 83 71 64 64 67 65 65 61 61
91 86 87 92 90 90 91 91 93 94 96 98 97 96 97 96 98 98 99 98 98 94 75 56 37 31 29 26 27 27 32 58 86 92 89 74 64 62 61 58 55 53 51
76 84 84 88 86 88 94 91 88 88 89 89 93 94 86 95 93 98 98 98 95 75 42 38 34 32 31 29 29 26 32 57 79 84 94 74 62 55 52 50 48 47 47
65 67 83 86 83 85 86 86 87 82 83 86 87 87 77 83 90 96 94 78 49 40 37 33 34 36 37 35 31 29 32 44 74 75 81 73 58 49 45 42 42 42 44
45 59 75 80 84 86 84 88 85 80 79 84 82 78 69 80 84 80 66 49 42 37 32 36 40 39 38 32 32 29 34 36 63 64 69 66 66 60 42 40 41 41 42
40 60 67 68 82 87 86 90 86 82 77 82 75 70 64 76 66 59 48 45 42 38 38 40 42 40 40 38 36 32 42 37 48 61 61 59 63 51 47 40 39 39 41
38 42 70 71 81 85 87 89 89 78 83 76 68 60 76 67 58 48 43 46 40 41 42 40 45 40 37 39 34 38 52 46 40 36 46 41 47 43 43 42 41 39 38
33 41 58 70 75 82 91 92 95 89 88 82 70 65 69 64 55 44 44 40 41 46 46 44 43 44 43 44 33 39 45 50 44 41 40 34 37 35 36 37 42 44 38
36 38 50 71 74 87 96 97 95 89 91 94 79 69 65 59 48 41 40 39 45 44 44 40 43 38 46 47 44 48 48 46 50 44 38 38 35 36 37 39 41 43 41
34 37 40 58 70 81 88 86 92 89 95 90 85 67 59 51 42 36 37 43 46 48 45 44 45 49 48 48 47 57 45 42 40 40 41 35 39 40 41 38 39 38 41
36 37 39 46 65 79 82 94 98 95 95 89 76 67 58 47 40 36 39 44 48 51 50 43 46 45 49 48 44 46 51 46 46 45 43 43 42 46 46 46 41 39 40
33 36 38 45 66 83 89 94 92 90 94 95 84 88 68 45 41 39 41 42 47 50 42 44 43 50 51 48 51 39 43 44 39 34 44 47 48 40 46 50 47 45 43
32 35 42 48 58 85 93 92 92 90 87 97 93 87 73 51 41 42 42 48 48 48 41 42 43 47 49 53 52 52 49 56 50 49 46 50 50 48 49 49 50 48 46
38 39 40 45 53 79 95 94 90 92 92 92 88 81 69 56 46 42 44 46 42 39 39 43 42 40 49 50 53 52 52 51 53 54 57 59 56 54 52 51 50 50 52

GFSSE_sfc_rhum_021.txt.gz
RH
98 95 82 76 76 76 76 74 76 78 79 77 76 76 75 73 70 68 64 65 66 64 63 70 72 74 67 70 73 72 69 64 62 69 72 72 67 67 71 70 69 76 64
93 90 83 76 74 76 75 75 81 83 82 78 77 77 74 70 69 66 64 65 64 62 63 74 70 72 71 71 69 64 59 59 65 70 71 77 77 67 66 69 66 64 57
92 85 81 80 78 76 74 75 79 80 81 80 76 74 72 69 67 63 63 62 62 61 71 73 69 69 69 69 68 64 59 64 68 71 71 80 77 62 65 66 63 60 59
87 85 83 82 77 74 72 72 76 77 77 78 74 74 70 67 62 60 63 63 64 65 69 68 69 67 67 69 68 66 69 70 74 76 79 75 68 58 56 59 61 65 65
88 84 83 83 77 74 71 73 74 74 76 78 77 72 66 62 60 61 63 64 66 67 68 68 68 68 69 69 68 67 70 76 79 79 77 82 85 67 66 66 65 63 62
93 90 86 84 78 78 78 75 73 76 76 78 78 73 65 63 61 62 65 69 72 73 73 73 72 75 76 75 74 74 75 74 74 85 79 76 87 68 66 66 59 62 65
96 92 86 84 80 76 82 79 74 71 72 74 74 69 67 68 65 65 68 72 74 74 78 74 75 78 78 77 73 70 69 70 88 87 93 91 88 62 61 56 61 70 72
96 92 88 84 83 81 83 81 78 75 73 74 77 74 69 69 71 70 71 73 73 74 75 75 78 79 78 70 60 57 62 70 83 88 84 79 68 53 58 63 63 63 62
91 93 93 89 86 85 83 84 80 77 76 78 79 79 76 76 76 73 74 75 73 76 78 79 80 77 66 51 51 57 66 73 81 75 66 76 66 48 51 54 57 59 70
94 93 95 95 91 94 91 85 84 82 81 82 83 84 85 84 82 80 83 83 75 81 81 80 77 68 56 52 53 54 62 71 79 77 76 74 52 47 62 65 71 73 74
95 97 97 97 96 96 96 88 86 87 86 87 90 89 90 96 92 89 91 88 85 84 80 75 66 61 62 61 54 51 47 71 78 78 82 74 58 66 72 73 74 74 72
97 98 98 98 97 97 86 94 95 91 95 96 96 93 96 97 96 92 95 91 91 87 81 64 55 51 40 35 36 42 44 75 86 90 88 76 65 71 70 71 71 68 68
93 94 96 97 96 96 88 97 99 99 98 98 96 96 94 97 98 99 99 99 98 92 87 63 42 35 30 33 31 35 48 83 94 97 88 73 63 62 61 61 64 62 60
96 94 90 95 97 96 94 95 95 95 98 99 98 96 97 99 99 99 99 99 98 95 84 57 38 31 28 27 28 32 46 85 96 97 90 76 66 62 59 56 54 53 51
96 93 93 94 96 94 97 97 96 92 93 96 98 98 97 97 99 99 99 99 98 81 52 40 35 32 32 31 30 31 47 81 89 94 95 73 64 55 52 49 47 46 48
87 94 92 93 92 91 93 96 93 89 87 91 94 96 95 94 97 98 98 99 90 56 40 36 35 36 37 34 30 32 42 74 81 86 80 74 62 51 45 43 44 44 46
54 71 93 91 90 91 92 95 91 92 87 87 85 92 89 91 96 96 98 84 56 40 36 39 39 39 37 32 32 33 36 63 69 74 70 70 66 61 46 44 43 42 47
44 55 79 85 89 90 93 95 92 88 88 89 81 84 82 82 92 91 82 58 44 38 40 42 42 40 39 36 34 35 45 44 68 70 64 64 63 51 48 41 39 39 40
43 42 75 79 92 90 93 94 92 89 90 90 83 83 78 81 78 74 64 51 42 42 44 41 46 39 35 39 34 51 56 48 56 54 55 52 53 49 54 43 42 40 38
40 43 65 76 82 91 94 94 96 96 92 91 81 78 78 75 67 58 51 44 42 47 47 44 41 45 43 44 37 44 56 49 48 48 47 39 41 37 40 39 44 47 40
42 45 48 84 81 91 97 96 98 97 96 94 84 81 75 72 59 47 44 38 39 38 45 40 42 37 45 49 50 49 50 50 53 43 45 41 38 39 41 43 44 46 43
37 39 43 61 80 86 92 91 95 92 93 92 95 81 73 65 52 44 39 37 38 43 44 43 45 49 48 48 49 58 48 44 43 43 43 38 42 45 42 41 41 41 45
38 38 38 43 71 85 86 95 99 97 98 98 96 86 74 62 52 45 39 39 38 42 46 47 47 45 47 49 47 50 54 48 49 47 45 45 45 48 48 47 43 42 43
34 36 36 40 47 82 90 97 95 92 93 92 93 91 81 72 61 43 40 38 40 52 49 48 46 50 50 47 52 39 45 49 38 39 45 49 50 42 48 50 50 44 47
35 37 39 41 52 66 93 93 95 86 83 95 98 93 88 81 64 54 42 42 48 51 48 42 47 50 49 55 52 53 51 57 51 45 42 48 52 50 51 51 51 49 48
39 42 44 42 45 70 96 95 96 92 98 98 97 96 89 78 73 64 54 50 48 51 51 45 45 42 49 49 50 54 54 51 53 55 55 57 57 55 55 53 52 53 55

GFSSE_sfc_rhum_024.txt.gz
RH
96 96 84 79 78 75 74 73 76 81 81 79 78 75 72 74 70 67 66 68 66 65 67 66 67 67 68 69 71 69 65 62 67 69 75 73 69 70 71 69 74 75 60
95 93 83 78 76 76 73 74 80 82 82 80 76 75 73 71 68 65 66 66 63 61 68 74 76 76 73 70 66 61 58 66 68 70 75 79 78 68 68 68 66 62 60
92 84 79 80 78 76 76 77 81 81 82 80 78 75 71 70 67 65 64 62 60 59 72 74 67 71 70 70 66 60 64 69 73 72 72 82 76 60 65 66 64 62 62
91 85 82 80 78 77 76 79 80 80 80 79 76 73 70 68 62 63 63 62 60 72 73 72 69 69 69 68 65 68 70 75 76 73 81 77 70 64 59 59 62 62 64
93 87 85 83 78 75 74 76 78 79 78 79 78 72 69 62 61 64 65 65 66 68 68 68 68 69 69 68 68 70 75 77 77 74 80 82 88 70 67 66 68 66 64
97 94 87 83 78 78 77 76 74 74 76 78 78 71 64 62 62 64 67 70 72 72 72 71 74 76 77 75 74 74 72 71 76 82 80 79 89 68 64 65 57 69 65
98 96 88 83 78 76 80 80 79 78 80 78 72 68 64 62 64 66 70 74 76 77 75 75 77 78 79 74 69 66 67 81 88 94 94 92 89 60 61 58 64 68 66
96 95 89 83 82 81 84 80 78 78 77 78 77 71 68 66 65 67 71 74 74 78 75 76 78 78 72 60 57 60 68 81 87 88 81 76 69 52 54 60 62 63 66
96 96 96 92 86 87 85 82 79 78 78 79 80 77 76 77 72 70 72 73 72 76 76 79 80 72 53 53 57 66 74 74 80 77 68 77 67 48 52 55 58 65 73
97 96 96 97 94 94 95 88 84 82 81 81 82 83 83 84 82 78 82 81 73 81 82 80 76 62 56 55 54 60 73 72 80 75 76 77 55 64 71 73 75 74 72
95 97 98 98 98 96 94 90 88 86 85 85 87 89 90 94 92 89 91 87 84 83 80 76 67 62 62 58 54 52 63 79 84 86 88 81 68 70 74 74 74 72 68
90 97 98 98 98 98 88 94 95 92 95 95 95 94 95 96 96 93 94 90 90 87 80 65 59 48 39 33 41 48 72 86 91 93 94 74 69 65 69 69 67 65 65
89 96 97 97 98 98 95 98 99 99 98 98 97 96 94 99 98 98 99 98 98 92 80 53 38 34 31 33 35 41 79 91 98 97 88 75 62 56 60 62 60 59 59
98 96 97 96 98 98 98 98 98 98 98 99 98 96 97 100 99 97 100 99 99 97 82 45 37 31 29 28 32 40 80 93 97 97 90 77 65 60 58 56 55 54 54
98 95 96 97 95 96 98 98 98 96 98 97 98 97 96 99 100 99 99 99 99 86 69 41 35 33 32 31 32 38 80 90 92 96 92 74 66 56 53 50 49 50 50
95 96 96 96 93 94 96 97 98 97 94 97 98 97 96 95 98 99 99 99 99 68 46 39 36 37 37 33 32 40 71 83 91 87 78 78 63 52 47 48 46 47 49
84 92 96 95 95 97 95 97 97 95 94 93 94 97 96 95 97 98 98 99 95 51 38 39 39 39 36 32 32 37 54 81 82 76 75 72 67 62 51 46 43 47 44
47 72 93 89 92 96 95 96 97 96 96 93 90 93 96 94 95 97 98 97 66 42 43 43 42 40 38 36 33 44 43 68 74 73 66 67 59 57 50 42 41 41 42
44 46 71 94 94 95 94 95 96 95 96 95 95 90 92 90 94 96 95 82 46 44 46 43 45 37 35 40 38 59 55 61 71 60 60 58 56 56 54 48 48 42 41
46 46 47 79 93 95 94 94 96 96 96 95 94 90 93 85 90 89 84 61 42 47 49 46 41 44 42 44 40 52 58 53 54 60 50 43 40 40 43 42 47 48 45
44 46 48 59 80 95 95 95 94 97 96 98 93 89 91 85 83 79 77 54 44 42 42 39 40 38 46 53 53 54 53 54 52 47 50 45 40 43 43 45 46 47 45
37 42 47 52 76 94 93 89 95 91 92 94 94 93 88 85 78 75 65 50 38 44 39 37 43 47 46 53 52 58 56 50 46 46 46 41 45 46 44 42 42 42 48
38 37 40 47 61 91 93 95 99 98 99 100 99 98 88 83 70 69 71 50 41 44 42 39 45 41 46 49 52 53 55 50 54 50 47 46 48 49 51 48 45 42 47
38 38 38 40 48 81 94 96 92 94 96 96 93 94 92 84 75 62 65 51 42 43 42 41 42 49 47 48 51 40 47 53 46 44 48 50 50 44 49 51 49 47 51
40 42 42 41 43 51 92 94 97 95 92 96 96 95 94 89 79 73 65 59 51 48 46 43 47 46 50 53 54 55 52 56 50 44 43 51 54 54 53 52 51 53 49
48 55 48 43 44 53 78 96 96 96 95 98 99 98 96 94 89 79 66 62 66 60 54 49 58 50 48 51 54 52 56 52 52 52 50 55 54 52 57 56 53 55 56

GFSSE_sfc_rhum_027.txt.gz
RH
73 74 82 76 78 80 81 81 82 83 83 81 80 78 76 73 70 68 69 67 66 65 66 66 68 65 66 66 69 65 63 66 68 74 76 75 70 69 68 71 68 54 58
68 72 83 80 75 77 77 80 85 85 84 81 77 77 74 71 67 67 68 65 63 67 76 78 73 73 70 67 62 60 65 68 69 73 76 78 77 69 68 67 63 53 61
72 69 64 80 80 80 78 78 82 84 84 82 77 74 70 69 67 67 64 62 58 71 72 72 72 71 70 67 62 65 68 70 70 71 73 55 52 61 66 64 65 62 64
74 66 60 80 78 77 78 79 79 81 82 82 77 73 71 68 65 63 62 60 71 73 72 72 70 70 68 66 67 69 72 74 72 72 53 57 57 66 61 59 59 59 64
73 66 65 80 79 78 78 79 80 81 82 81 77 72 70 62 63 63 65 66 70 72 72 69 68 69 68 69 70 73 74 74 76 61 57 63 65 63 65 64 64 65 64
75 66 74 81 81 81 80 80 79 78 79 80 79 72 64 62 64 65 67 69 71 71 69 70 74 76 76 74 74 72 70 73 71 55 58 66 65 61 62 55 68 72 67
76 69 65 83 79 78 80 80 78 78 78 80 75 68 64 63 64 67 71 74 75 73 73 74 76 78 75 69 66 67 75 80 59 62 64 66 61 58 61 63 65 64 73
78 74 69 81 82 81 82 82 83 81 83 79 76 69 64 64 66 69 74 76 76 77 75 76 78 72 60 58 60 65 81 80 67 64 60 52 64 50 53 56 60 69 70
78 76 74 69 74 86 86 83 83 83 84 80 78 76 75 74 69 69 73 74 75 75 76 80 74 56 55 58 64 71 75 73 52 50 45 44 67 47 53 56 63 73 71
86 82 80 74 69 72 70 85 84 83 84 84 82 81 83 83 80 76 82 79 74 82 82 78 66 58 56 55 62 74 73 67 45 48 48 49 64 70 74 75 75 73 70
91 87 86 80 74 76 74 74 83 86 85 85 82 86 84 67 69 71 82 85 86 82 80 74 65 64 60 60 55 64 61 45 47 55 60 76 69 71 73 72 71 68 64
88 86 90 85 79 76 75 74 72 68 67 68 68 72 69 74 73 72 81 89 90 87 80 66 58 50 34 25 31 51 43 50 50 63 60 76 67 67 68 66 65 65 64
80 83 90 88 86 80 72 74 75 75 76 74 72 73 72 76 78 77 76 78 78 79 55 41 31 25 26 24 28 38 49 55 58 60 65 73 57 54 62 61 60 59 59
82 83 84 84 88 88 86 77 72 76 77 78 78 75 73 80 86 82 80 84 80 70 53 36 26 24 24 23 24 38 49 58 59 60 64 76 64 59 58 56 55 56 58
86 84 84 83 83 86 87 88 76 75 75 73 78 78 71 78 90 86 91 84 79 69 51 33 25 23 22 22 24 37 50 58 60 56 54 75 68 57 52 51 51 52 52
79 81 86 87 84 81 85 87 88 85 81 79 76 77 76 72 82 82 90 87 78 66 49 32 26 26 24 22 24 38 49 58 57 52 50 49 65 57 50 47 47 51 50
65 77 84 84 84 82 88 88 82 85 86 82 77 77 77 72 76 82 86 86 77 58 39 29 27 27 27 22 24 32 47 53 54 49 48 45 45 65 54 46 49 45 46
35 58 74 81 86 85 86 90 92 88 88 76 75 73 77 76 72 79 82 81 76 50 35 32 30 30 28 25 26 28 40 49 48 45 44 40 43 40 45 44 42 43 43
35 35 46 77 82 85 85 87 92 89 87 88 86 78 77 77 76 73 78 78 69 49 35 32 32 28 28 28 28 34 33 46 47 41 40 39 44 41 40 51 48 45 42
38 38 38 50 75 84 86 88 94 93 91 86 88 80 78 77 78 77 76 77 61 50 39 35 33 31 29 29 29 37 37 42 46 42 36 33 34 33 30 32 34 35 45
37 39 41 41 51 82 86 92 95 96 92 93 87 81 80 75 78 80 78 72 58 49 39 33 33 33 35 38 40 40 38 39 38 38 34 32 31 30 31 31 30 30 29
32 37 40 41 41 65 79 78 82 83 87 87 90 86 80 76 77 78 78 70 56 47 40 36 40 35 35 40 37 42 40 36 34 32 35 31 29 31 32 30 29 30 32
37 37 35 38 42 53 71 83 90 94 94 94 95 91 87 79 77 75 80 76 58 49 45 41 40 40 38 41 41 37 44 38 39 36 36 33 32 32 31 33 31 31 34
38 44 40 40 39 52 76 83 84 82 86 84 82 88 91 83 81 74 77 76 64 52 47 42 37 38 43 43 42 35 36 39 39 38 36 34 33 30 32 33 31 33 34
44 55 49 40 38 42 66 86 86 83 83 82 88 89 89 88 84 78 75 74 71 54 55 48 42 40 39 44 44 43 38 38 33 32 37 37 36 34 32 32 32 32 34
53 56 58 50 41 42 49 77 87 87 84 92 92 93 93 90 88 79 76 76 73 71 66 63 56 47 45 47 52 46 43 39 36 36 34 36 34 36 36 36 35 35 36

GFSSE_sfc_rhum_030.txt.gz
RH
52 52 83 80 79 80 81 82 82 82 83 80 80 80 77 73 71 70 69 66 67 68 65 71 65 67 66 68 65 64 66 69 73 76 76 76 70 68 69 66 62 43 60
48 48 78 78 80 81 83 83 86 85 86 82 79 78 74 70 68 69 66 64 67 70 74 73 72 68 69 64 63 66 67 68 71 73 76 79 78 69 67 65 64 55 63
49 46 55 77 75 78 82 82 85 85 85 81 78 75 72 69 68 68 64 61 74 76 77 74 71 71 67 64 66 67 68 68 69 70 65 40 44 63 64 66 65 64 67
47 46 47 77 78 80 78 77 82 85 83 81 76 72 70 68 66 63 61 68 73 72 73 72 71 68 66 67 68 69 71 68 70 66 42 43 44 66 62 60 59 60 63
48 44 51 80 79 74 78 73 75 82 83 82 77 73 70 65 63 62 62 73 74 73 72 69 69 68 69 69 71 72 72 73 69 56 48 51 48 58 65 60 62 66 64
46 43 68 80 80 78 81 77 75 82 82 78 77 72 64 64 64 66 68 72 73 71 70 72 74 75 74 74 72 70 70 72 70 46 49 57 49 62 58 70 69 72 74
45 44 51 81 81 80 80 80 78 80 82 79 75 67 64 65 66 68 71 72 72 70 72 74 76 75 71 67 67 68 78 72 46 48 50 48 49 58 61 63 64 72 72
48 48 50 79 83 81 82 82 81 81 83 81 76 67 65 66 67 70 74 77 74 73 74 77 75 65 60 61 63 76 78 77 53 50 48 42 60 50 52 56 63 72 70
49 55 48 53 67 86 86 86 84 82 85 80 77 73 73 73 71 72 76 76 77 75 76 77 62 57 59 61 66 75 75 69 39 40 34 31 66 50 53 57 72 71 70
56 55 49 47 48 52 58 86 87 88 85 81 81 82 83 81 78 76 82 78 76 79 81 71 60 57 57 61 73 73 70 64 33 34 31 39 71 73 75 76 74 71 69
73 62 55 46 46 47 49 61 82 86 88 86 81 86 83 49 56 65 74 84 86 83 78 69 64 61 62 60 63 64 59 27 28 32 34 73 71 72 71 72 69 66 65
78 74 66 54 49 49 50 51 49 47 52 54 55 57 46 50 50 49 69 89 88 86 81 70 67 54 44 24 27 48 23 27 29 37 45 77 69 67 67 66 66 65 64
74 75 76 64 54 52 52 50 48 46 46 46 48 50 46 52 61 61 57 60 57 79 52 50 38 26 24 20 21 22 27 29 29 35 58 71 61 64 63 62 61 61 61
74 72 74 75 65 59 52 52 50 49 48 49 51 49 51 55 58 59 60 59 62 53 48 39 29 25 22 20 19 23 27 30 30 32 58 75 64 59 57 58 59 60 59
74 73 72 75 73 70 63 57 51 49 48 46 48 50 49 52 56 54 58 64 60 55 47 40 29 23 20 19 18 22 27 31 33 34 43 76 70 57 53 53 54 53 54
54 60 70 74 76 70 69 62 59 54 49 46 47 50 52 50 54 53 63 73 72 58 49 38 29 25 23 20 18 23 28 33 32 35 37 48 68 59 51 48 51 52 50
30 38 51 65 68 69 72 62 62 63 61 54 52 49 52 51 51 52 60 76 80 59 50 38 29 25 24 20 19 23 28 31 34 35 36 36 43 68 55 49 52 47 47
22 25 34 51 60 70 74 80 77 65 62 59 53 51 55 52 50 52 58 71 68 60 49 39 32 28 26 22 21 22 28 33 32 32 34 32 32 36 47 48 44 45 43
20 21 23 33 50 58 73 80 87 80 66 59 56 55 56 56 53 51 53 60 60 59 47 40 33 30 29 26 23 23 26 30 32 30 30 32 34 33 30 48 48 46 42
22 23 23 25 31 42 59 83 90 90 82 64 64 62 59 59 58 61 54 55 58 60 49 40 35 30 29 26 18 23 26 30 32 30 28 27 30 33 30 31 36 36 46
23 26 26 26 28 32 45 74 90 93 88 89 78 70 64 62 62 66 67 60 59 59 54 43 37 34 32 26 31 30 29 29 33 32 28 27 28 27 25 25 24 24 27
22 23 24 24 26 27 35 45 54 67 75 78 85 84 72 64 63 67 66 66 62 61 56 47 40 36 33 31 32 32 35 30 30 32 30 27 26 25 26 25 24 25 27
26 28 26 25 25 26 30 41 54 63 70 74 85 84 81 71 64 65 70 67 63 58 58 51 43 40 40 36 31 30 38 35 32 31 33 30 27 27 25 26 25 25 25
37 38 35 30 27 26 30 38 50 59 66 61 60 70 82 80 77 68 70 70 68 64 58 53 44 41 42 44 38 31 32 33 34 39 32 31 28 26 26 28 25 26 28
41 45 41 36 31 28 31 37 48 55 52 51 57 66 70 76 86 79 74 74 74 63 61 62 54 43 40 44 44 38 36 32 31 33 37 37 31 28 26 27 26 26 28
42 44 43 34 33 35 31 32 44 54 54 59 66 74 74 79 88 85 81 75 74 72 64 63 62 55 46 41 46 46 40 41 35 35 32 34 35 32 29 28 28 28 28

GFSSE_sfc_rhum_033.txt.gz
RH
47 55 85 83 81 79 80 82 81 82 82 80 81 80 76 74 72 71 67 66 68 66 70 65 69 68 69 66 67 67 69 71 73 77 77 75 69 68 65 63 66 48 65
43 50 81 80 82 81 83 83 86 85 85 83 81 77 74 71 70 68 65 65 72 68 72 70 68 69 65 65 68 67 67 69 69 72 80 81 79 68 65 66 69 60 63
41 46 52 80 80 85 86 84 87 85 86 82 79 75 71 68 70 66 62 72 80 78 75 72 71 68 65 66 67 67 66 66 67 64 69 43 52 63 64 64 65 67 64
39 44 46 79 77 81 84 82 85 85 82 80 75 72 68 69 67 62 63 74 76 74 73 72 69 66 67 68 68 69 66 66 62 65 41 40 46 66 65 64 60 60 63
38 41 51 76 77 75 72 78 84 83 82 81 76 72 70 66 63 61 75 76 75 74 71 69 68 69 69 71 72 71 70 64 65 57 47 51 49 60 62 68 66 64 70
37 38 68 78 77 74 74 73 77 82 81 80 76 72 66 64 64 65 74 74 74 72 71 72 73 74 74 73 71 69 70 65 72 44 48 50 53 61 66 68 75 78 78
36 42 51 78 78 77 76 74 76 83 81 77 74 66 66 66 67 70 73 73 71 71 73 75 75 73 69 68 68 73 72 70 53 46 46 46 53 56 57 63 70 72 71
37 43 51 78 82 81 80 78 76 82 82 79 73 66 66 67 68 70 72 72 71 73 74 76 70 63 62 64 70 78 74 74 49 45 43 44 62 51 53 56 72 71 69
38 40 46 53 68 87 86 84 80 80 84 81 76 73 74 73 71 72 76 76 75 74 78 72 60 60 61 64 71 75 71 70 38 39 29 34 76 54 55 61 72 70 69
43 42 40 43 47 50 55 88 87 84 86 81 79 80 82 81 79 77 82 80 76 77 79 64 58 59 62 69 72 69 64 62 31 33 32 54 74 72 73 75 72 70 68
49 46 40 39 41 43 46 64 85 89 87 84 82 86 81 50 56 68 76 83 83 85 76 64 59 60 62 67 65 59 63 27 27 32 40 76 73 72 72 70 69 67 66
71 56 44 40 40 41 41 52 54 56 63 64 63 61 48 44 45 45 69 89 87 86 80 69 63 59 61 29 32 48 28 26 29 37 59 77 68 67 68 68 66 66 65
69 70 69 48 43 42 43 45 43 42 47 47 52 57 46 43 48 49 55 61 68 84 62 64 58 40 30 25 24 23 25 27 29 36 68 73 66 65 64 63 63 63 63
67 70 72 64 50 46 44 45 43 43 43 43 44 44 50 56 74 64 57 55 50 54 49 48 37 30 28 24 22 22 25 28 29 34 64 75 68 62 60 60 62 61 60
56 66 68 71 64 51 50 48 46 45 44 43 43 44 42 50 67 70 69 66 61 58 46 44 35 29 26 23 22 22 25 28 30 34 54 77 71 59 55 56 57 55 58
49 56 62 71 73 65 56 55 54 46 45 43 42 44 43 44 48 49 60 74 65 61 52 45 37 30 27 24 23 22 25 30 30 32 47 57 70 64 53 53 52 52 54
34 39 47 57 66 70 61 56 54 54 49 46 44 44 45 45 45 46 49 71 63 62 56 48 38 30 29 26 24 23 27 29 32 33 38 47 52 67 59 52 54 50 50
22 24 29 39 53 60 60 58 55 51 54 53 48 45 46 46 47 46 48 61 68 66 71 52 42 36 34 30 27 25 28 30 31 31 35 37 42 43 55 56 49 48 46
19 20 22 25 35 46 52 65 80 65 58 53 50 49 48 50 48 48 48 54 68 70 67 54 46 39 39 35 31 27 29 32 32 29 32 35 37 42 42 52 58 51 44
18 19 19 21 22 29 41 55 85 87 78 59 50 49 49 50 53 53 52 50 64 68 67 54 48 42 40 37 26 26 32 32 34 33 30 30 33 38 37 44 52 46 47
20 21 22 23 23 25 30 40 72 87 83 82 66 52 54 55 55 60 58 53 54 66 65 53 49 46 44 37 34 36 35 31 33 34 32 32 35 35 36 35 36 35 42
20 21 22 23 23 24 26 29 39 61 69 77 85 80 69 61 58 61 64 62 58 62 64 58 53 49 44 38 44 46 46 36 33 34 35 32 31 34 33 30 30 33 39
29 29 26 24 23 23 25 27 34 43 56 65 81 83 79 73 65 62 68 69 65 64 70 65 58 52 51 42 41 47 52 49 40 37 40 37 32 33 32 34 31 31 34
36 39 34 32 27 25 26 27 33 41 54 58 56 60 68 68 76 70 69 77 72 71 76 67 58 56 55 54 49 36 42 46 49 52 43 40 36 30 32 36 32 32 33
39 44 41 33 29 29 27 29 32 38 42 47 50 52 53 65 72 79 75 77 83 78 76 73 65 56 60 61 58 55 46 44 45 51 52 47 39 35 33 32 34 33 35
42 44 44 37 31 30 32 33 32 40 40 45 49 51 53 60 75 83 85 83 82 83 80 76 73 68 68 62 60 52 48 49 46 48 49 48 45 39 35 34 34 37 39

GFSSE_sfc_rhum_036.txt.gz
RH
72 84 88 83 81 82 83 82 84 84 84 80 80 78 76 74 73 70 67 68 69 70 70 69 71 69 68 68 68 69 69 70 72 76 80 77 69 64 65 70 69 64 67
65 74 88 85 81 84 85 86 86 86 86 84 80 78 74 73 71 67 66 73 70 74 69 71 69 67 68 68 68 68 67 66 71 78 82 81 78 67 64 69 71 66 64
60 65 74 86 86 87 87 88 87 86 86 84 79 74 71 72 70 64 72 78 75 75 73 72 68 67 67 67 67 67 64 64 66 76 81 70 72 64 61 63 68 66 62
55 58 64 80 86 88 88 88 88 85 85 81 76 70 67 70 66 62 76 76 76 75 73 70 67 68 68 69 69 66 63 60 64 71 66 55 60 67 66 69 61 63 66
52 52 68 78 79 81 84 85 86 85 81 80 78 71 70 66 62 75 78 76 76 74 71 69 69 70 73 73 72 69 65 61 70 65 63 69 72 63 70 74 70 74 76
50 63 78 79 77 68 76 80 82 83 80 79 76 72 67 64 64 75 77 76 75 74 72 72 74 76 75 73 71 70 67 66 75 64 64 71 72 64 68 74 78 76 73
62 63 69 77 69 72 76 75 79 85 81 78 73 67 66 66 69 74 75 74 74 73 75 76 74 72 70 70 71 72 68 74 72 63 63 68 66 56 61 69 72 71 70
61 60 64 74 66 77 76 76 82 86 82 78 73 68 68 68 69 74 74 72 72 74 76 74 67 64 65 68 74 74 74 78 60 56 59 67 68 53 55 69 72 71 68
51 60 66 69 77 83 80 78 81 83 83 79 76 75 76 75 72 71 74 73 74 76 78 66 63 63 64 69 72 72 71 70 58 48 44 76 79 56 57 74 71 70 69
52 56 63 67 74 78 87 84 80 83 85 81 81 82 82 81 80 79 84 84 79 80 74 64 62 62 67 69 69 64 66 68 50 44 78 88 74 67 72 73 71 69 68
59 58 54 59 61 63 66 82 87 85 86 85 84 87 86 80 82 85 84 84 85 86 72 64 62 60 69 72 65 65 63 54 44 54 86 82 74 74 73 71 70 67 68
80 62 54 53 56 58 52 88 79 80 82 74 71 84 76 70 71 66 86 90 90 86 78 68 63 63 66 51 55 54 46 42 48 79 89 79 69 70 70 69 68 67 66
69 81 75 62 54 57 58 72 74 77 82 78 73 75 74 60 70 76 94 96 97 93 86 82 76 65 55 48 42 42 40 41 52 82 81 77 68 66 66 65 65 65 65
70 65 80 77 65 58 61 61 58 61 66 70 71 67 68 73 75 73 72 80 89 89 87 85 77 64 46 36 35 36 38 43 49 80 81 77 71 64 62 62 64 63 63
78 70 76 81 80 66 63 65 63 59 62 63 63 64 63 82 88 86 78 70 66 73 75 73 63 49 42 36 33 33 37 42 46 75 88 80 73 64 60 60 60 60 61
65 73 70 76 81 82 73 68 67 64 62 62 62 64 60 70 79 82 81 89 82 72 68 66 59 51 43 39 35 32 36 43 47 77 79 80 72 68 58 57 56 57 60
57 63 71 75 78 74 81 78 72 73 65 66 64 60 60 60 67 70 76 85 88 77 73 62 60 51 47 38 39 34 39 44 48 52 73 72 72 69 64 55 55 54 56
37 40 63 62 76 80 76 80 75 69 72 72 68 63 61 60 63 66 71 86 85 82 81 84 64 57 54 46 43 40 43 46 46 46 59 65 68 62 64 65 58 53 52
30 30 32 45 69 74 83 76 85 82 87 74 72 70 66 62 62 68 71 80 84 88 91 89 66 57 58 55 47 43 44 49 48 41 49 54 62 66 66 64 64 61 51
29 30 31 34 36 39 67 74 94 94 95 92 79 69 68 67 69 68 71 75 79 89 84 87 67 65 62 58 36 38 44 50 51 50 48 44 52 60 62 64 68 60 56
28 32 32 33 35 38 45 62 97 97 93 95 88 84 74 64 70 84 76 84 76 80 80 76 72 67 67 58 49 50 51 42 46 51 47 50 49 49 59 61 63 61 59
31 34 35 34 35 36 42 44 65 91 89 85 90 89 88 89 76 76 75 87 86 80 84 76 67 75 69 60 55 62 62 54 46 46 52 46 48 51 48 46 50 48 54
48 46 41 40 36 36 37 41 46 53 85 93 94 91 85 80 86 84 82 75 88 91 79 85 76 72 67 68 56 64 74 67 57 52 50 53 45 51 48 40 39 36 43
57 57 50 44 41 35 36 41 44 52 60 72 89 89 89 88 87 80 91 93 83 77 86 89 88 76 74 61 70 51 56 59 58 57 53 54 46 41 42 46 40 36 37
58 64 62 54 44 41 43 42 47 50 54 57 70 78 86 89 87 90 80 86 94 87 85 91 94 81 71 71 67 86 78 64 60 65 60 54 51 47 45 42 41 42 37
60 62 61 54 48 47 46 48 49 50 56 59 67 78 77 79 93 91 85 86 90 96 92 95 92 92 81 80 74 86 76 70 67 64 66 59 54 56 49 45 41 43 44

GFSSE_sfc_rhum_039.txt.gz
RH
96 92 88 83 84 83 84 83 85 85 84 81 78 78 76 74 71 69 70 71 72 72 71 71 69 70 69 68 68 67 67 69 72 76 78 75 66 68 70 69 70 69 63
92 89 87 85 83 84 86 86 88 87 86 83 79 77 75 73 69 67 72 71 72 71 69 69 69 70 69 67 67 66 65 70 74 78 83 82 77 65 66 71 70 63 62
86 84 84 86 87 89 89 87 88 87 87 84 77 74 74 72 66 72 76 74 75 74 70 69 69 68 67 66 66 63 65 68 73 78 76 78 76 66 62 65 68 65 63
78 80 84 89 89 89 90 88 87 86 85 81 76 72 73 68 64 77 78 78 76 74 70 67 67 68 69 69 64 60 61 62 65 72 72 66 65 68 72 65 62 69 67
67 69 79 88 89 88 90 88 84 82 83 80 77 71 70 64 70 77 77 78 75 72 70 69 70 72 73 71 68 64 63 64 75 69 72 77 80 68 74 71 76 76 78
71 80 79 81 82 85 86 85 81 82 79 77 76 72 66 66 74 78 77 76 75 73 72 73 75 76 74 72 69 66 66 69 75 74 82 74 76 67 73 78 73 75 77
74 72 72 77 76 80 83 83 83 84 80 78 72 68 66 67 74 76 76 76 75 74 74 74 73 72 72 71 71 69 70 78 73 72 73 72 69 58 66 72 72 71 72
70 70 67 70 67 78 79 80 85 86 82 76 74 69 68 70 73 76 75 74 74 74 75 71 67 67 69 73 72 72 73 74 60 65 70 76 68 55 59 72 72 68 67
68 72 76 67 74 79 79 78 85 85 82 78 77 76 77 75 73 74 73 72 75 78 74 67 65 65 68 70 71 66 68 70 52 60 66 90 76 57 70 73 70 68 69
70 71 82 86 84 87 84 80 83 85 84 80 82 84 84 83 80 80 84 82 79 82 70 65 63 66 68 68 64 64 66 65 52 80 95 92 71 62 72 72 71 69 68
71 73 76 84 87 85 87 84 83 88 87 85 86 87 87 91 90 89 89 87 86 84 70 64 62 66 74 75 67 65 63 53 57 88 97 82 76 72 73 71 72 69 68
77 76 72 76 75 76 64 92 93 87 90 85 88 89 89 90 90 81 90 88 87 86 77 68 64 65 66 58 53 58 46 50 76 95 96 81 73 72 72 71 70 68 67
86 85 79 68 65 66 72 88 93 98 96 87 86 87 85 77 86 93 98 98 98 93 88 81 78 71 64 60 51 41 46 47 80 95 86 79 68 64 68 69 68 66 66
85 84 83 84 74 73 76 80 80 92 93 91 88 82 85 88 85 94 97 98 98 98 96 95 91 76 67 52 44 40 42 46 86 94 90 81 73 67 66 66 65 66 66
85 79 80 85 87 80 75 74 72 75 81 83 81 78 76 86 77 81 87 91 97 97 96 96 89 76 62 42 38 38 42 46 85 90 94 83 79 70 64 64 64 64 64
81 81 79 81 86 88 87 75 72 61 67 68 76 75 73 82 74 82 88 81 84 88 87 82 79 64 51 45 39 36 39 46 69 91 92 87 78 74 64 62 61 63 62
78 74 78 76 83 88 89 88 83 76 68 67 68 69 70 77 84 78 88 96 90 87 79 68 60 61 52 46 41 37 41 46 66 87 85 85 80 77 70 60 60 61 62
70 80 76 69 80 87 89 88 86 78 77 66 63 69 66 65 77 85 86 90 91 94 88 86 66 59 58 52 48 43 44 48 53 83 82 78 77 70 73 68 62 59 60
39 68 81 79 84 85 90 88 92 85 83 83 81 76 70 67 68 74 76 84 91 88 91 87 82 58 59 58 49 48 47 50 54 50 78 74 74 72 72 75 72 68 63
32 34 34 61 85 86 86 87 94 95 95 94 95 92 79 76 72 70 75 79 88 90 90 96 94 71 63 60 43 43 49 52 57 56 59 63 71 70 71 71 80 73 65
32 34 37 36 38 45 64 95 97 93 96 97 97 93 94 90 75 88 90 89 89 87 83 92 94 80 72 61 51 53 55 50 51 57 56 58 62 67 70 71 71 69 66
46 48 45 42 40 40 47 52 85 97 97 95 95 94 92 95 94 86 82 93 95 91 92 95 93 87 74 63 63 62 56 54 49 45 59 52 55 60 62 63 66 62 67
57 57 51 50 46 41 40 44 48 57 79 96 96 97 94 93 93 94 95 92 91 92 93 94 95 92 83 80 63 77 78 69 61 55 49 60 53 60 58 56 57 54 56
64 64 60 57 50 43 39 42 46 51 56 75 95 95 95 94 92 91 93 95 97 97 95 93 91 87 92 87 86 60 83 67 63 62 66 64 64 49 51 51 48 44 48
61 65 63 56 51 51 52 52 51 52 57 61 67 76 94 96 93 93 92 95 97 97 96 97 97 93 88 87 80 89 91 87 74 71 75 82 67 52 45 43 40 40 41
62 63 60 58 56 57 58 56 56 60 59 61 62 67 73 88 95 95 94 94 92 96 98 98 98 96 91 85 82 92 89 80 77 82 84 82 78 64 51 46 41 43 46

GFSSE_sfc_rhum_042.txt.gz
RH
95 95 88 85 82 83 84 84 85 85 84 80 78 78 76 72 70 71 71 74 73 73 69 69 70 70 69 67 67 68 69 71 72 74 74 73 71 69 69 70 71 68 64
95 91 88 87 84 84 86 86 88 88 86 81 78 76 74 71 68 71 71 74 71 69 68 68 69 69 68 67 65 68 71 71 73 76 82 80 76 68 70 68 65 65 62
94 88 86 87 88 88 88 86 89 88 86 83 77 76 73 68 69 75 72 75 73 70 70 69 68 67 66 66 65 68 71 72 72 73 75 83 82 66 64 68 68 64 64
88 88 88 89 89 89 89 88 89 86 83 81 77 76 71 65 77 75 75 77 72 71 68 66 67 67 66 63 63 64 64 64 66 75 76 74 70 71 68 63 68 67 75
89 89 90 90 90 89 88 87 89 86 80 79 76 73 66 67 77 76 77 76 74 71 69 68 70 71 70 68 65 64 66 70 75 75 78 85 86 73 71 76 73 78 78
86 91 93 90 90 91 89 87 85 83 77 76 75 70 67 74 77 78 78 76 74 72 70 73 74 74 73 71 68 67 70 73 76 87 88 80 82 73 77 74 78 77 75
85 84 78 84 88 89 87 83 84 83 79 77 73 67 68 74 78 78 77 77 75 74 74 74 74 73 72 71 69 69 72 73 74 78 77 77 72 64 73 73 70 71 72
77 73 71 79 84 84 83 84 86 86 80 76 72 69 69 68 71 76 77 76 75 75 74 71 70 70 72 72 70 71 68 70 66 72 76 78 70 55 70 71 69 69 66
72 76 77 73 79 84 82 84 87 86 81 79 77 76 77 76 73 73 75 75 75 76 72 68 66 67 70 71 70 67 67 67 61 71 69 84 70 56 70 73 69 68 69
77 77 82 80 80 85 84 85 87 88 84 81 82 84 84 83 82 78 82 81 80 79 69 67 64 67 69 68 63 64 66 65 76 93 96 94 71 66 71 72 70 68 68
80 81 88 90 91 90 86 84 88 89 88 86 88 88 88 94 92 91 91 87 86 81 70 66 64 68 76 77 71 66 61 55 68 96 97 84 71 70 70 73 72 72 67
93 89 84 91 92 91 74 91 94 90 93 92 92 92 96 94 96 90 94 92 90 84 77 69 65 70 74 64 55 56 47 53 91 97 97 84 74 73 72 72 70 69 67
90 89 88 89 88 87 79 97 98 99 98 95 93 94 93 90 96 97 98 97 97 93 90 82 82 79 70 62 54 41 47 58 97 98 92 83 73 70 66 69 69 69 66
90 91 85 81 81 81 88 91 93 98 98 98 93 91 93 95 96 97 99 98 99 98 96 95 91 81 69 62 61 46 46 55 93 98 95 83 76 64 66 68 67 66 66
86 86 91 92 83 81 92 85 89 94 96 92 91 87 88 92 91 96 97 99 99 99 98 97 97 91 81 68 46 42 42 51 92 98 98 89 81 74 68 66 66 65 65
85 81 82 88 92 85 89 88 81 84 91 94 89 84 83 85 84 84 91 94 98 98 97 97 96 90 76 60 46 41 41 49 83 94 97 95 84 79 71 65 64 64 64
86 79 81 82 86 94 91 82 85 82 77 83 82 85 80 82 85 79 84 86 85 91 95 95 94 85 68 54 48 42 41 46 65 93 95 96 91 84 77 65 63 63 63
87 87 81 72 82 91 93 93 91 88 84 68 70 75 78 75 82 84 84 89 86 88 86 92 85 79 67 57 51 48 42 48 56 93 92 90 89 82 81 73 66 63 64
81 89 90 85 84 88 92 92 94 90 92 83 66 66 72 73 76 79 81 81 94 93 92 89 93 78 72 65 54 51 48 51 56 62 92 87 84 82 82 78 78 73 70
37 46 57 84 90 92 94 95 96 97 96 95 95 90 84 80 78 78 81 83 91 93 95 97 93 86 72 67 46 42 53 52 58 64 80 79 80 78 76 76 92 83 76
40 39 38 38 40 80 97 98 98 97 97 97 97 95 95 94 92 92 93 91 95 93 90 94 96 95 91 84 79 52 49 46 52 61 63 74 78 75 76 78 84 81 76
52 51 50 47 41 40 51 58 91 97 97 97 96 95 95 95 95 95 95 95 91 93 96 96 97 97 96 88 87 72 54 53 53 46 62 58 66 72 72 72 77 72 72
64 64 60 58 52 48 41 45 50 53 70 94 96 97 96 95 94 96 96 96 96 94 92 93 96 96 95 96 89 83 73 70 69 60 53 60 58 68 70 72 72 66 67
69 69 63 58 54 50 53 51 48 50 52 61 86 93 93 94 95 95 96 96 97 97 96 97 97 96 97 96 95 80 90 80 71 76 66 66 69 60 67 79 69 66 57
66 70 66 60 61 62 62 61 64 63 61 62 66 65 70 81 93 96 95 96 97 98 98 97 97 98 97 93 90 93 87 92 78 79 78 79 86 75 69 61 62 58 52
67 67 69 66 68 69 71 72 72 75 74 72 72 72 73 78 84 91 96 97 97 98 98 98 98 98 98 97 95 91 89 92 88 88 90 90 91 78 67 61 55 57 62

GFSSE_sfc_rhum_045.txt.gz
RH
97 92 87 84 82 82 82 82 83 84 83 79 78 77 74 72 72 72 74 77 74 70 69 69 71 70 68 68 70 71 72 71 71 73 75 77 71 67 69 71 67 69 68
92 93 88 84 82 84 86 86 87 87 85 79 78 75 73 70 70 71 75 71 69 68 67 68 70 69 68 66 70 72 71 70 72 74 78 79 77 69 67 66 66 67 66
90 91 90 87 87 89 88 87 88 87 85 82 76 75 72 69 72 72 76 71 71 70 68 68 68 67 66 66 72 72 71 71 72 75 78 88 84 64 67 69 67 65 64
92 92 92 89 90 89 88 87 87 84 82 79 78 74 68 70 75 73 78 73 72 70 65 65 65 64 64 66 68 67 66 66 68 77 80 80 79 72 61 64 68 72 75
91 92 90 90 90 89 88 89 86 84 80 80 78 72 67 77 73 75 79 76 72 69 68 68 70 68 66 65 65 67 69 70 77 76 84 90 89 75 72 74 78 78 78
98 96 91 91 91 91 90 90 87 81 78 76 75 68 69 78 79 79 78 76 74 71 70 72 73 73 71 69 68 70 71 75 79 87 91 84 84 75 76 79 77 74 73
98 96 95 91 91 91 90 90 87 82 79 77 71 68 74 75 77 79 78 76 74 72 73 74 73 72 72 71 69 70 68 80 82 84 82 80 78 70 74 72 71 71 70
93 92 85 90 92 90 90 88 87 85 80 76 72 69 72 76 78 76 77 76 74 73 74 72 70 70 70 70 70 69 68 76 71 77 82 81 70 61 71 70 68 64 64
80 83 84 86 87 86 87 89 89 86 82 79 78 77 77 76 72 73 77 76 74 75 72 67 65 66 70 70 70 65 71 69 74 72 66 80 70 54 69 71 69 69 67
84 82 85 86 87 89 90 88 89 86 85 82 82 84 84 83 80 80 83 82 79 78 71 68 64 66 68 67 63 63 67 67 80 92 96 91 74 63 71 70 69 69 66
84 86 86 88 91 88 86 87 87 89 88 87 89 89 90 94 92 90 90 87 87 82 71 68 65 68 76 76 70 64 56 58 68 96 98 86 70 69 72 73 70 70 68
93 92 92 92 93 92 78 93 94 91 95 95 95 94 96 95 96 92 95 92 88 84 78 70 67 73 77 65 57 51 49 55 85 96 97 86 74 70 72 73 61 71 67
93 94 93 94 94 93 89 97 99 99 98 97 94 95 95 94 98 98 98 98 98 95 92 86 85 83 76 62 57 49 46 54 90 98 94 85 75 72 72 65 62 67 66
93 93 93 93 94 94 93 98 98 99 98 98 97 95 97 98 98 98 99 98 98 99 96 95 94 87 75 65 65 61 47 55 96 98 96 89 81 70 63 68 70 68 66
94 93 92 92 92 90 94 97 98 98 98 97 96 94 95 96 97 97 98 98 99 99 98 97 97 94 91 78 70 53 40 47 65 98 98 93 86 78 67 67 67 66 65
91 92 92 92 87 86 94 94 96 98 98 98 97 92 91 91 93 95 97 98 99 99 99 98 97 97 95 83 67 48 44 48 58 95 98 96 89 83 76 68 66 65 64
89 83 90 90 94 87 87 91 92 92 93 98 96 94 90 89 92 87 93 97 96 98 98 98 97 96 96 79 64 51 45 44 56 87 96 97 95 89 83 69 67 65 63
90 89 85 76 91 94 87 87 85 85 87 90 90 91 90 86 89 90 87 89 90 96 97 98 97 98 96 85 68 56 47 44 49 71 94 96 97 94 89 81 74 66 64
91 91 90 88 90 91 95 96 95 91 92 81 80 82 83 84 84 85 85 86 95 91 92 90 95 93 93 86 71 60 55 48 48 52 91 94 95 94 93 85 83 79 74
68 90 92 92 91 92 96 96 97 97 97 97 94 88 81 78 86 89 87 90 96 96 96 97 92 97 89 84 69 57 53 46 52 60 68 86 93 89 88 87 88 91 81
44 43 44 68 48 95 98 98 98 97 97 97 98 94 94 93 89 90 90 93 96 96 93 96 97 98 98 94 91 81 62 58 54 57 64 75 89 85 88 82 82 95 86
52 52 51 48 44 44 61 73 95 97 97 97 96 96 95 96 96 96 96 96 95 95 97 96 97 97 99 97 96 86 82 75 60 51 58 59 69 88 84 82 84 89 89
65 64 60 56 55 54 46 48 51 53 64 87 95 97 96 95 96 97 97 97 97 97 96 96 97 98 96 98 93 90 84 85 80 67 58 61 63 82 87 86 84 85 83
74 70 62 60 59 58 59 56 50 52 52 58 74 77 70 79 91 95 97 97 97 98 98 97 97 97 99 98 96 86 90 77 75 82 69 64 69 65 83 93 86 78 72
70 70 70 70 71 72 72 67 68 67 67 66 66 64 65 70 73 84 94 97 98 98 98 98 99 99 98 98 98 94 90 94 84 84 86 84 84 81 75 76 72 72 68
73 74 75 72 74 73 73 76 78 82 82 78 79 80 81 83 87 84 91 97 98 98 98 98 98 98 99 99 98 97 92 91 93 92 93 88 88 89 89 90 84 80 78

GFSSE_sfc_rhum_048.txt.gz
RH
93 92 88 84 82 83 82 82 83 84 80 75 77 75 74 73 73 76 76 74 71 71 70 71 69 69 70 72 73 73 70 70 72 77 79 76 69 67 68 65 68 72 72
92 90 89 85 82 83 85 86 88 87 84 77 76 74 72 71 72 76 72 70 69 68 68 70 70 68 68 71 72 72 70 69 70 73 78 80 79 68 65 67 67 69 72
92 86 88 87 87 87 88 85 86 85 84 80 75 74 71 70 72 76 72 72 71 69 67 68 68 68 68 73 73 72 72 72 75 78 80 90 80 65 68 70 68 68 67
95 93 91 89 90 89 89 87 87 84 81 78 76 73 69 72 73 77 74 71 72 66 66 66 66 66 69 71 70 68 68 68 73 77 87 88 82 65 64 70 75 75 71
96 97 92 91 90 89 89 89 86 83 80 80 76 70 72 77 74 78 75 75 71 68 68 69 68 66 68 67 69 70 70 71 75 77 91 91 93 72 75 79 78 78 77
99 97 93 92 91 91 90 89 86 81 81 79 73 69 79 76 78 79 78 76 73 71 72 72 72 71 70 70 70 71 73 78 80 90 93 87 85 76 77 76 75 72 71
97 96 96 92 91 92 91 90 86 81 78 76 69 69 79 80 81 80 78 76 73 72 74 73 73 73 73 71 71 68 73 80 86 86 84 83 82 74 73 72 70 66 68
96 97 94 93 92 92 91 90 87 84 80 74 73 76 79 79 78 76 77 76 74 74 74 72 72 71 72 72 72 64 77 75 73 78 83 84 74 64 72 70 67 65 66
97 97 95 88 95 92 92 90 88 86 81 78 77 79 81 79 81 78 78 76 75 76 73 70 69 69 72 72 70 64 73 71 77 73 67 79 73 54 70 72 67 70 67
93 91 94 94 94 94 87 92 91 89 86 83 83 84 84 82 80 79 84 83 78 76 72 69 66 68 70 69 64 62 66 69 80 90 96 95 70 61 72 69 67 66 68
89 91 92 93 93 93 92 88 88 89 88 87 89 90 91 94 92 90 90 87 86 81 71 68 64 68 74 73 67 62 55 59 66 95 98 88 76 68 72 72 66 68 68
94 93 92 93 93 92 79 93 90 90 96 95 94 93 96 95 96 92 94 91 88 85 80 70 66 72 73 65 58 48 50 54 74 93 97 88 77 70 73 74 61 58 61
93 94 94 94 94 93 92 98 99 99 98 97 95 95 95 95 98 98 98 98 98 96 95 89 89 85 76 64 60 54 45 54 72 97 94 88 80 73 71 67 62 59 67
94 93 94 94 95 94 97 98 99 99 98 98 97 95 97 98 98 99 99 98 99 99 98 95 96 91 82 70 67 64 58 52 76 98 96 92 86 72 70 63 68 70 68
94 94 94 95 95 96 95 98 98 99 98 97 97 96 97 97 98 97 98 98 99 98 99 98 97 96 94 88 76 70 59 50 56 82 98 94 91 84 72 66 69 65 63
93 94 94 94 94 95 96 96 98 98 98 98 98 97 96 96 96 97 97 98 98 99 98 99 98 98 97 95 87 74 56 48 52 69 96 97 91 88 80 69 67 65 62
94 92 94 93 93 93 94 95 97 98 95 99 98 96 95 94 95 91 96 97 97 98 98 99 98 98 98 94 88 73 59 49 49 56 86 97 96 92 88 74 69 67 66
92 92 92 82 93 93 91 94 94 93 97 98 98 98 96 92 93 95 94 96 96 98 98 99 98 98 98 98 96 84 67 53 47 49 74 95 97 96 93 86 80 70 66
92 92 92 91 95 95 94 94 95 91 95 92 96 97 95 95 93 93 92 88 95 97 98 96 97 97 97 97 96 90 75 60 47 44 62 84 94 96 97 91 88 85 80
86 92 93 94 93 95 97 97 98 98 98 97 95 92 88 88 93 93 92 93 96 98 98 98 96 98 97 96 89 80 84 75 66 55 58 76 92 94 96 96 95 93 86
49 64 83 93 91 98 99 99 99 98 98 98 98 96 94 90 88 95 96 96 97 98 96 97 98 98 98 96 93 91 83 72 63 56 61 62 80 93 94 96 96 95 94
51 52 51 49 46 61 88 95 97 98 98 97 97 96 96 96 96 96 95 96 96 98 98 98 99 99 98 98 97 88 91 87 72 61 62 61 66 87 93 92 92 92 93
64 62 57 57 57 55 48 49 51 52 57 73 90 95 94 91 96 98 98 98 98 98 98 97 98 99 97 99 94 95 92 89 78 68 53 58 64 76 92 92 90 89 91
77 67 63 63 63 63 62 59 53 54 53 59 65 68 64 66 71 82 95 98 99 99 99 98 98 98 99 98 98 90 92 80 93 92 67 58 62 59 74 85 89 87 82
74 74 76 74 74 74 74 73 73 71 75 76 74 74 75 79 80 80 80 92 97 99 99 98 99 99 99 98 99 97 95 95 86 93 96 91 82 80 78 70 73 85 81
80 80 79 76 76 72 73 74 77 79 82 79 80 81 80 80 84 89 92 95 97 99 99 99 98 98 99 98 98 98 96 97 97 96 97 93 92 92 93 91 92 91 92

GFSSE_sfc_rhum_051.txt.gz
RH
70 72 88 84 83 83 83 81 81 78 79 74 75 75 73 74 76 76 74 72 72 71 70 66 69 72 73 73 71 70 69 69 73 78 76 76 69 65 64 66 68 61 74
68 69 88 84 83 84 85 86 86 84 80 74 75 73 72 74 76 73 70 69 67 68 69 69 69 70 72 73 72 70 67 67 71 75 79 79 79 68 67 68 67 64 72
72 68 71 85 85 86 88 87 86 85 83 78 75 72 71 72 76 71 72 72 68 67 69 69 69 71 73 74 73 73 73 74 76 79 81 65 57 66 69 72 68 68 70
73 68 68 88 88 89 89 87 87 84 78 77 75 71 71 72 76 74 73 73 66 66 67 67 68 71 72 71 71 70 69 72 75 80 61 66 63 66 69 77 77 74 74
72 69 75 90 89 90 89 88 86 83 80 79 74 70 75 73 78 74 76 72 68 69 69 67 67 70 70 71 72 70 72 71 78 67 64 69 66 71 78 76 74 74 74
77 70 85 90 91 90 90 89 85 81 80 78 72 72 80 75 78 78 77 74 72 73 72 71 71 71 72 73 72 72 75 77 75 60 56 63 68 74 74 73 71 71 70
80 75 74 92 91 91 90 89 86 82 80 73 70 76 79 80 80 78 77 75 73 74 74 72 71 73 73 73 69 70 77 79 56 54 54 58 62 74 73 71 67 66 68
80 80 73 90 92 92 91 89 86 84 78 73 76 78 80 77 78 78 77 75 74 75 73 72 72 72 72 72 66 70 77 73 55 51 54 55 68 65 70 68 67 67 67
78 79 75 74 82 93 92 90 87 85 81 78 82 84 84 85 80 77 78 75 74 75 72 70 70 72 73 72 64 69 72 71 48 47 48 51 66 58 70 68 68 63 68
81 76 76 76 72 74 83 92 90 88 85 83 84 84 84 82 83 78 85 81 77 76 71 69 68 70 71 67 63 64 67 68 47 59 59 60 71 65 73 70 64 58 62
82 79 78 75 73 76 85 84 88 89 88 87 85 90 84 69 70 73 86 88 86 79 71 67 66 70 74 72 65 60 57 37 38 48 56 82 77 70 73 71 60 61 63
83 78 73 76 74 76 74 77 80 76 70 69 70 72 70 74 73 74 83 90 88 85 79 68 66 72 61 42 39 41 31 33 37 49 56 85 82 72 73 71 58 58 59
78 75 75 75 74 73 72 78 76 74 74 72 72 72 71 74 77 76 76 76 77 87 69 67 64 55 50 43 41 35 31 33 34 44 63 86 84 78 72 70 62 59 66
80 76 76 74 77 75 72 76 78 76 76 74 74 72 72 73 79 79 76 77 79 77 79 73 65 63 60 52 44 41 40 36 32 46 60 90 87 81 69 64 67 69 68
81 77 77 77 76 76 77 78 80 79 75 72 74 74 71 72 73 73 74 75 78 78 77 76 72 68 65 63 60 54 48 40 32 34 46 90 89 86 80 70 67 68 65
79 77 75 78 77 76 76 78 76 79 78 76 74 72 73 70 70 70 68 71 74 76 75 74 73 72 70 69 66 60 54 44 35 34 37 47 88 89 84 77 67 67 64
81 74 76 76 77 77 76 75 75 75 77 79 77 75 73 73 71 68 68 68 68 73 73 76 75 77 76 73 70 64 59 49 41 36 36 44 54 88 90 81 72 68 67
84 79 75 72 77 76 75 75 74 73 74 74 75 76 77 74 73 72 72 71 68 70 74 76 75 76 76 75 69 65 64 60 53 44 37 38 47 53 72 87 83 74 68
84 80 80 78 77 76 78 73 78 72 76 70 72 74 76 76 74 74 74 72 70 72 74 74 74 77 74 70 71 67 69 68 62 54 46 46 42 52 55 74 91 90 85
78 78 77 78 79 80 80 79 83 82 81 75 73 73 72 72 76 77 76 75 75 78 77 80 78 77 75 74 77 74 72 68 64 58 53 47 46 50 53 60 62 67 89
59 74 82 82 80 83 87 88 88 86 86 87 85 77 75 74 73 79 83 83 82 81 77 78 81 84 88 87 93 84 75 67 64 59 53 50 49 47 51 55 60 63 66
45 50 56 76 69 83 85 85 84 84 84 82 85 82 83 83 83 83 83 84 82 84 82 85 88 88 92 92 96 89 90 64 60 54 49 47 46 45 49 54 55 58 64
53 51 49 49 47 46 47 49 51 50 51 59 73 78 64 53 70 89 92 92 89 90 91 88 88 91 94 94 91 94 90 79 71 61 51 48 46 45 47 55 58 62 60
64 59 57 58 57 56 53 47 44 46 46 52 52 56 55 55 57 57 68 82 90 92 95 92 90 90 92 96 94 87 88 80 94 91 71 53 62 53 52 54 53 54 59
64 68 67 64 63 64 63 60 58 58 61 62 61 62 61 62 64 73 74 70 75 83 89 90 92 94 92 91 92 91 92 90 81 89 90 84 70 63 60 56 53 53 57
70 72 70 64 64 64 63 63 65 66 65 65 66 65 64 64 69 68 78 83 88 90 92 92 90 96 95 95 88 90 87 86 84 88 92 91 87 73 70 69 69 70 69

GFSSE_sfc_rhum_054.txt.gz
RH
52 54 88 84 82 81 81 81 83 82 80 75 75 73 75 76 77 74 73 72 70 70 68 71 74 75 72 71 70 67 66 70 73 74 78 75 67 64 65 69 72 58 69
45 48 88 86 83 84 84 84 84 83 82 77 74 72 75 76 74 70 69 67 67 69 69 68 70 71 72 72 70 69 70 73 78 80 78 78 78 69 69 70 73 66 72
45 45 58 87 87 86 86 85 84 81 81 76 73 71 75 76 71 73 71 67 67 69 68 70 71 71 73 74 73 73 72 74 78 79 75 47 48 68 74 72 70 67 72
44 46 48 88 88 88 88 86 86 80 78 76 73 71 73 76 74 74 72 66 67 68 69 70 73 73 72 72 71 70 70 73 76 72 48 47 46 76 76 77 75 75 72
45 44 53 86 89 89 87 87 84 80 79 76 72 72 73 77 75 76 72 68 70 70 68 69 72 72 73 73 71 72 71 74 72 51 52 62 59 71 75 73 71 72 74
44 43 80 91 91 90 90 88 83 80 79 75 70 76 75 79 78 77 74 72 74 72 70 71 72 73 74 73 72 74 74 72 67 35 41 57 70 72 72 69 70 70 71
43 47 60 89 91 91 90 88 85 81 77 72 73 79 76 79 79 78 76 74 75 74 71 71 72 73 74 71 68 74 75 72 37 36 36 39 58 74 71 69 68 68 70
45 50 57 88 92 92 90 88 87 82 76 70 75 81 82 78 78 78 76 74 74 73 72 71 71 72 73 70 66 75 71 68 41 36 38 38 65 69 69 68 68 68 69
49 49 56 57 75 95 92 90 88 84 78 76 81 84 85 84 80 77 76 74 75 74 72 71 71 72 71 68 64 73 68 66 33 34 35 39 67 62 70 68 64 64 68
56 55 54 54 52 57 67 90 89 88 84 84 87 85 87 87 83 82 83 80 77 74 70 68 69 70 69 66 60 63 63 62 31 36 37 48 70 68 70 68 60 59 62
55 55 51 51 47 50 67 75 87 89 86 86 82 88 80 48 55 64 83 86 83 75 70 66 68 71 70 70 62 57 53 29 26 29 34 78 78 74 73 69 58 60 65
56 54 51 54 51 50 68 72 69 63 53 52 50 50 41 45 47 52 73 90 85 83 76 66 67 70 64 30 31 45 24 24 24 30 32 75 79 76 75 72 60 61 63
50 52 55 58 55 53 57 68 70 59 52 52 52 49 43 45 52 51 48 51 52 80 54 59 57 43 39 34 32 28 28 25 23 27 43 76 79 78 74 72 62 60 66
55 55 57 55 59 56 55 55 53 51 52 53 53 51 48 46 51 46 43 45 48 49 51 52 46 47 49 46 40 37 34 32 28 26 38 79 82 79 75 69 67 69 69
62 59 58 56 56 56 59 58 55 52 53 51 54 54 49 51 52 46 42 42 44 46 47 49 50 46 48 47 46 45 44 40 34 28 28 79 83 81 79 76 70 71 69
64 60 57 57 56 54 56 58 57 54 51 52 52 54 54 51 53 52 48 46 43 46 47 48 49 51 50 50 50 48 48 46 39 35 32 35 73 81 82 78 73 67 68
67 64 59 58 56 55 54 54 52 53 53 52 52 54 55 54 54 53 51 51 49 46 49 50 52 53 55 52 54 51 50 47 46 43 39 37 40 81 83 78 75 72 67
65 68 63 61 60 57 53 53 50 48 50 50 50 52 55 53 54 55 55 54 52 52 53 53 54 55 56 54 54 51 49 50 49 48 47 44 40 38 63 79 79 77 72
64 69 70 66 62 59 58 54 54 52 52 50 50 51 54 54 54 56 55 55 54 56 56 56 56 57 60 56 55 53 52 53 53 50 49 49 48 45 42 58 81 90 89
61 65 71 71 67 64 63 59 59 57 53 49 50 51 52 52 55 57 56 57 56 59 59 58 63 61 63 60 57 60 57 56 56 54 49 45 46 47 46 46 46 50 89
51 60 66 72 67 66 66 65 64 68 62 60 59 60 58 57 57 62 63 61 61 64 62 61 64 69 70 72 85 74 61 54 52 48 46 44 44 44 44 44 44 42 44
33 56 61 64 62 63 61 62 62 62 61 59 65 66 65 65 66 70 72 72 72 73 70 70 72 80 83 81 92 91 75 47 44 46 44 43 42 40 42 41 42 42 44
38 43 48 56 64 68 70 68 66 61 61 64 68 68 60 48 54 72 85 88 88 90 91 88 85 85 92 88 88 88 73 53 57 47 50 44 44 41 42 44 45 45 46
46 46 44 45 44 44 44 52 59 60 58 44 41 43 43 45 46 44 45 50 59 70 84 84 84 83 89 88 91 83 82 73 84 82 55 48 49 48 48 48 46 46 46
53 54 51 48 47 47 46 39 38 40 42 44 44 47 45 44 48 53 58 61 57 56 60 64 67 72 83 86 91 85 82 87 84 92 82 60 52 46 46 49 50 50 52
55 59 56 49 49 49 47 45 45 47 46 46 49 48 46 47 52 53 56 64 68 70 76 78 80 82 82 86 93 88 83 80 84 81 87 80 73 62 56 54 54 54 53

GFSSE_sfc_rhum_057.txt.gz
RH
47 62 88 82 78 80 79 80 80 82 79 75 73 72 73 77 74 72 72 70 69 70 72 75 72 72 71 69 66 65 67 68 71 73 75 75 69 66 70 75 72 59 71
43 55 88 85 81 82 82 80 83 84 82 77 72 73 76 73 70 69 68 67 70 67 72 73 71 71 72 72 71 70 73 78 77 76 76 80 79 74 70 73 74 65 74
41 51 65 87 86 85 85 84 83 81 80 76 72 74 73 72 73 70 67 68 69 69 70 75 72 71 73 73 73 71 71 72 72 74 74 48 64 78 75 72 76 75 74
38 48 54 89 86 87 85 84 83 80 77 75 72 74 75 74 71 71 66 68 70 71 72 73 73 73 73 72 71 70 71 68 68 73 55 56 58 76 76 74 73 74 72
37 42 62 88 89 88 86 85 81 79 78 75 73 73 78 77 75 71 67 70 70 69 72 73 73 74 74 73 72 71 69 67 71 54 58 69 65 70 74 73 69 72 73
36 38 80 90 90 90 89 86 81 80 76 74 74 74 78 80 76 73 71 73 72 72 71 73 74 74 74 73 72 71 69 69 74 34 45 63 71 71 71 71 71 71 70
35 48 59 91 90 91 90 88 84 80 74 72 77 78 78 79 78 75 74 75 74 71 72 72 73 74 73 69 72 72 69 70 34 36 36 42 66 71 68 68 70 70 70
37 50 56 89 92 90 90 89 86 79 71 73 78 80 81 79 78 77 74 75 74 72 71 70 72 72 73 66 72 74 69 73 36 35 40 43 71 71 68 67 67 67 69
38 42 56 62 77 93 92 90 88 81 75 74 85 86 84 84 80 77 74 74 74 73 72 71 71 71 71 66 68 71 66 67 38 36 35 42 70 65 67 65 65 63 66
41 46 56 56 56 61 67 91 90 87 83 88 87 88 88 87 85 83 80 79 76 72 69 68 70 71 69 66 60 58 60 66 31 34 37 55 69 69 69 63 59 60 65
58 53 63 55 46 53 58 73 88 87 85 88 82 87 86 48 59 65 85 86 81 72 68 65 68 70 68 69 60 57 65 31 26 30 35 77 75 73 76 69 59 60 64
60 63 65 64 40 55 60 66 60 57 53 50 46 52 42 40 43 53 73 88 84 79 74 65 67 69 66 33 42 57 32 25 26 31 36 70 72 75 74 73 62 62 64
53 54 59 64 54 64 61 65 63 56 51 47 45 42 35 38 48 48 51 57 57 85 59 64 62 49 38 36 35 31 32 31 27 30 46 66 69 71 76 76 65 59 66
45 44 44 57 64 62 60 64 64 54 44 48 47 46 43 41 47 42 41 42 45 48 48 48 44 42 45 44 40 38 36 36 34 32 38 70 68 70 75 71 67 68 69
52 51 51 51 53 60 66 62 61 54 44 43 46 48 44 46 49 41 37 38 38 40 42 43 46 44 44 44 44 44 44 42 39 37 37 75 72 70 72 73 73 73 72
62 59 57 54 54 55 59 64 62 58 42 42 44 47 48 47 49 48 44 42 38 40 43 44 46 48 48 46 47 46 46 47 45 42 41 44 70 70 68 70 70 67 66
59 58 57 56 52 54 54 50 50 50 42 43 44 46 48 48 48 48 48 48 47 42 43 45 48 49 51 50 50 48 48 48 48 47 46 46 49 78 74 63 66 68 68
56 58 55 53 51 49 48 49 47 44 45 44 44 45 48 46 49 51 52 52 50 49 50 51 51 52 52 52 51 50 56 52 47 47 48 49 52 46 72 76 72 68 69
54 58 59 60 58 54 52 50 49 46 46 45 44 46 49 49 48 52 52 52 51 54 54 55 56 56 58 61 61 58 55 53 49 48 50 51 52 55 53 66 82 81 82
53 54 61 62 62 60 60 56 54 53 49 46 47 47 48 49 51 53 53 53 55 60 61 64 62 65 66 62 58 58 59 58 55 56 52 46 44 50 52 55 59 59 82
50 56 60 65 64 64 68 69 65 64 57 52 51 50 52 52 52 57 62 60 62 62 60 59 63 66 72 70 85 76 69 56 52 52 46 46 46 46 47 49 52 52 52
31 53 57 61 64 65 67 66 64 65 62 53 65 60 60 60 63 74 77 78 80 79 72 73 75 83 87 84 91 94 83 55 51 51 50 48 47 49 49 46 47 48 54
30 41 54 56 58 58 64 65 76 69 70 69 67 72 72 55 57 67 81 89 89 94 93 90 92 94 96 95 94 93 80 65 64 56 57 54 51 52 51 52 50 51 53
35 42 47 50 60 61 66 71 73 72 74 64 52 49 46 42 44 43 47 50 54 66 82 81 80 84 91 92 95 90 86 78 83 77 63 58 53 48 50 54 52 51 53
52 53 48 45 46 46 48 51 59 59 48 47 43 44 42 42 46 48 53 58 62 60 58 60 64 70 77 82 78 85 88 92 88 96 90 75 60 52 49 54 54 55 56
53 58 54 46 44 44 44 42 42 46 45 50 51 46 43 44 48 51 52 56 63 67 70 76 78 79 80 77 84 79 86 93 89 89 94 79 82 70 57 59 58 60 61

GFSSE_sfc_rhum_060.txt.gz
RH
84 87 87 83 81 81 80 79 79 81 79 75 73 75 77 73 71 71 68 70 76 76 72 71 72 71 68 65 66 68 68 68 69 71 76 78 72 72 74 75 75 72 74
75 80 86 84 82 82 83 82 84 84 83 76 75 77 72 71 69 67 68 70 70 72 73 69 70 72 71 70 69 70 72 75 75 74 81 82 84 73 71 76 80 73 72
69 76 80 86 85 86 85 85 85 84 82 78 76 72 73 70 69 67 68 70 74 74 74 70 72 72 72 72 71 67 64 67 70 76 80 81 82 75 77 77 77 72 71
62 71 77 88 87 87 86 86 85 80 78 76 78 76 73 71 67 67 69 71 71 73 71 73 74 73 73 72 71 66 64 66 76 80 74 68 70 76 73 71 72 74 74
61 60 78 89 88 88 87 86 82 79 77 76 79 81 79 76 69 68 69 70 72 74 74 75 75 75 75 74 72 67 67 69 72 69 70 76 77 69 72 73 73 72 71
54 76 90 90 90 89 88 86 81 78 76 75 80 82 81 77 72 71 74 73 74 74 74 75 75 74 75 74 71 68 66 69 71 48 75 81 82 69 69 70 71 71 69
67 78 87 92 91 90 89 87 84 77 74 77 79 79 80 78 75 73 76 75 73 74 74 74 74 74 71 74 72 70 69 77 58 52 55 81 83 69 69 69 67 68 65
67 70 81 91 92 91 90 88 85 79 75 80 82 83 80 79 77 74 76 76 74 72 71 72 73 74 70 70 75 71 72 72 52 50 58 75 80 69 67 66 65 65 65
58 69 80 85 91 93 92 90 86 80 81 87 88 86 85 84 80 76 76 76 74 73 73 73 73 73 71 65 69 68 70 71 66 50 52 71 75 68 67 65 64 66 66
54 63 72 79 82 86 92 91 88 85 91 89 88 87 89 89 86 82 84 83 76 72 72 71 72 72 69 65 60 64 64 68 58 45 72 81 71 69 69 63 60 62 66
60 67 72 70 71 75 81 84 88 86 91 89 88 90 92 83 86 85 86 87 82 76 70 68 70 70 74 73 68 66 67 57 42 45 76 80 73 72 75 70 60 63 66
77 78 69 64 63 68 68 82 75 76 80 79 83 86 82 70 80 74 90 90 86 80 78 70 70 73 72 66 69 67 55 46 42 42 69 72 67 69 74 75 65 64 66
76 77 76 75 62 70 71 82 77 77 73 62 62 64 62 63 72 79 94 92 97 95 85 80 80 76 67 57 57 52 47 46 47 46 64 66 62 65 72 76 69 61 66
73 71 71 69 78 79 72 78 78 75 66 69 67 59 59 63 71 69 78 79 80 88 88 82 80 72 64 62 59 56 56 55 56 53 67 67 64 58 64 73 70 69 71
69 63 69 66 68 76 78 74 72 72 62 66 64 63 63 67 68 66 60 62 63 65 67 69 68 66 63 62 62 62 62 63 63 60 57 72 69 64 60 65 74 74 74
76 76 70 65 66 70 78 73 70 72 62 61 67 67 62 68 70 70 65 60 61 62 64 64 67 71 70 70 67 66 66 66 66 62 60 66 75 68 64 58 63 65 65
72 78 78 64 62 65 66 69 70 69 63 62 64 62 63 64 68 68 71 71 64 60 59 66 68 70 74 69 72 67 67 66 67 67 64 62 67 78 74 62 60 63 66
71 70 75 64 66 71 66 67 67 63 62 64 62 64 61 61 65 70 73 74 72 71 70 74 75 77 79 75 64 64 63 62 64 60 64 70 72 62 76 75 74 66 64
66 71 72 66 68 63 65 66 66 60 64 64 64 65 63 61 62 71 75 76 71 74 73 70 67 65 69 73 78 80 74 71 73 63 72 70 70 68 67 77 83 79 78
65 68 73 74 73 70 74 72 75 72 68 65 66 66 63 66 65 71 73 68 61 70 72 72 74 77 83 82 67 77 90 84 81 79 76 67 67 63 68 68 84 82 82
65 69 75 80 77 77 83 86 85 83 78 73 69 61 64 67 64 72 79 67 71 73 73 72 74 75 79 86 92 89 89 88 83 78 76 64 62 62 59 61 67 68 68
33 73 75 79 80 79 82 85 83 83 80 73 74 70 71 72 74 85 87 89 89 91 89 89 90 92 92 93 97 98 96 82 73 79 69 64 62 63 61 60 61 64 72
34 50 78 76 79 81 83 86 89 88 85 85 88 86 76 59 61 70 85 93 94 96 98 96 96 96 98 96 95 92 91 94 87 78 73 69 65 67 71 64 64 65 72
43 48 58 78 80 78 83 90 94 96 95 85 68 64 58 53 56 55 58 60 63 77 94 97 96 96 95 97 99 98 94 94 94 86 84 77 70 62 67 64 70 72 75
60 60 60 62 68 69 72 77 90 89 64 59 58 56 55 57 59 60 64 70 77 80 74 73 76 90 95 96 94 90 96 95 94 97 94 82 72 68 71 64 64 76 74
68 69 64 59 58 58 60 58 65 61 64 62 63 62 60 60 63 63 63 72 75 82 86 92 92 93 94 94 89 85 88 97 99 98 99 96 88 78 79 76 78 81 83

GFSSE_sfc_rhum_063.txt.gz
RH
92 90 87 84 80 80 80 78 79 80 79 74 76 76 72 71 70 71 72 79 78 75 70 72 70 67 65 67 68 68 70 70 71 76 80 81 75 72 79 76 78 72 72
88 84 87 84 82 81 81 82 85 84 81 80 76 71 70 67 67 70 71 73 73 71 70 71 71 69 67 66 69 73 75 76 73 76 84 89 82 79 76 76 77 72 73
88 81 82 86 86 85 85 84 86 84 82 81 75 72 71 66 67 69 66 70 73 71 68 70 71 71 71 68 64 66 65 66 68 76 78 89 86 76 72 75 72 70 69
83 81 83 87 87 86 86 84 84 80 78 82 79 72 72 67 68 70 71 68 67 69 72 73 73 73 72 70 66 66 66 68 80 82 80 77 68 74 73 72 72 72 73
83 82 85 88 87 88 86 84 80 78 78 83 82 80 73 67 68 70 72 74 72 75 75 75 75 75 74 71 68 67 65 70 76 78 79 89 85 68 71 72 72 70 70
80 91 91 89 89 89 88 84 79 77 77 81 85 82 75 69 70 72 73 75 76 76 75 75 75 76 75 72 68 66 67 70 62 72 92 84 83 69 70 68 68 65 64
93 92 88 90 90 89 88 85 82 77 77 79 84 80 77 74 73 74 74 76 76 75 74 75 73 72 75 74 70 68 68 71 58 71 88 92 82 69 67 66 65 65 64
91 89 86 91 91 90 89 87 83 80 80 82 86 82 79 76 73 76 76 75 73 73 74 74 74 71 70 74 71 67 70 74 56 62 78 94 82 69 67 66 67 67 67
86 90 95 92 92 93 92 88 84 84 87 88 88 85 85 82 76 74 76 75 74 73 74 74 73 73 68 65 64 64 66 70 64 64 60 81 79 70 66 65 65 67 69
84 91 97 97 93 94 93 89 87 92 91 91 92 91 91 89 84 81 86 82 75 74 73 74 74 71 68 64 61 66 66 69 60 70 77 84 73 69 70 64 61 66 68
80 86 92 96 95 94 94 87 88 93 90 89 90 91 93 94 90 87 89 86 82 76 71 71 71 69 73 74 68 66 68 57 55 62 81 81 73 71 74 70 63 65 67
87 90 87 86 88 88 76 92 90 90 96 92 90 92 93 92 92 83 91 89 84 80 77 71 71 73 72 72 72 71 59 52 49 49 75 75 66 67 72 76 68 67 67
89 86 79 78 81 82 81 92 87 86 86 86 92 91 88 83 92 96 98 96 97 89 87 81 82 79 72 68 65 60 57 52 54 54 61 69 61 58 66 75 70 66 67
82 78 75 75 78 88 79 88 83 80 82 79 74 72 70 84 86 95 98 96 97 96 96 91 91 84 76 69 64 64 62 58 60 60 64 69 65 54 58 74 76 69 71
87 82 73 76 88 82 85 86 85 82 77 76 66 69 63 72 76 76 84 89 90 92 94 94 89 80 76 70 69 68 68 68 69 67 62 76 68 66 57 58 70 74 74
85 82 78 75 81 84 85 87 77 84 76 75 76 71 66 72 69 71 71 69 70 74 73 72 73 77 79 79 76 74 74 73 72 69 68 67 80 72 68 59 58 61 65
80 82 78 70 72 78 86 79 78 78 68 65 74 70 68 73 73 71 76 71 66 65 64 72 75 79 80 76 79 75 71 65 66 66 73 64 69 81 75 64 62 61 62
87 80 75 68 77 78 76 76 74 70 74 66 69 72 68 67 70 75 77 81 76 73 72 77 80 82 85 83 75 69 71 69 66 75 74 74 77 66 75 77 74 66 63
78 80 81 75 84 75 72 74 75 71 68 71 70 72 68 66 67 76 80 80 78 81 79 75 74 72 71 74 78 77 82 88 86 76 81 77 76 77 71 82 84 79 76
83 78 84 77 77 74 75 76 78 76 71 71 71 73 68 68 67 76 78 79 70 74 74 75 76 78 82 80 76 74 80 86 90 88 86 76 70 67 74 74 83 81 80
80 89 90 82 79 80 86 88 88 86 84 80 76 66 67 67 67 72 80 72 74 75 76 75 78 81 86 89 88 88 90 78 90 88 88 79 63 66 66 69 72 76 79
70 86 92 88 89 82 84 87 87 87 85 79 79 73 74 78 82 83 82 86 88 89 86 88 90 92 91 90 92 97 96 78 75 79 80 68 69 68 66 65 70 75 90
42 89 83 91 85 89 87 90 95 93 94 93 90 88 74 63 61 70 82 91 94 96 96 96 96 96 96 94 94 93 95 93 94 79 78 71 68 75 76 72 74 79 86
39 54 85 92 88 86 88 93 93 96 97 97 93 74 62 58 60 58 63 64 64 72 81 96 96 96 98 99 98 99 96 88 94 88 86 84 76 70 75 67 74 77 79
49 62 77 92 89 91 96 97 98 96 95 81 74 69 71 62 61 64 68 68 76 85 84 79 80 87 97 97 97 95 95 93 93 91 93 92 80 72 72 72 70 81 81
69 70 69 70 66 82 82 87 95 90 81 80 80 75 68 67 68 67 69 76 78 83 88 93 93 92 95 96 96 95 91 94 99 98 99 96 92 87 81 74 78 91 93

GFSSE_sfc_rhum_066.txt.gz
RH
95 92 87 83 81 81 80 79 78 77 78 78 74 74 73 73 76 81 79 76 75 71 72 68 65 65 67 68 71 72 72 77 80 81 81 81 79 76 74 72 75 76 72
92 88 87 84 81 81 81 80 81 83 81 78 70 68 68 71 73 76 74 74 71 71 70 67 65 64 70 73 75 75 74 73 75 81 89 88 84 76 73 68 74 63 76
91 86 84 86 85 84 83 81 81 82 81 78 72 68 67 68 69 71 74 71 68 70 71 69 68 65 66 68 68 66 67 70 72 80 88 91 84 72 70 69 72 73 71
86 86 85 87 87 85 85 82 82 81 81 79 73 67 68 69 65 69 67 66 72 72 72 73 72 70 68 67 67 65 72 79 82 83 87 82 72 71 71 70 70 70 72
86 87 87 88 87 86 84 82 81 82 81 80 76 69 69 70 71 74 68 72 74 75 75 75 75 74 70 69 66 65 66 80 87 84 91 90 86 70 69 70 68 65 66
94 93 91 89 89 88 86 83 79 83 81 82 78 71 69 69 71 73 72 76 78 76 76 76 76 74 73 70 67 66 65 63 82 94 94 84 85 66 66 65 64 63 62
98 94 89 90 88 88 85 84 82 81 84 84 79 74 70 71 72 74 77 78 77 76 76 74 74 76 75 71 67 64 66 69 72 92 94 92 84 67 68 67 67 67 64
92 91 86 89 90 89 86 86 83 83 84 86 83 78 73 73 74 74 77 77 76 75 76 75 71 71 74 71 66 64 68 72 59 78 93 94 80 68 67 68 69 69 68
93 95 94 93 92 92 90 87 85 85 86 88 86 84 81 77 76 75 75 74 74 74 75 75 74 70 67 63 59 62 68 74 62 73 70 92 82 69 67 65 67 68 69
95 95 96 97 96 96 94 89 92 93 93 91 89 90 90 86 82 79 85 81 76 76 76 76 73 71 67 61 63 63 68 67 61 73 76 84 74 70 70 65 63 67 68
90 90 92 91 99 98 94 89 94 92 94 95 94 94 94 96 93 93 91 86 82 77 74 73 72 70 72 73 70 69 66 56 56 74 86 81 72 70 73 74 65 67 67
96 97 98 98 99 97 78 93 98 93 95 92 94 96 97 96 95 86 94 88 83 81 78 73 71 74 72 73 74 70 63 56 53 57 80 79 68 63 71 76 70 69 68
92 94 95 95 94 94 92 97 96 99 98 96 94 96 95 91 96 98 98 96 96 88 88 83 85 83 76 70 68 67 60 58 61 58 59 75 64 55 58 71 78 71 69
96 92 90 88 91 94 90 90 90 88 93 96 96 94 91 98 98 98 99 98 98 97 94 94 94 88 83 74 72 68 67 66 62 64 62 78 69 56 56 65 77 73 69
92 92 91 88 89 87 89 97 93 90 85 84 79 80 76 90 96 97 97 97 97 97 97 97 96 93 90 84 78 75 73 74 73 71 69 78 75 69 59 57 66 74 74
82 87 94 89 88 85 82 90 83 88 81 84 82 76 67 75 78 81 80 91 92 92 96 92 96 90 85 83 81 79 78 78 77 74 75 70 80 77 72 61 59 61 63
86 82 92 90 90 88 82 83 85 83 77 81 80 77 69 69 70 73 78 75 76 75 76 80 80 84 86 83 86 82 81 69 70 68 71 72 72 84 80 66 65 60 62
90 86 84 72 86 89 86 86 80 78 78 72 76 76 74 72 71 76 80 81 74 71 72 78 83 85 86 86 77 77 73 75 75 77 82 82 83 70 78 80 75 66 64
88 87 82 85 86 84 82 83 84 84 75 74 77 72 75 72 73 78 81 81 81 82 80 75 75 75 74 73 78 75 76 78 85 84 90 85 85 82 84 83 83 80 74
88 88 89 87 83 79 81 78 79 87 82 80 77 72 75 73 73 79 83 82 80 79 79 78 77 81 81 81 83 77 80 78 83 90 91 86 78 79 78 79 81 88 86
90 95 92 87 84 81 86 86 88 88 82 77 74 69 72 65 68 78 83 80 81 76 75 76 79 80 84 89 88 91 89 90 86 94 94 92 70 64 70 67 78 89 90
86 89 95 89 92 77 75 83 85 87 89 83 82 78 74 73 74 77 80 83 84 86 84 84 86 90 91 90 92 97 97 87 83 82 87 74 73 63 64 67 78 91 92
80 91 86 86 86 84 86 95 96 95 95 94 93 90 81 79 86 90 92 92 94 95 95 96 96 96 97 96 94 94 96 96 95 84 78 70 66 69 70 79 83 83 85
44 79 91 88 86 89 94 96 95 96 96 97 98 90 68 69 70 68 65 65 62 68 73 86 97 97 98 98 97 98 98 93 94 94 88 86 78 79 83 78 82 78 78
44 52 91 96 96 96 94 93 95 98 97 95 94 92 94 91 87 83 81 76 76 86 86 84 82 85 97 98 98 96 97 97 96 96 96 93 89 80 77 78 82 83 77
68 71 84 96 94 92 96 98 98 97 96 93 91 93 90 86 82 79 78 78 81 83 89 92 94 95 96 97 98 98 98 95 96 97 98 96 94 87 78 77 82 84 85

GFSSE_sfc_rhum_069.txt.gz
RH
95 93 85 82 81 80 79 77 75 77 80 73 72 74 79 81 80 79 77 74 73 70 66 64 65 67 71 73 74 77 76 76 78 81 84 83 75 72 70 73 75 80 76
91 88 86 84 81 81 80 79 78 83 80 74 73 73 76 80 80 78 75 74 70 70 65 65 71 71 73 75 75 74 75 77 80 86 89 88 81 71 67 72 76 73 72
92 87 84 84 83 82 82 80 80 81 79 72 68 71 74 77 77 76 72 70 70 69 65 66 71 71 70 69 69 71 70 75 82 86 86 89 82 71 70 71 72 72 71
89 86 84 86 84 83 81 81 83 81 75 70 68 68 71 72 75 73 72 70 70 71 70 68 70 70 69 69 71 76 77 75 82 86 88 84 73 69 69 68 67 68 71
92 88 86 87 86 85 81 82 83 81 76 71 71 72 72 68 69 66 74 73 74 75 75 73 72 71 70 69 68 76 80 83 86 86 92 91 88 67 66 66 66 64 64
98 95 89 87 87 88 86 85 83 79 78 73 70 71 72 72 68 68 74 75 77 77 76 75 73 72 72 70 65 64 73 85 90 95 94 86 83 67 67 68 68 65 63
98 95 89 88 86 86 85 85 86 84 81 76 70 70 72 72 72 71 74 77 77 77 76 75 73 72 72 69 64 65 66 76 91 95 94 92 84 68 69 70 70 68 66
94 93 88 89 89 88 86 86 87 88 84 79 74 71 71 72 74 76 77 77 76 76 73 73 74 74 72 67 63 65 69 67 70 87 94 93 81 68 68 69 70 71 68
97 95 96 94 93 91 90 88 87 89 87 85 82 78 77 77 76 75 77 77 76 76 75 73 70 70 68 63 59 65 72 68 74 78 84 96 82 68 68 67 68 70 69
98 94 98 98 98 97 96 91 90 90 90 89 88 87 87 86 83 79 84 81 76 76 76 75 73 68 64 61 63 64 70 66 70 77 78 85 77 69 69 64 65 68 69
94 88 88 90 99 97 95 95 95 94 95 94 94 92 92 95 93 93 92 86 84 80 77 75 72 70 74 72 69 69 62 58 59 84 87 79 74 67 71 77 66 68 68
98 94 87 86 98 97 81 98 98 97 98 96 97 96 97 96 97 92 94 88 85 83 80 74 72 74 74 74 75 69 64 59 56 59 84 77 70 61 64 75 72 69 69
95 94 91 90 98 96 92 99 100 99 99 98 97 97 96 94 97 98 98 96 95 89 90 87 88 87 78 74 72 70 64 64 64 60 56 74 67 57 56 63 73 74 72
96 96 93 96 96 96 92 93 98 98 99 99 98 96 98 99 98 98 99 98 97 97 93 93 96 90 88 80 78 76 73 71 67 65 68 73 72 59 55 58 71 75 73
90 88 94 97 94 91 90 93 90 90 94 95 98 96 96 97 98 98 98 98 97 96 97 96 96 94 94 92 86 82 79 78 78 74 75 78 79 72 61 58 62 69 74
71 72 86 92 96 93 86 93 92 85 80 85 86 90 87 92 97 98 98 97 96 96 96 96 96 96 92 88 83 85 83 84 84 75 70 71 78 78 75 61 60 61 62
79 77 85 90 97 97 92 96 93 90 85 87 84 78 73 80 87 87 86 87 93 91 89 94 86 87 91 88 90 86 85 85 82 72 72 74 76 84 81 68 66 62 62
80 80 86 81 92 95 96 96 95 85 82 78 84 81 72 68 73 79 83 82 76 76 79 83 86 89 89 89 88 82 74 75 74 76 76 76 80 75 79 80 77 68 64
76 78 85 82 80 82 91 94 94 94 85 82 78 82 77 71 71 78 84 85 85 81 79 77 81 75 84 76 76 74 83 77 77 80 85 91 90 86 82 85 84 80 74
88 84 80 87 89 87 92 94 94 93 94 88 81 86 73 74 77 81 86 85 86 89 88 80 77 82 82 80 82 87 90 88 90 93 93 90 91 85 87 86 96 96 86
93 96 91 94 93 94 98 95 94 95 89 88 91 77 76 74 73 80 88 88 89 90 86 79 80 82 84 88 91 88 92 90 92 91 93 95 84 78 75 72 86 88 92
93 96 92 90 90 82 87 85 89 95 95 80 80 74 76 76 73 76 81 88 83 85 82 87 87 88 89 90 91 97 96 90 86 86 86 82 81 74 70 70 78 83 94
89 96 92 86 85 84 84 94 97 96 96 92 89 85 85 83 82 84 86 90 93 95 94 94 95 95 96 96 94 93 92 97 96 87 82 79 78 78 74 78 80 84 89
49 89 94 94 94 94 96 97 95 97 96 95 95 96 90 85 88 88 86 88 87 82 79 83 95 96 98 99 96 98 98 93 91 94 90 92 86 80 83 86 81 77 82
43 56 92 95 96 95 96 94 96 97 97 99 98 93 92 92 92 92 93 91 85 84 83 82 84 83 96 98 98 97 97 98 99 100 96 89 91 88 83 80 78 81 80
60 67 85 93 96 96 98 97 97 95 98 98 98 98 98 97 96 92 86 78 75 80 85 90 93 95 96 97 98 99 96 96 96 98 99 96 95 95 88 84 82 84 84

GFSSE_sfc_rhum_072.txt.gz
RH
96 93 84 82 80 78 73 72 74 80 77 75 78 80 81 80 80 79 76 74 71 66 64 66 68 71 73 74 74 70 75 78 82 82 82 79 72 69 72 76 78 74 76
94 88 85 83 80 79 77 74 80 81 77 76 77 79 79 79 78 75 74 72 68 66 68 68 70 72 74 75 76 76 75 82 82 83 86 86 80 72 73 75 74 70 70
91 88 84 84 84 83 81 78 82 79 76 74 76 80 80 80 76 75 71 72 66 65 69 70 72 72 71 72 72 74 78 82 84 83 83 88 82 70 70 70 71 70 70
90 89 85 85 84 82 79 80 82 75 71 71 76 78 79 78 74 71 72 71 68 67 72 73 72 72 72 75 78 75 78 82 83 84 90 86 72 67 66 65 64 64 69
94 92 86 86 85 82 79 83 80 75 71 71 76 78 78 78 74 74 72 72 73 72 73 74 72 72 71 76 79 79 81 82 85 86 93 91 85 67 68 68 67 65 64
98 96 89 87 85 85 86 84 78 76 71 71 74 75 76 72 73 74 73 76 77 76 73 73 72 72 72 72 70 80 82 86 90 95 95 84 84 69 70 71 69 67 66
99 96 90 88 86 85 86 84 82 78 72 72 72 72 70 69 71 70 74 78 78 76 74 71 71 70 70 70 65 66 81 84 93 95 94 92 85 70 71 72 71 68 66
96 95 88 89 88 87 86 86 86 84 75 72 73 72 74 68 72 73 76 78 77 76 74 73 72 70 69 64 64 67 66 73 78 94 94 94 80 69 70 71 72 71 67
96 96 97 95 93 90 90 89 87 86 81 77 77 76 78 78 75 74 77 77 77 76 74 73 73 71 66 61 61 67 69 71 80 86 89 96 84 68 69 68 71 72 69
98 98 96 98 98 97 96 91 90 90 88 85 83 85 86 85 82 79 84 82 78 78 78 75 71 68 65 62 64 68 68 65 81 80 80 86 78 68 68 69 67 70 70
94 97 98 94 98 98 97 95 92 93 94 93 92 91 93 96 93 92 92 86 84 80 77 74 71 69 69 69 70 70 60 58 68 86 88 75 74 64 65 74 67 69 70
98 95 87 87 98 97 89 98 98 97 94 98 97 96 97 96 97 93 94 89 86 85 83 74 71 73 72 76 75 69 65 62 60 58 80 74 71 61 58 69 73 69 70
95 95 92 88 98 96 94 100 100 100 98 94 97 98 97 96 98 98 98 97 96 90 94 89 90 87 79 76 76 74 68 70 66 64 58 65 69 59 54 58 66 75 74
98 96 93 92 99 96 96 99 99 99 100 96 98 97 98 99 98 98 99 97 96 96 92 93 95 91 88 86 83 79 79 78 76 68 70 73 71 62 57 57 64 73 74
90 93 98 97 98 97 94 96 99 99 99 98 98 97 98 98 98 98 98 98 98 97 96 96 96 94 93 92 91 87 83 83 82 82 82 81 74 71 63 59 59 65 72
80 90 86 86 93 96 98 95 95 97 96 98 98 98 96 97 98 98 98 98 97 97 96 96 96 96 96 92 87 85 85 87 88 87 83 74 79 78 73 65 60 61 61
79 81 81 71 87 95 95 97 97 96 90 91 92 93 94 90 95 96 98 98 97 96 94 96 95 92 93 90 91 89 88 88 88 76 78 76 77 86 80 75 67 63 61
75 75 78 70 80 89 96 98 96 97 97 96 92 83 80 78 85 90 92 88 85 94 92 90 92 92 94 94 91 87 84 81 84 81 81 86 88 81 82 78 77 68 65
76 80 85 85 87 91 96 96 97 95 98 96 96 92 82 72 75 80 84 84 82 81 80 81 85 90 88 89 83 76 76 86 87 84 90 90 92 92 92 85 83 79 74
83 84 81 83 85 90 94 95 95 95 98 97 95 89 82 73 74 75 83 85 89 88 87 87 83 83 82 81 82 88 92 93 94 94 94 91 94 89 92 90 94 94 85
93 87 79 83 86 86 88 91 90 92 91 96 92 79 81 78 78 74 77 86 90 93 91 83 82 83 88 88 90 93 92 90 92 90 93 95 92 89 88 96 92 90 86
94 98 88 79 81 77 77 75 84 84 87 86 90 87 81 79 77 78 79 85 89 92 85 85 87 90 90 91 91 96 95 91 90 90 87 87 88 80 79 85 86 81 86
90 97 96 84 83 85 85 96 98 97 98 98 94 88 86 79 81 84 85 89 89 93 94 92 93 91 93 96 94 90 92 96 96 92 88 84 84 87 89 87 81 80 89
46 75 94 96 96 97 98 99 98 98 98 99 99 98 97 94 94 96 97 98 98 97 96 96 97 96 97 98 95 97 98 94 96 93 92 93 90 85 92 88 83 80 85
51 51 81 94 96 96 97 91 94 93 92 97 99 98 98 98 97 96 95 96 96 93 86 84 79 82 96 96 96 97 98 99 94 98 98 96 94 90 83 88 85 84 81
58 61 76 88 93 96 98 98 97 98 98 99 99 98 98 98 98 98 96 95 90 88 87 86 89 91 94 96 97 98 93 93 97 99 97 96 95 90 84 84 86 93 95

GFSSE_sfc_rhum_075.txt.gz
RH
79 71 84 82 80 78 76 75 79 79 79 78 70 75 78 79 80 79 76 72 72 68 66 67 72 74 66 70 73 75 79 78 78 79 78 77 72 72 75 74 73 62 71
75 69 84 82 78 76 75 77 83 82 82 80 78 75 78 79 78 76 73 69 67 67 67 68 72 70 71 72 73 76 79 80 79 80 84 82 79 71 71 72 72 66 74
76 70 71 84 82 80 79 80 82 81 80 81 80 80 81 79 77 74 72 68 69 68 68 69 71 72 73 75 75 78 79 80 80 81 80 57 58 67 65 66 68 71 70
74 70 68 83 84 83 79 82 82 76 76 80 82 81 80 77 75 73 70 67 70 70 71 72 73 74 77 77 76 78 80 80 82 81 56 54 52 68 66 65 64 64 65
75 73 72 85 85 83 80 83 77 72 72 79 83 83 81 77 75 70 70 69 75 76 75 74 74 75 80 82 77 78 80 82 84 68 60 61 58 64 68 68 65 66 66
79 75 82 86 85 84 85 84 76 72 70 75 81 82 81 78 73 69 73 78 79 78 75 73 73 72 76 80 79 80 82 85 82 66 63 66 61 70 71 70 68 67 66
83 77 73 86 85 86 88 83 79 72 71 73 75 76 78 76 74 71 73 75 77 75 75 72 71 70 69 71 72 81 83 84 63 66 66 66 63 70 71 73 71 67 67
79 77 72 86 87 89 86 84 82 76 72 75 76 74 74 72 68 74 75 77 76 74 72 71 70 70 66 67 66 67 75 75 64 64 69 68 74 70 71 72 73 69 67
80 78 77 75 81 91 89 87 86 80 76 77 76 78 71 78 74 73 77 77 76 74 74 74 72 69 64 62 65 68 69 72 52 58 61 64 84 68 68 69 72 72 67
82 82 81 80 76 76 77 91 90 86 82 81 81 82 85 76 80 79 84 82 79 77 76 74 70 66 64 63 64 67 68 70 50 55 51 54 76 66 65 68 70 71 69
90 87 83 86 78 78 78 83 91 92 90 88 86 90 86 69 71 74 86 87 85 82 78 75 72 69 70 73 72 66 62 36 46 50 50 68 71 63 63 72 68 70 70
89 95 90 86 81 81 77 79 84 84 80 74 72 74 72 76 74 73 82 89 87 85 83 75 72 70 64 48 48 58 39 40 38 39 42 71 69 62 56 68 74 71 72
93 89 87 85 84 81 79 86 86 87 91 81 77 76 77 80 80 76 76 73 72 80 64 67 65 54 51 48 51 45 46 47 42 43 52 62 63 62 56 58 65 74 74
91 95 90 86 87 82 80 87 88 88 90 85 80 79 79 82 83 80 75 74 71 68 63 61 56 57 56 56 53 52 52 52 50 52 55 72 68 65 60 58 61 70 74
90 93 97 93 90 82 80 90 89 85 88 86 81 81 79 80 80 75 73 72 71 68 64 63 63 62 62 62 61 59 56 55 54 56 57 82 78 71 67 61 60 61 65
91 88 94 97 94 89 87 88 93 86 85 85 83 80 78 74 74 75 77 75 73 69 66 64 67 70 66 65 60 58 58 58 57 60 60 60 83 80 76 72 65 61 60
90 88 87 80 82 91 88 88 85 86 87 86 86 79 77 75 74 73 74 75 71 68 64 71 70 67 66 64 61 59 59 57 60 60 58 59 61 86 81 74 72 66 62
82 88 83 70 73 82 88 94 91 82 85 85 81 76 77 75 73 72 74 73 70 70 69 67 66 65 64 64 61 59 58 57 56 57 58 59 62 61 74 77 76 74 65
78 83 83 81 75 78 92 96 90 84 90 88 86 83 75 69 69 69 70 68 64 65 68 66 63 62 65 65 65 60 65 60 60 60 58 64 64 64 63 80 84 81 76
77 80 79 77 74 87 93 91 94 92 92 94 91 86 80 79 68 68 66 64 63 65 64 62 60 64 63 71 77 76 61 60 60 62 62 63 63 69 66 68 65 69 84
86 86 79 80 73 92 93 89 93 93 87 91 93 90 88 82 78 80 72 67 68 71 64 62 63 73 84 84 83 64 62 59 62 59 58 62 66 67 66 69 68 67 70
93 90 88 83 84 85 88 88 86 85 94 85 89 89 84 88 89 79 74 78 77 74 73 79 78 83 80 78 83 81 69 59 59 63 57 61 63 62 66 68 66 65 70
85 94 87 78 77 83 88 95 97 97 97 98 98 95 93 92 92 86 82 85 86 87 85 86 87 86 84 91 85 82 75 71 74 64 65 59 60 59 61 67 64 65 66
57 68 92 94 85 84 88 93 94 96 97 98 99 99 99 98 98 96 94 94 92 93 94 93 92 93 92 86 85 83 84 81 80 68 66 65 62 60 64 64 64 66 72
54 54 61 82 93 96 94 88 92 96 93 92 98 97 99 98 97 98 99 97 97 95 96 92 80 80 88 86 81 80 82 85 81 90 78 72 70 67 66 66 68 62 70
64 65 72 76 94 96 95 95 96 92 93 98 98 98 97 97 98 97 99 99 99 98 96 94 89 87 87 84 80 82 77 75 81 90 90 79 81 71 69 69 75 76 76

GFSSE_sfc_rhum_078.txt.gz
RH
49 53 84 81 80 78 76 76 78 78 77 73 75 78 77 78 80 80 75 72 72 68 67 66 67 68 70 73 76 78 76 76 77 77 78 78 74 73 74 74 71 56 74
46 50 85 82 79 78 78 81 83 83 82 76 78 76 77 78 79 77 72 70 68 68 68 71 70 65 71 73 77 77 77 76 77 77 81 81 78 69 70 73 75 65 72
46 49 63 83 81 81 81 81 82 80 80 79 79 80 79 79 77 74 70 69 68 68 70 74 68 71 73 76 78 77 77 77 78 75 74 43 52 66 65 65 66 67 70
46 51 53 83 81 81 80 82 82 78 80 81 82 83 81 80 76 72 70 69 70 71 72 72 74 74 76 77 78 77 78 78 76 74 41 41 44 68 66 66 66 63 62
48 50 55 83 85 82 82 82 78 77 80 82 84 84 82 79 74 71 70 75 70 73 74 76 78 80 78 78 76 78 79 79 75 56 48 48 49 63 67 64 62 66 67
48 50 77 85 85 84 87 83 75 73 78 82 83 84 82 78 71 70 74 81 82 79 76 75 78 81 83 81 78 79 81 79 77 46 50 55 53 68 70 69 68 67 67
50 50 61 86 85 85 87 83 78 73 77 80 83 81 80 75 70 71 73 77 78 76 74 74 72 72 78 80 78 80 80 79 43 46 48 49 56 66 70 72 68 67 68
50 53 56 82 86 88 87 83 79 77 74 76 81 82 80 76 72 71 74 75 77 76 72 71 70 68 68 67 71 77 76 75 48 45 50 49 70 68 70 72 71 67 67
51 56 58 62 69 90 87 84 81 79 78 79 79 80 80 78 75 71 72 73 75 73 72 72 70 67 66 65 65 68 70 69 37 40 41 46 84 66 68 70 71 69 66
62 60 61 61 51 62 68 89 84 82 83 80 82 82 87 81 79 79 78 76 77 77 76 75 71 65 63 63 65 66 69 73 36 40 38 44 76 65 64 68 70 70 67
80 68 66 63 53 48 64 74 86 88 87 84 83 89 80 59 58 65 79 86 85 80 76 73 70 67 71 73 68 61 62 27 32 33 34 66 68 63 63 69 69 70 69
88 81 76 65 53 48 54 69 63 61 54 49 52 58 48 49 48 50 74 90 88 85 83 74 70 68 64 31 36 57 31 32 30 33 34 64 66 64 57 67 72 71 72
94 96 78 70 56 48 50 68 75 63 56 51 46 46 44 49 57 52 53 58 54 79 47 56 53 36 34 33 34 31 35 37 34 37 44 59 62 64 59 58 64 70 74
96 95 80 75 62 50 46 58 70 77 64 62 53 48 51 54 56 50 48 49 49 45 42 40 35 35 37 38 36 37 40 40 38 41 46 70 70 64 63 61 61 65 70
94 97 97 85 69 58 54 50 61 69 73 61 56 54 49 51 54 50 47 46 43 41 38 37 37 37 40 44 44 43 43 42 41 41 42 78 78 75 70 65 62 62 64
83 95 97 97 80 66 59 60 55 58 67 75 69 59 56 54 57 53 49 48 46 42 39 39 42 46 45 46 45 44 44 44 42 42 40 43 84 82 77 74 71 65 62
77 89 95 87 90 82 70 68 67 66 63 69 71 70 64 61 57 54 51 52 49 46 39 43 45 49 49 47 47 44 44 43 41 41 42 42 49 89 82 76 73 71 65
80 80 78 81 77 68 76 74 74 69 70 69 71 73 74 65 60 53 51 52 49 49 46 48 51 51 48 46 45 45 44 42 41 40 42 43 44 45 70 79 76 74 70
72 74 77 89 78 60 68 78 74 70 73 67 67 62 69 65 62 58 53 52 52 52 52 50 49 46 47 49 48 44 44 44 42 42 42 44 48 51 48 74 84 83 78
66 78 82 85 80 70 71 80 82 85 78 73 67 60 59 57 58 57 55 52 51 53 50 52 48 46 48 48 50 62 61 43 43 44 43 42 44 51 53 57 58 64 83
70 80 77 81 79 69 81 83 84 85 83 77 72 66 63 63 64 67 72 62 53 52 50 47 48 52 56 59 76 61 48 43 46 45 43 43 46 50 53 53 51 56 64
90 85 84 80 78 80 87 76 79 82 85 72 67 66 66 70 71 71 77 86 71 64 54 52 56 63 66 67 60 63 58 46 44 46 44 45 48 50 54 57 56 56 58
96 96 89 87 81 79 80 88 91 87 89 90 83 77 72 74 76 85 87 90 88 86 78 67 71 70 72 72 77 64 57 52 52 44 52 46 48 49 50 56 54 54 54
83 83 83 85 79 76 73 80 89 95 96 98 97 95 97 90 92 94 96 98 99 95 94 85 78 74 72 77 79 67 63 59 60 47 51 51 50 49 51 52 53 53 54
55 55 64 81 82 81 82 84 83 88 95 97 96 93 99 97 97 99 99 99 99 99 99 96 93 93 84 77 80 78 63 61 58 61 50 42 55 51 50 53 52 53 58
61 65 66 67 82 87 84 78 82 81 92 97 96 96 97 95 97 97 99 98 96 96 96 96 98 96 93 88 88 87 79 76 62 63 63 52 53 53 57 56 56 55 57

GFSSE_sfc_rhum_081.txt.gz
RH
45 62 85 81 79 78 77 76 74 74 75 78 76 77 77 79 79 78 75 71 70 68 66 66 66 71 74 78 75 74 75 76 77 78 79 79 74 74 76 77 75 66 74
40 56 86 83 79 78 78 80 82 81 78 79 78 77 76 79 79 76 73 70 69 68 65 67 68 70 74 77 72 75 74 74 72 76 80 79 76 68 71 75 76 67 72
39 55 65 85 82 82 82 81 82 81 80 79 81 78 78 79 78 75 72 69 69 71 70 63 68 70 74 77 76 75 73 71 72 75 77 48 58 68 64 65 66 68 70
37 56 56 85 84 83 84 81 81 81 80 79 81 81 80 79 77 73 71 70 73 73 73 66 70 73 78 79 77 76 72 69 69 72 42 42 48 67 66 67 66 63 64
49 54 63 84 84 83 84 81 79 80 80 82 81 82 82 80 75 72 70 75 69 78 74 74 76 77 78 78 77 77 73 68 71 58 46 50 55 64 67 64 63 67 68
56 54 82 84 85 84 87 83 78 79 78 82 82 83 83 79 73 71 77 72 80 72 77 79 82 80 81 78 78 77 74 73 79 46 49 57 61 64 69 68 68 69 68
57 63 62 86 85 86 88 84 78 79 80 80 83 83 83 78 71 73 80 80 80 78 77 77 80 81 81 80 78 77 73 74 49 46 47 53 60 67 69 70 67 68 69
57 63 58 82 86 87 86 83 80 80 81 82 83 83 81 76 72 68 79 80 77 76 75 73 72 73 77 78 78 74 72 77 46 45 48 56 72 68 70 71 69 67 69
85 64 64 62 74 92 88 84 82 80 82 84 85 85 81 80 76 71 73 74 76 75 73 72 69 68 67 66 68 70 69 73 48 42 42 54 76 66 69 70 70 67 66
84 81 80 68 59 59 70 87 85 84 85 84 88 86 88 84 75 75 70 75 78 78 76 74 70 67 66 65 64 65 70 71 36 41 41 59 76 65 65 68 69 69 65
84 83 89 79 61 52 64 70 84 88 86 88 86 89 80 63 62 70 74 78 84 82 77 74 69 68 73 72 68 66 67 34 34 35 37 70 67 63 62 69 69 70 68
90 78 93 93 74 58 60 70 55 53 56 50 57 61 56 53 51 50 78 87 88 85 82 74 71 70 67 35 43 59 35 30 31 36 41 68 63 66 59 67 70 70 72
91 94 90 88 88 59 60 72 52 49 43 45 49 53 44 45 52 54 65 68 65 83 58 64 62 45 34 30 32 30 32 35 34 38 52 64 61 63 63 60 65 70 75
94 89 89 88 91 61 54 71 66 47 42 42 45 44 43 48 56 47 50 52 50 51 43 44 41 35 33 32 31 32 36 39 38 40 53 71 68 63 64 64 64 65 71
88 91 91 89 94 70 48 76 76 67 48 46 43 42 44 51 57 49 46 45 46 42 40 41 36 32 33 34 36 37 40 39 38 40 42 80 77 75 71 68 67 64 64
78 91 91 93 96 91 47 62 77 74 67 57 50 49 44 47 52 48 45 44 43 42 41 36 35 36 36 39 42 41 41 41 40 39 41 53 84 82 77 75 73 71 66
79 82 84 89 95 94 54 52 63 74 74 69 58 50 50 50 50 47 48 52 51 48 37 36 36 39 42 40 42 41 42 39 40 39 40 42 55 87 82 76 74 72 68
77 84 82 86 92 89 76 68 57 54 66 81 75 71 60 57 53 53 56 55 53 46 45 39 42 46 48 45 45 43 42 41 39 37 38 40 46 43 78 82 76 74 72
70 76 87 89 91 90 67 79 68 62 69 59 63 67 68 64 60 56 50 52 49 51 49 46 48 48 50 47 46 44 50 42 40 37 39 41 44 50 51 81 82 83 80
69 73 82 85 88 86 71 79 83 73 71 62 65 63 64 67 63 59 57 58 56 58 54 53 51 49 48 47 50 51 50 48 46 42 40 39 40 47 50 55 68 74 82
72 78 83 85 87 84 82 84 87 84 85 84 72 65 65 60 60 66 69 68 63 64 55 51 51 51 54 57 68 58 58 49 44 45 44 41 42 46 50 55 57 66 74
88 88 93 90 90 85 84 82 83 83 83 80 74 67 64 64 67 69 76 78 76 80 75 70 55 56 56 59 66 66 67 53 48 47 45 44 43 51 54 56 57 62 67
92 96 87 88 92 91 90 91 82 82 88 90 86 81 78 71 73 78 81 81 86 91 94 91 89 66 77 78 76 71 64 63 55 49 54 46 46 50 52 59 58 59 60
92 95 96 96 94 93 89 92 90 92 91 93 89 90 88 81 84 89 88 90 91 93 94 95 93 95 82 85 86 79 66 67 62 57 54 52 50 47 51 59 58 58 57
82 95 92 90 91 89 88 91 94 94 94 97 99 96 94 92 93 86 94 92 96 97 98 97 100 99 100 97 95 90 74 77 69 70 60 55 59 53 50 53 55 57 61
66 66 68 73 81 80 81 87 88 94 96 96 95 98 96 95 96 96 97 96 97 98 98 99 99 99 99 98 98 95 88 82 81 81 78 64 56 54 60 61 62 62 64

GFSSE_sfc_rhum_084.txt.gz
RH
72 82 85 80 79 79 78 76 76 80 84 82 77 77 80 80 79 78 74 72 71 69 67 73 73 76 73 69 72 73 75 76 78 79 79 78 75 76 78 76 77 71 74
68 76 86 83 79 79 79 79 81 80 83 83 79 76 78 79 80 76 72 70 68 67 65 70 66 76 73 72 73 72 68 68 72 77 78 80 77 71 71 74 76 67 71
68 70 78 84 83 83 83 84 85 82 81 84 81 79 79 80 78 75 71 70 71 68 67 70 71 70 74 74 73 68 70 72 73 80 75 75 76 69 65 66 68 67 71
59 72 70 85 84 84 85 84 85 83 81 83 82 81 81 80 77 73 70 71 76 71 67 67 72 78 77 77 73 66 67 67 72 76 64 60 61 67 67 68 68 65 66
63 64 70 85 85 85 86 84 83 82 82 82 82 82 82 81 75 72 72 76 76 74 68 71 75 81 80 78 74 67 64 65 75 67 67 72 77 66 69 68 69 69 68
64 60 85 86 86 86 87 85 82 81 81 82 82 82 82 80 76 72 78 69 78 72 74 78 78 80 83 79 75 69 68 73 80 63 74 73 66 64 68 69 70 70 69
67 77 78 86 85 87 88 85 83 81 82 84 83 82 81 79 76 76 73 72 70 76 80 82 79 80 81 79 75 69 69 76 72 63 68 76 74 66 70 68 68 70 70
90 78 73 83 87 88 88 85 83 84 83 85 84 84 82 79 76 76 68 71 77 79 78 78 81 79 81 79 76 71 73 76 61 63 76 84 78 68 70 70 68 69 70
90 89 88 86 85 90 89 85 84 86 85 84 83 84 83 80 78 70 77 74 75 78 77 76 73 73 74 76 76 73 73 72 74 62 66 83 77 68 70 70 70 67 68
94 93 90 90 82 84 89 86 86 88 87 86 87 90 88 83 79 78 72 84 72 80 80 78 73 70 70 69 70 73 69 71 70 55 77 90 77 64 67 71 70 68 66
93 94 96 89 89 89 88 84 88 89 90 93 93 90 84 71 63 72 81 87 83 83 81 76 73 74 76 74 71 68 67 61 60 57 69 80 73 62 64 70 70 69 67
92 87 90 93 89 87 84 89 82 84 87 80 83 78 66 68 68 66 84 83 87 86 84 78 74 76 73 68 71 68 59 51 50 54 67 72 66 66 60 68 70 71 71
90 93 91 86 93 90 89 95 69 72 75 75 77 73 63 68 76 86 95 94 98 92 90 86 86 77 66 58 57 52 49 51 54 55 66 71 63 63 64 62 67 71 75
93 92 90 90 92 94 94 93 79 62 61 61 69 65 73 69 72 80 86 90 87 89 80 80 76 64 58 48 48 48 50 55 59 63 69 72 69 61 62 66 66 67 68
91 88 90 92 92 93 94 94 87 56 53 59 63 61 63 73 77 72 69 72 72 68 67 65 64 53 49 45 45 48 53 57 56 60 66 81 78 76 69 68 68 69 67
83 87 90 92 94 94 95 96 85 91 62 55 60 62 62 71 72 68 66 66 64 62 58 57 54 52 50 51 54 55 57 58 58 51 65 71 84 82 79 72 72 71 70
79 86 92 93 93 94 94 96 85 92 84 74 68 60 58 64 66 64 63 66 62 60 54 54 50 50 56 57 60 58 58 58 52 53 56 69 80 89 84 75 74 70 70
81 87 88 83 93 94 95 95 84 86 92 89 67 63 64 64 63 66 70 69 67 66 60 59 56 59 68 67 66 63 58 54 54 54 52 52 65 67 87 82 80 72 69
84 84 90 88 94 89 90 89 89 80 87 87 91 88 73 69 67 71 72 72 67 67 66 62 59 64 71 69 65 63 59 56 52 48 53 54 60 66 73 89 82 83 78
83 82 89 89 90 93 96 88 85 90 85 87 89 88 80 79 75 75 71 69 67 70 71 67 66 66 69 68 57 56 62 59 64 66 55 53 56 59 66 80 92 88 81
89 89 92 93 85 90 98 90 92 96 95 92 88 84 81 85 86 79 82 85 81 77 69 67 67 66 72 70 75 71 68 66 68 62 62 59 59 65 68 72 89 94 91
96 89 94 90 91 84 94 93 87 91 94 92 92 82 80 81 80 82 86 89 87 90 83 83 88 80 72 72 85 86 86 83 71 65 64 59 62 71 70 70 80 86 92
96 97 96 97 92 94 97 94 91 92 94 94 92 95 94 89 87 87 88 92 95 96 98 94 93 95 97 89 88 89 93 85 81 72 68 66 64 70 78 75 75 77 82
98 97 98 97 97 94 97 96 97 96 94 98 97 98 98 91 93 93 93 94 96 98 98 98 97 98 98 94 96 86 94 90 73 82 75 70 65 63 78 80 78 73 74
95 98 98 97 98 96 97 97 97 98 98 98 98 99 98 98 96 94 96 96 97 97 98 97 98 98 99 98 96 99 98 95 88 83 76 73 69 64 66 74 74 79 74
94 95 96 97 94 95 95 96 97 98 97 98 98 98 98 97 97 97 96 97 96 98 99 99 98 98 98 98 98 99 99 97 96 94 94 90 77 66 72 72 77 78 82

GFSSE_sfc_rhum_087.txt.gz
RH
91 86 86 80 79 78 78 79 84 87 84 82 79 79 81 81 80 77 71 68 73 73 76 76 76 68 70 71 72 74 77 78 78 76 78 79 76 75 77 76 74 71 72
84 81 86 82 79 78 78 80 84 88 86 84 80 78 78 79 78 75 72 70 69 71 74 76 76 70 71 71 70 67 69 68 70 76 82 83 78 70 71 72 70 67 70
82 82 81 84 84 84 83 80 82 84 87 84 82 79 77 80 78 73 71 70 70 68 65 73 74 72 73 70 68 70 70 70 74 80 81 82 79 69 67 68 67 70 70
77 82 82 86 86 85 85 82 82 79 83 84 82 82 83 80 76 72 70 72 73 73 71 66 76 75 76 70 68 70 70 70 72 73 70 72 66 68 68 69 68 67 66
78 79 83 87 86 86 86 84 81 80 81 86 83 82 83 81 78 70 75 78 75 76 78 71 82 79 78 72 66 66 67 71 80 71 78 81 82 68 69 71 70 70 69
81 76 87 88 87 87 87 86 82 83 79 84 83 83 83 80 79 75 79 79 67 68 68 72 83 81 80 75 68 67 70 74 76 80 82 75 76 68 69 71 71 70 69
89 84 86 87 86 88 87 87 85 82 83 83 83 83 82 81 79 78 77 70 65 68 78 78 80 81 81 76 69 68 69 76 73 82 80 83 78 69 69 68 70 72 71
92 89 83 86 84 88 86 86 86 84 82 85 84 83 82 82 80 77 72 66 71 78 82 79 79 80 81 77 72 68 71 74 68 83 86 89 78 70 70 69 69 70 71
92 90 88 88 85 92 91 86 87 86 83 86 85 84 84 83 78 69 68 73 78 81 81 84 81 81 81 78 74 72 73 73 72 84 76 89 79 70 70 71 69 68 69
95 93 89 88 84 84 88 90 89 90 87 84 85 88 88 87 80 76 81 84 82 83 82 81 78 76 76 75 73 72 71 73 71 81 85 91 74 66 70 71 70 67 67
95 97 95 94 90 87 84 82 82 93 90 94 94 92 89 74 76 78 82 87 84 84 82 78 76 77 79 76 71 67 68 62 67 78 92 86 74 64 67 72 71 70 67
96 98 97 96 94 91 84 89 85 89 97 92 91 88 79 67 66 71 86 88 87 87 84 79 77 79 76 75 74 69 62 54 57 70 78 81 71 66 66 71 72 72 71
92 93 94 94 94 92 92 94 94 90 98 88 91 84 77 67 68 80 90 81 95 94 96 89 88 82 79 71 65 61 53 52 60 67 69 75 70 68 66 66 72 74 76
93 89 92 93 92 93 96 96 95 94 89 90 84 91 79 76 82 87 91 98 98 98 96 96 95 81 70 61 61 59 50 58 66 66 73 79 74 66 67 67 67 68 70
94 91 90 95 94 92 94 97 96 90 84 84 83 80 84 79 87 87 94 95 98 97 93 93 87 74 67 59 54 53 54 58 62 68 68 82 77 75 68 66 67 68 70
92 93 93 96 94 95 95 96 97 91 74 69 77 73 73 76 80 85 88 88 85 80 79 76 74 70 62 56 49 53 58 62 63 59 59 68 84 80 80 72 70 71 70
87 91 95 95 94 95 93 96 96 93 70 64 70 70 66 69 71 73 73 74 72 69 66 64 61 59 60 54 59 62 61 63 64 57 67 72 80 88 86 76 73 71 70
89 93 94 85 92 92 94 91 97 98 89 75 62 62 63 64 66 70 70 72 68 68 64 65 62 63 69 69 67 64 65 62 57 54 54 62 67 70 90 84 82 74 69
90 95 95 92 91 93 93 94 97 94 96 88 84 74 65 65 69 73 76 73 70 74 69 64 65 64 70 70 70 67 70 68 58 54 60 60 67 78 83 89 85 81 78
96 95 93 94 89 92 93 94 96 96 95 95 82 85 70 65 70 73 80 77 76 75 73 71 64 70 72 70 64 62 73 66 60 61 60 52 60 69 82 89 92 91 86
95 94 95 94 92 98 97 96 96 97 98 96 86 80 80 78 80 85 85 85 81 77 73 69 71 70 75 75 81 77 75 67 58 60 63 63 66 71 76 92 96 96 93
98 97 97 93 91 94 98 95 93 95 97 95 92 89 88 89 89 89 90 91 90 90 84 85 83 86 78 77 82 88 89 82 79 75 71 63 73 76 75 83 94 95 95
98 98 96 94 94 96 96 96 96 94 96 96 96 99 98 96 92 94 94 95 95 96 97 96 95 92 94 94 91 87 94 92 89 78 71 68 75 81 86 84 93 94 95
98 96 98 98 99 96 96 97 97 97 96 99 99 99 99 97 96 95 95 96 95 96 96 95 95 97 98 97 99 97 97 97 95 92 82 75 72 71 89 89 86 86 91
96 97 97 97 99 98 98 98 99 98 99 99 99 98 97 97 97 96 96 98 98 98 97 97 98 97 94 96 95 98 98 100 98 98 95 80 72 70 78 79 78 77 80
95 98 97 96 97 96 98 99 99 98 98 99 99 99 98 98 98 97 97 97 97 98 99 99 98 98 99 98 98 97 97 98 99 98 99 97 92 88 82 76 77 84 89

GFSSE_sfc_rhum_090.txt.gz
RH
94 94 86 81 81 83 83 85 86 85 84 80 80 80 81 82 79 74 70 77 78 74 70 74 71 72 72 70 73 75 74 77 76 76 80 81 77 74 72 72 73 69 71
89 89 87 82 79 80 84 86 88 88 86 84 79 78 78 78 76 72 69 75 75 76 77 73 70 71 71 71 74 72 67 68 74 77 83 83 78 72 72 70 72 68 70
86 85 83 84 83 84 84 83 87 87 86 85 82 76 74 79 76 72 70 72 74 77 77 73 71 71 68 66 68 69 72 74 75 78 81 86 81 71 68 69 69 70 69
82 85 83 86 85 83 82 80 83 85 84 84 84 81 80 80 77 72 70 70 73 73 77 75 74 72 69 72 73 72 72 72 74 77 80 79 69 70 69 69 68 67 66
86 83 85 88 87 86 83 82 79 79 84 84 84 83 82 80 78 70 72 75 72 72 80 78 77 75 70 72 71 69 70 74 80 77 84 87 85 69 71 72 71 70 69
92 90 90 89 88 89 88 85 81 78 78 84 84 83 83 79 78 72 78 79 78 76 75 81 79 78 73 71 69 71 73 77 82 87 88 81 83 69 70 72 71 70 70
92 91 89 85 87 90 87 88 85 84 80 83 84 82 82 79 79 79 82 80 77 70 73 83 80 78 75 71 70 70 72 80 84 86 87 87 82 68 69 71 71 71 71
96 92 87 87 86 88 84 86 87 84 82 83 86 84 83 81 78 81 81 64 70 74 76 80 81 80 76 71 70 69 74 77 79 88 91 92 78 70 69 70 71 71 71
93 90 86 86 83 86 88 85 86 86 84 83 87 85 86 82 80 77 72 72 76 75 82 82 81 81 79 74 71 71 72 76 92 91 84 93 80 70 70 70 69 69 69
95 92 90 85 84 86 83 78 80 84 90 86 88 87 89 84 82 77 79 78 81 86 86 86 81 82 82 80 76 69 66 75 89 89 90 94 76 70 71 71 69 67 68
96 95 93 93 91 87 85 84 79 77 81 93 92 93 95 86 74 75 76 84 84 87 85 83 83 84 84 81 75 68 65 70 81 92 94 86 74 66 69 71 71 68 67
98 98 98 98 96 93 85 93 88 73 82 88 96 96 92 85 73 69 80 90 86 88 85 82 80 83 80 81 77 70 62 59 60 84 94 88 71 66 69 72 73 72 70
96 98 97 98 98 96 95 97 96 88 92 88 93 96 92 88 88 80 79 82 86 93 96 91 92 89 85 75 70 68 59 55 60 75 73 85 75 67 67 71 73 74 75
94 91 95 97 97 96 97 96 94 93 87 95 93 96 98 93 96 90 84 82 92 97 98 97 98 90 80 71 69 64 56 56 64 70 73 83 79 70 68 68 70 72 73
94 92 94 96 95 93 98 97 95 93 81 84 90 92 94 97 91 81 82 84 91 95 98 98 97 88 78 70 63 62 58 55 68 65 71 86 80 78 73 69 69 69 70
93 93 92 97 96 95 98 96 94 93 83 70 88 88 92 96 91 93 85 87 90 92 90 95 93 86 75 68 62 58 56 57 65 69 68 72 85 80 78 71 68 68 70
93 91 92 96 97 98 97 96 95 94 91 80 72 84 86 90 94 83 85 88 87 86 90 88 84 79 72 63 61 57 60 64 66 65 70 67 78 87 84 76 74 72 71
95 94 88 85 96 97 96 95 94 94 94 85 72 80 80 79 85 84 83 84 82 81 77 77 75 70 68 68 65 66 68 67 65 64 62 62 66 66 86 84 83 78 72
94 93 90 95 96 93 93 93 94 87 96 96 88 79 74 73 73 85 80 74 75 75 71 68 70 67 74 78 74 72 71 72 69 59 58 62 77 77 86 90 88 84 80
96 96 95 95 92 90 95 96 98 90 95 94 97 90 70 68 67 69 71 71 68 71 70 68 68 74 73 72 66 68 72 74 70 67 58 60 77 81 84 88 95 91 84
97 98 96 97 95 93 98 97 97 95 94 95 95 90 82 72 72 72 76 72 69 69 67 66 70 72 80 78 82 81 81 73 70 68 64 61 66 78 88 91 96 96 94
95 95 97 97 95 93 97 93 94 98 96 93 92 89 80 76 76 76 83 85 85 84 75 72 78 84 79 83 84 89 89 83 79 75 74 64 70 78 85 91 95 95 96
97 97 95 94 95 96 97 97 96 98 99 99 99 96 92 87 86 86 86 90 93 90 90 92 92 89 94 95 88 88 97 93 88 85 81 74 84 87 88 95 95 96 95
96 95 95 95 97 96 97 99 96 97 96 96 98 99 99 99 98 98 98 98 97 98 97 95 96 97 97 97 99 98 94 91 91 88 88 82 78 78 89 92 97 97 96
96 97 96 95 96 97 98 99 99 98 99 98 98 99 99 100 98 99 99 98 98 99 99 99 99 99 99 96 96 99 99 100 98 97 97 94 87 85 82 83 86 96 91
93 96 95 94 96 97 97 98 99 99 100 100 100 99 100 100 100 99 98 99 99 99 99 99 99 99 98 98 98 97 98 98 99 98 98 96 89 94 91 87 89 89 87

GFSSE_sfc_rhum_093.txt.gz
RH
97 96 86 82 84 84 84 83 83 84 84 80 75 76 80 80 79 73 72 73 73 72 72 72 72 68 68 68 69 77 76 70 75 80 81 82 73 70 68 68 71 70 75
94 94 86 82 82 83 86 87 88 88 86 83 78 76 74 77 75 71 77 77 75 72 75 72 75 73 68 73 69 73 76 77 77 78 83 83 81 73 71 71 70 67 76
90 88 84 84 84 85 85 87 89 89 88 85 81 73 80 79 73 70 76 77 76 77 74 71 70 69 71 73 68 68 68 72 76 79 81 88 84 70 68 70 70 68 69
85 88 86 86 85 83 84 87 88 86 85 86 82 79 79 79 74 70 75 76 78 79 74 72 70 67 69 71 73 73 73 72 76 80 86 83 72 69 69 69 67 66 66
91 89 87 88 87 85 83 83 86 84 84 85 84 82 82 79 76 71 71 78 82 83 80 75 71 72 75 75 73 71 70 72 80 81 90 90 88 70 70 70 69 69 69
96 94 92 89 88 88 87 84 78 82 83 83 85 84 83 80 78 73 78 80 78 85 80 78 73 73 78 77 71 75 76 76 82 92 93 84 86 69 70 71 71 70 70
97 97 92 90 89 89 87 87 84 79 79 84 85 81 81 80 79 78 80 82 76 79 81 78 75 74 74 75 74 73 78 84 89 92 92 91 84 69 70 71 70 70 71
97 96 90 86 88 89 87 88 88 86 83 84 87 84 82 82 80 81 82 81 75 70 81 80 76 73 73 73 72 72 81 83 82 93 93 93 79 69 69 71 71 71 71
97 95 95 93 91 86 84 86 86 88 88 88 86 87 86 83 80 80 83 77 75 75 72 85 80 76 74 73 73 74 83 86 93 94 88 96 80 69 69 69 69 69 69
96 97 95 93 88 86 84 79 79 78 78 81 88 92 90 87 84 80 82 76 69 71 80 86 83 79 78 79 77 74 78 86 93 93 94 97 78 70 70 68 68 68 68
95 97 96 94 93 93 90 83 77 75 76 82 93 93 93 95 85 78 79 80 78 82 85 86 85 88 89 86 79 72 74 82 94 95 96 86 75 69 71 71 69 67 67
97 97 95 97 96 94 90 92 89 78 80 76 84 94 97 96 84 73 80 83 81 86 90 88 86 90 90 92 86 73 68 74 85 95 96 86 76 67 70 72 72 71 69
92 95 97 98 98 97 96 97 97 93 91 82 81 91 96 97 92 77 72 71 79 90 90 92 94 96 91 83 76 72 64 62 64 80 84 88 78 67 68 72 73 74 75
98 98 98 98 97 96 95 96 94 93 89 92 89 96 96 99 98 91 78 78 90 92 93 95 98 95 90 77 73 66 62 60 64 72 79 86 85 71 68 70 73 74 75
95 95 95 98 98 97 97 98 96 96 81 80 88 94 96 97 98 96 93 90 92 94 90 94 92 94 89 79 72 68 63 58 63 67 74 81 85 82 75 70 70 70 71
94 93 93 94 97 95 98 98 98 98 95 81 85 90 90 92 94 99 96 95 94 91 87 87 88 88 86 76 68 65 63 61 61 69 69 72 86 84 81 74 70 68 68
91 93 92 92 95 96 97 97 98 97 94 94 75 88 88 92 91 92 99 97 90 91 86 87 87 83 83 73 71 65 62 61 64 67 72 67 73 86 85 76 74 72 71
85 94 92 83 93 94 96 98 98 97 97 96 87 73 84 87 86 93 95 98 95 92 88 84 82 79 83 78 72 67 63 65 69 70 69 71 69 62 82 85 82 79 75
85 94 94 94 96 97 97 97 97 96 96 93 94 84 76 85 85 87 92 96 90 92 86 80 79 73 79 77 73 69 71 75 73 65 71 70 70 74 84 88 88 87 85
93 95 95 96 96 97 97 98 98 96 95 93 92 91 78 80 85 87 90 90 88 83 79 75 73 74 74 72 67 70 80 78 76 78 72 64 72 84 83 86 93 94 88
98 97 97 96 96 98 98 100 99 98 97 96 94 92 89 83 83 90 91 89 88 77 72 70 68 75 78 80 84 85 84 78 77 74 73 70 74 81 82 90 95 96 94
98 97 97 97 97 97 98 97 97 97 96 92 92 94 92 91 88 86 88 90 84 78 71 72 70 84 75 85 87 93 89 84 83 79 78 70 75 80 87 92 94 94 96
96 98 97 96 96 96 97 98 97 95 99 99 96 93 93 92 94 91 88 86 87 82 85 84 81 84 88 94 90 89 96 93 91 87 86 76 76 83 87 93 95 95 96
98 95 95 95 94 93 97 98 98 97 94 94 94 93 95 96 97 96 94 97 95 93 92 91 92 91 95 94 98 97 96 91 91 90 90 85 84 84 90 97 97 94 95
97 98 96 94 94 94 97 96 98 98 94 99 99 99 96 98 99 99 98 98 99 99 99 99 99 99 99 98 97 100 99 99 98 93 95 96 90 85 83 85 90 92 92
93 93 92 90 94 94 95 96 98 99 99 99 99 99 99 98 99 99 98 98 98 99 99 99 99 99 99 99 99 99 98 98 97 99 98 97 95 96 95 96 96 97 95

GFSSE_sfc_rhum_096.txt.gz
RH
95 96 84 83 82 82 83 80 82 84 84 83 78 79 79 80 79 76 72 72 73 74 77 74 71 72 72 71 74 72 72 80 79 82 83 79 68 68 69 70 74 76 75
94 96 87 85 83 85 85 84 86 86 85 82 78 78 79 77 76 71 73 72 73 74 73 70 64 71 66 66 77 78 78 78 77 79 84 84 81 72 70 69 72 64 68
95 94 87 87 87 86 86 87 89 88 86 82 75 72 73 76 73 74 74 76 72 76 74 71 68 66 73 70 70 74 74 74 77 80 83 90 84 69 69 70 69 68 69
91 94 89 87 87 86 85 86 88 87 85 84 79 74 73 76 71 74 74 77 77 77 72 70 70 71 74 70 70 70 71 75 80 82 89 85 73 69 69 68 67 67 66
95 94 90 88 87 87 86 88 86 86 84 84 81 81 81 77 73 72 76 81 83 80 77 72 71 74 74 75 74 73 72 76 82 84 92 91 88 70 69 70 69 69 69
98 95 92 88 88 88 88 87 86 84 83 84 83 83 83 79 75 72 80 84 86 83 77 72 72 76 80 78 73 71 72 78 84 93 93 86 87 68 69 70 70 69 69
98 97 94 87 88 89 87 86 84 86 84 84 83 80 80 80 77 78 80 84 87 85 79 73 74 77 77 76 76 76 76 83 93 95 94 92 86 68 69 69 69 70 70
95 98 95 88 89 90 89 89 87 84 80 84 86 84 82 82 80 80 82 83 85 84 78 74 74 76 75 76 75 78 84 85 85 94 94 93 79 68 69 71 70 70 70
96 98 97 96 92 91 91 90 87 84 82 82 87 86 86 85 82 80 83 82 78 78 82 79 75 75 75 76 75 80 88 86 94 96 90 96 80 68 69 70 70 70 70
95 98 98 97 89 88 87 82 78 76 79 81 87 89 91 91 85 84 85 84 78 72 82 86 81 76 78 80 79 81 87 89 94 95 96 97 77 69 68 68 69 69 69
93 95 97 98 95 92 90 88 80 75 75 82 92 94 96 95 92 89 86 86 80 77 75 86 85 83 85 86 81 77 86 97 96 97 98 88 78 70 69 69 68 68 68
92 94 94 95 96 96 88 89 84 78 80 73 88 93 96 96 95 84 86 87 80 79 77 82 86 90 92 97 94 78 75 86 95 96 97 85 80 69 71 72 71 70 69
91 95 95 95 97 96 95 96 93 89 89 85 74 88 95 97 97 96 87 75 75 86 89 88 94 98 97 95 88 82 69 76 82 95 89 86 81 69 69 72 73 73 73
97 92 96 97 97 97 98 98 97 94 91 91 85 89 97 99 98 96 94 81 81 97 98 98 98 97 92 89 82 72 68 65 66 68 88 88 86 74 69 71 73 74 75
96 96 97 97 97 97 97 98 98 97 85 80 87 90 96 98 97 95 96 89 92 95 93 98 94 90 90 79 77 69 65 62 62 65 78 83 87 85 76 71 72 73 74
93 95 95 97 96 97 97 97 97 97 90 84 86 93 93 96 95 94 93 95 94 94 92 88 96 89 83 78 77 73 69 64 59 66 70 75 82 86 84 77 72 72 70
82 91 94 92 95 98 96 96 97 98 94 92 86 92 95 96 95 93 94 95 94 95 93 90 91 91 92 80 76 68 69 67 65 64 70 70 72 86 86 77 77 74 72
67 90 92 84 93 97 97 97 98 98 98 97 98 90 94 96 95 95 95 94 94 98 98 97 96 89 85 85 71 71 68 67 65 66 68 72 72 65 80 82 82 80 76
62 69 93 95 95 96 96 98 98 98 99 98 98 94 94 93 92 95 92 93 93 94 96 97 96 87 80 80 76 72 71 72 70 63 76 74 76 73 76 83 86 86 84
77 86 94 96 95 97 98 99 98 98 98 96 96 94 91 87 83 93 89 85 95 92 88 95 93 87 82 71 66 66 76 74 76 81 77 71 74 79 83 85 89 87 90
96 96 96 96 96 98 100 95 92 96 89 96 93 85 89 90 84 86 87 91 90 89 85 89 90 85 81 79 84 86 87 83 83 79 81 79 74 78 84 84 84 89 94
93 98 97 97 97 98 99 98 98 98 98 96 94 94 92 94 94 86 84 92 89 87 77 80 86 86 76 80 86 93 92 86 87 80 81 76 74 81 86 85 91 94 95
98 99 90 94 98 97 97 98 98 96 97 97 95 97 95 92 95 98 96 92 93 91 92 90 85 77 79 89 89 89 96 94 91 92 90 83 75 83 89 92 94 95 95
97 98 96 93 96 94 97 91 91 94 98 93 92 95 96 93 95 96 96 98 98 95 88 89 87 83 88 89 96 94 95 89 92 92 92 90 83 83 88 95 94 95 96
95 96 94 91 91 93 95 97 98 98 97 93 92 96 94 92 91 96 96 98 98 98 98 96 93 88 88 91 92 97 98 98 97 93 91 92 91 89 89 88 93 97 97
92 92 91 88 91 91 92 94 97 98 98 97 98 99 98 99 99 99 99 99 99 99 99 99 99 97 94 97 97 99 97 96 97 99 99 96 94 92 94 96 96 97 98

GFSSE_sfc_rhum_099.txt.gz
RH
77 78 87 84 80 82 81 80 83 86 84 79 78 80 81 79 77 74 71 71 74 75 75 75 73 75 74 72 73 76 79 81 81 80 81 75 72 70 71 72 75 64 76
74 76 87 85 83 84 84 85 87 88 85 83 81 80 80 80 76 75 71 72 75 76 75 70 72 72 74 74 72 78 78 78 80 82 85 83 80 71 69 71 73 64 72
77 77 69 87 86 86 85 86 86 87 85 84 81 78 80 80 76 72 72 72 74 76 71 67 69 66 67 76 77 76 77 77 78 80 81 56 58 70 70 69 69 69 69
76 77 70 87 86 86 87 86 86 85 85 82 75 78 76 78 72 71 73 73 76 76 75 72 71 73 72 71 72 71 73 76 80 82 59 57 54 68 67 67 67 67 66
77 76 72 88 86 86 87 88 87 86 85 84 82 76 78 77 74 72 76 79 82 80 78 76 76 78 72 70 70 70 73 78 83 72 64 63 58 62 68 68 68 68 68
85 76 82 90 88 88 89 89 87 85 84 85 84 82 82 78 75 76 81 83 84 81 78 73 75 77 79 77 75 73 75 80 82 63 63 67 60 67 68 69 69 69 69
90 81 76 87 87 88 88 89 88 87 86 85 83 80 78 79 76 78 82 86 85 82 76 72 73 75 78 78 74 73 77 83 62 65 65 65 61 67 68 68 68 69 69
91 89 78 84 87 89 88 88 87 86 86 86 86 83 81 80 80 80 82 85 85 81 75 73 75 75 78 76 77 79 84 84 68 65 67 65 72 67 68 69 69 69 70
89 92 86 78 77 91 91 90 88 86 82 80 85 87 86 85 84 80 81 84 84 84 80 77 79 79 77 78 78 86 89 86 60 63 65 63 79 67 68 70 70 70 70
88 91 95 90 83 82 81 87 84 82 79 80 84 90 91 91 88 84 85 83 84 86 83 81 81 80 80 82 82 88 88 88 60 67 64 62 78 67 67 69 69 68 69
83 89 92 94 86 84 80 76 79 78 78 87 86 92 90 75 73 71 77 85 83 82 85 84 82 82 84 87 84 83 90 61 62 61 62 83 80 68 68 68 69 68 68
70 83 90 92 89 86 85 80 77 67 70 69 82 84 81 79 75 73 78 90 87 80 78 85 85 85 85 65 63 74 63 62 62 63 61 85 83 69 69 70 70 69 69
63 82 87 92 91 85 85 84 87 79 80 79 75 87 90 91 85 82 71 72 66 77 60 62 78 69 64 66 66 56 52 58 61 63 66 85 80 72 69 72 72 72 71
61 73 83 90 93 88 87 87 85 70 79 82 84 80 93 88 94 83 76 74 69 69 72 63 63 68 75 73 65 56 52 49 54 59 63 89 83 77 69 71 73 74 74
59 70 84 88 93 88 87 88 84 81 72 71 79 79 92 96 96 92 84 73 67 81 79 84 68 68 69 71 64 58 50 46 46 48 50 84 89 84 77 72 73 74 74
46 62 82 89 88 89 88 87 87 86 77 73 69 70 73 82 95 96 93 89 81 72 76 86 92 81 81 73 68 53 51 44 42 44 44 47 82 85 84 81 74 74 73
45 51 67 82 88 90 88 88 88 86 80 71 65 66 67 69 80 85 88 93 85 83 76 87 93 86 84 72 67 59 50 44 42 41 41 47 52 85 86 75 77 76 74
49 48 52 66 82 86 87 88 87 86 85 78 70 69 70 68 71 78 84 88 86 90 87 93 94 96 89 84 70 65 52 48 45 43 44 46 51 48 71 83 80 80 79
46 48 55 68 76 84 85 86 85 83 86 85 83 75 74 73 70 74 82 81 80 92 93 90 92 90 94 92 81 68 59 50 46 44 46 48 50 56 54 70 85 84 85
54 55 60 68 76 83 87 88 90 89 88 88 86 82 74 74 75 77 79 79 78 90 93 91 89 90 87 88 81 76 72 61 51 50 50 47 50 60 59 60 62 65 85
61 69 81 84 85 88 94 91 88 88 85 87 86 81 76 77 79 83 83 80 82 85 84 86 82 78 85 90 92 88 71 63 60 57 53 55 56 61 62 63 62 63 64
78 87 91 88 89 89 90 90 86 88 88 86 85 83 81 80 81 84 84 85 84 90 83 82 85 85 81 84 84 78 76 59 65 61 63 62 62 64 67 70 68 66 67
94 84 83 87 88 86 90 92 92 93 93 95 92 90 86 82 85 86 86 87 89 90 90 86 83 80 89 89 83 88 90 79 73 74 72 65 67 66 64 68 69 68 66
96 94 91 88 90 86 88 94 90 93 93 84 89 86 84 78 85 88 88 89 96 95 92 90 86 86 85 90 94 84 73 84 87 82 77 76 70 66 69 78 76 75 72
92 93 89 85 86 88 90 93 96 93 94 92 90 93 91 88 86 88 88 88 94 97 99 99 99 96 94 90 88 84 86 84 88 90 86 84 79 77 71 74 80 79 76
91 91 89 85 86 87 89 92 96 97 96 96 95 96 96 94 95 87 91 93 94 94 97 97 95 95 95 95 94 84 79 79 82 91 94 91 90 85 86 82 82 82 82

GFSSE_sfc_rhum_102.txt.gz
RH
60 58 84 81 80 80 80 81 83 84 83 83 79 80 80 78 78 72 70 72 72 70 68 70 70 74 75 76 74 78 79 79 78 75 81 78 73 72 71 71 75 60 75
69 52 86 84 81 81 83 84 88 87 85 83 81 80 80 79 75 72 70 71 75 76 74 74 75 74 73 72 77 78 80 81 80 81 83 82 80 72 71 73 76 65 72
58 51 58 85 84 86 86 87 88 88 86 84 83 80 80 80 77 74 71 72 77 78 75 74 74 72 74 73 78 78 78 78 78 77 76 42 51 70 69 70 71 70 69
58 53 54 85 85 86 87 87 88 87 86 84 81 82 79 80 76 73 71 72 77 76 76 73 73 74 75 76 75 76 77 78 80 80 43 39 42 67 66 66 66 66 67
63 56 55 84 86 84 86 86 86 86 85 84 81 78 78 77 76 72 74 77 80 80 80 76 77 76 74 73 71 71 73 77 80 64 44 46 45 61 67 67 68 66 63
77 61 70 84 84 85 86 86 85 85 85 85 84 79 79 76 74 77 78 82 84 84 80 75 77 74 75 72 70 70 74 80 82 43 44 54 45 68 68 68 69 68 68
76 72 60 84 84 85 85 87 87 86 84 84 83 79 77 76 76 79 81 83 85 82 77 74 76 75 76 76 74 74 77 83 44 44 46 49 52 66 67 68 68 68 68
80 80 67 77 84 84 85 86 86 86 85 84 84 82 79 79 79 80 82 85 83 79 75 74 75 76 78 77 74 76 81 84 53 45 48 48 70 66 66 68 68 68 68
72 80 79 59 68 89 89 88 87 84 84 84 84 86 86 85 84 81 83 85 86 82 79 79 79 78 79 77 79 84 88 82 41 41 44 46 78 66 67 69 69 68 68
64 75 84 83 61 59 63 91 90 89 84 82 84 88 92 92 88 84 84 84 85 87 83 81 82 81 80 83 82 90 88 86 42 46 44 45 74 66 68 69 69 68 68
40 60 76 86 77 66 63 69 86 87 87 82 85 90 89 60 56 60 70 83 86 85 86 83 84 84 86 87 86 88 90 49 43 41 41 80 80 66 67 69 69 68 68
35 38 62 79 83 77 72 68 64 62 65 54 61 60 60 54 49 52 66 87 88 86 86 86 85 86 86 49 56 76 56 45 43 44 42 80 81 69 68 69 70 69 69
32 33 38 65 80 83 75 70 71 81 81 63 64 66 83 63 58 56 51 58 58 78 57 66 66 61 50 41 43 44 43 45 42 44 51 82 80 77 68 71 71 71 71
34 35 37 47 73 82 76 69 61 60 71 75 65 64 77 95 78 71 50 56 55 51 56 53 50 53 58 43 40 44 41 41 42 42 47 85 83 77 73 72 73 73 73
33 36 37 43 66 79 84 75 63 56 50 49 55 57 65 82 90 92 76 51 56 65 52 63 50 45 50 53 44 41 42 40 38 38 41 88 89 83 79 72 72 73 74
27 31 35 40 56 71 84 82 69 61 54 53 52 55 52 54 60 70 89 89 70 50 51 52 54 49 58 50 52 46 40 38 37 37 37 40 85 88 82 80 73 73 74
30 31 34 33 41 67 74 74 75 71 62 55 53 52 50 47 50 53 59 63 69 71 56 59 62 59 69 72 65 53 50 41 34 33 36 37 41 84 82 77 75 76 73
33 32 31 27 34 51 71 71 73 71 69 66 59 52 50 46 46 51 54 57 58 68 71 77 74 79 83 91 88 78 54 43 34 31 30 34 35 35 66 81 82 79 78
33 31 32 33 35 41 53 57 64 67 66 61 57 52 50 48 48 50 53 54 56 75 84 86 86 81 88 88 89 77 67 55 39 33 31 32 36 39 40 63 85 82 82
48 37 38 33 35 39 47 59 62 64 64 61 59 55 52 49 52 55 54 56 54 62 72 87 90 89 86 83 88 86 78 62 55 48 39 36 35 38 40 46 49 57 84
55 53 42 36 35 48 66 78 71 67 64 63 62 62 60 57 55 58 60 61 65 62 58 63 66 84 89 84 88 84 82 65 56 58 53 48 48 41 42 45 49 49 53
68 61 59 51 59 64 76 74 66 65 65 64 66 66 64 63 64 62 64 66 64 71 63 65 74 85 86 83 84 76 78 61 64 51 50 56 51 49 47 48 50 54 61
86 88 86 88 87 86 82 83 79 81 84 86 80 75 71 71 71 71 72 74 74 74 76 70 77 84 90 88 81 79 88 69 48 42 61 52 53 53 50 50 54 59 58
92 93 90 88 86 81 81 83 82 79 76 70 75 73 68 66 66 68 74 75 79 82 82 83 86 87 87 92 90 80 78 68 69 76 80 59 56 56 51 55 55 58 62
89 90 84 79 81 84 84 88 93 83 80 86 85 85 79 83 83 80 74 75 80 85 86 92 97 96 94 92 91 88 81 88 90 90 80 84 78 65 61 64 70 77 78
85 80 77 71 73 74 82 87 93 96 96 94 94 93 91 90 90 89 90 84 85 85 91 93 93 92 96 97 97 97 90 86 90 91 93 87 86 74 88 89 89 88 88

GFSSE_sfc_rhum_105.txt.gz
RH
58 67 83 81 80 80 78 80 82 84 84 81 77 78 78 78 78 69 70 69 70 68 66 69 68 75 72 74 73 78 78 78 77 78 80 80 75 72 72 73 76 64 77
57 61 85 83 80 79 79 82 86 85 86 84 81 80 79 79 74 69 71 71 70 68 70 70 75 75 75 76 74 78 80 79 77 80 82 81 80 72 73 77 77 68 76
56 57 62 85 84 85 85 85 86 86 86 84 83 80 79 78 75 72 69 71 75 76 76 75 75 75 74 77 76 76 79 79 77 78 78 44 57 70 70 72 72 71 71
55 54 55 85 85 85 86 86 87 86 84 83 83 81 80 78 78 75 71 70 76 77 78 78 76 76 76 72 77 77 78 77 74 74 48 37 41 67 66 66 66 66 67
58 64 53 82 82 85 85 86 85 85 85 84 82 83 80 78 77 74 72 73 79 79 79 80 77 78 78 74 74 75 76 76 77 69 40 43 46 63 66 66 66 63 64
62 66 74 82 82 84 85 85 83 83 82 82 81 80 78 76 73 75 79 81 83 82 79 79 78 76 76 74 70 70 72 75 80 43 42 50 48 68 67 68 69 68 67
63 64 77 82 82 84 83 83 85 84 83 83 81 77 75 74 74 77 80 82 85 82 79 76 78 75 73 73 70 71 75 81 60 41 43 47 59 66 66 68 67 66 66
65 68 69 78 84 84 84 84 84 84 82 82 82 80 78 78 78 79 80 82 83 80 78 76 77 77 76 77 75 76 81 85 52 41 44 47 73 65 65 66 67 67 67
58 65 67 70 67 87 85 86 86 85 85 85 85 83 82 85 84 80 82 82 83 82 81 80 80 78 78 78 78 82 86 82 57 39 41 46 76 64 65 67 68 67 67
34 55 66 70 75 62 59 90 90 90 90 87 88 86 87 91 88 87 87 85 85 86 84 82 82 82 82 82 83 86 88 83 55 41 44 55 75 66 66 68 69 68 68
30 32 41 68 70 75 80 72 89 91 88 86 83 89 87 62 60 65 72 82 85 87 86 84 84 84 86 86 87 90 90 58 47 42 42 80 74 67 67 69 69 69 68
31 29 28 46 74 74 67 72 63 54 58 56 58 59 60 52 48 49 65 84 87 87 88 85 85 87 88 56 67 84 67 52 43 42 41 81 75 69 66 69 70 70 69
27 30 29 31 52 75 78 71 66 58 58 56 56 58 59 55 60 52 51 60 64 84 65 74 72 65 58 46 43 54 51 48 42 42 51 82 75 76 68 70 71 72 71
31 30 31 29 35 65 70 80 71 59 57 60 72 74 79 74 78 78 48 51 64 57 60 65 60 59 58 48 37 39 42 42 42 42 49 84 80 74 75 72 73 73 72
27 33 36 34 32 45 76 77 79 67 53 50 51 55 67 78 85 80 87 85 74 68 64 75 61 55 58 54 43 36 39 39 38 39 41 86 86 81 74 75 74 74 73
23 25 32 33 34 39 70 76 84 73 65 53 47 49 46 51 56 61 64 64 62 70 63 57 58 60 52 60 52 42 38 40 37 37 38 56 88 86 82 75 77 72 72
25 26 29 33 36 38 50 77 80 85 76 65 54 48 49 46 49 50 56 59 55 53 55 70 60 60 65 72 56 50 49 42 39 36 37 39 60 90 87 78 74 76 75
29 28 27 26 31 33 39 65 78 82 82 68 59 53 48 48 48 48 50 54 53 55 53 57 66 73 77 78 80 66 55 55 51 41 35 33 39 38 75 78 81 78 78
42 38 33 31 30 32 34 45 73 75 79 68 60 54 50 47 46 45 46 48 48 55 60 70 75 75 82 83 79 74 73 68 53 40 36 34 35 40 41 70 81 82 83
47 47 47 37 32 28 36 40 48 57 70 60 54 52 49 46 45 47 48 49 48 53 57 70 73 76 81 80 88 85 83 77 70 53 42 36 36 38 42 47 62 68 86
58 59 51 45 37 31 36 40 50 57 58 58 58 56 53 52 51 53 53 52 52 54 55 56 64 73 77 83 94 92 90 81 75 73 65 50 44 42 44 46 50 52 57
75 77 75 59 45 34 38 55 60 65 68 65 59 58 58 58 60 58 61 62 60 61 59 63 66 74 73 74 84 84 91 88 79 67 59 54 50 47 48 50 48 51 57
86 87 87 86 84 83 85 82 84 80 85 84 77 73 67 62 66 74 72 72 67 68 71 71 73 74 82 80 80 81 95 87 69 64 64 56 50 52 51 50 50 50 53
90 87 86 88 90 88 89 88 90 84 79 66 70 71 70 76 77 83 88 83 76 78 80 78 76 80 82 88 85 88 84 88 86 79 59 56 51 49 49 56 52 54 59
87 90 90 86 85 88 88 90 95 95 94 94 86 83 80 80 80 83 88 90 91 82 80 82 84 86 87 89 88 89 91 88 91 94 83 73 65 49 52 56 65 66 62
86 83 78 75 78 80 85 88 93 94 92 93 91 90 87 85 88 85 86 91 92 93 86 84 86 87 90 92 94 94 92 92 93 92 98 95 94 91 92 90 86 88 93

GFSSE_sfc_rhum_108.txt.gz
RH
68 71 84 81 82 81 80 79 83 86 86 82 75 76 80 79 76 69 70 71 71 68 67 68 70 72 72 71 77 79 80 78 79 81 83 83 77 75 78 77 79 78 80
65 69 85 84 82 82 82 84 85 86 88 84 80 80 76 78 75 68 71 69 70 68 67 71 74 74 75 74 76 79 80 78 77 81 84 84 83 75 75 76 80 76 74
59 65 67 86 85 85 86 86 86 86 86 85 84 82 80 78 75 70 69 71 72 70 71 72 76 76 78 73 80 78 79 77 74 78 80 79 79 71 70 74 74 72 72
60 69 69 84 84 85 87 86 85 85 85 83 84 82 81 80 76 74 71 69 73 75 77 78 78 78 76 72 74 76 77 75 75 76 73 58 58 67 67 67 68 67 68
65 69 75 83 85 84 83 87 87 85 84 83 81 81 81 79 77 77 73 76 80 82 79 81 83 81 80 74 77 77 77 74 77 72 70 64 73 65 66 65 64 68 68
68 72 81 82 82 84 85 84 86 85 84 83 82 83 82 80 76 75 79 81 83 83 80 81 80 81 81 78 75 75 74 73 78 75 64 65 74 68 67 71 69 68 68
65 71 77 82 83 85 84 84 84 83 85 84 82 81 80 79 77 77 81 83 86 84 82 80 78 77 77 75 70 71 74 81 80 78 60 66 76 68 67 68 68 67 67
71 69 70 80 84 85 84 84 84 83 84 84 84 83 81 81 80 80 82 82 85 82 82 79 79 77 75 74 74 76 82 85 66 67 60 81 77 67 66 68 68 68 68
49 64 70 76 77 86 85 86 86 86 86 86 87 86 84 85 84 82 84 84 85 85 84 82 83 80 78 78 82 84 86 84 84 74 51 80 79 67 67 68 69 68 68
40 48 46 73 79 84 82 87 89 89 87 86 86 88 89 89 86 87 88 87 86 87 86 85 84 84 83 84 85 87 88 85 90 73 59 78 78 65 68 69 70 69 69
41 42 42 54 78 82 84 83 92 91 91 91 90 92 92 90 82 84 86 86 87 88 88 86 85 85 87 88 88 88 91 92 82 69 62 82 74 66 68 70 71 70 70
43 42 40 44 53 84 74 82 88 81 86 84 80 78 84 76 69 67 79 86 89 87 90 87 86 87 90 90 97 93 99 90 75 64 69 83 75 66 68 70 71 71 70
39 44 41 42 46 68 88 87 86 88 85 79 70 74 77 74 83 80 78 80 92 92 89 90 90 88 93 85 76 90 89 84 68 64 72 84 76 66 64 70 72 72 72
42 43 43 42 46 50 87 94 84 88 82 81 77 79 91 96 92 86 86 86 87 88 86 83 83 84 80 72 66 74 74 67 62 63 79 84 80 70 70 70 72 73 73
38 42 46 46 48 47 65 89 89 82 90 75 74 74 83 90 96 92 90 92 92 86 92 93 83 75 79 71 63 53 58 58 60 60 75 88 85 78 73 73 75 74 73
35 39 41 44 48 49 53 88 92 93 79 83 68 68 67 81 89 89 81 84 81 80 85 93 91 85 78 84 79 74 46 55 56 54 59 80 88 84 81 73 74 75 74
42 40 41 43 46 48 50 66 92 86 84 85 73 63 64 65 72 70 81 80 76 72 68 81 89 92 90 78 82 76 80 54 54 51 54 61 82 89 86 78 74 75 77
56 55 51 41 43 47 49 56 87 80 86 86 80 70 60 58 64 69 72 76 76 75 76 80 84 89 93 94 95 95 90 83 64 48 45 46 63 64 84 84 82 79 77
63 60 62 60 58 47 45 50 64 90 91 93 88 90 70 60 57 67 69 70 66 75 79 82 89 93 94 96 95 94 96 96 84 57 50 44 41 51 61 77 86 86 84
74 74 74 72 69 54 51 52 58 87 94 93 91 90 82 65 67 68 67 67 66 73 78 86 92 94 95 96 92 92 91 93 95 88 71 57 42 47 48 57 68 73 85
73 77 76 83 81 77 58 56 63 74 76 87 90 85 76 71 70 75 76 74 72 75 75 74 80 88 88 92 98 92 95 95 90 80 74 60 51 44 42 45 58 68 70
81 82 79 79 86 87 93 71 60 78 84 86 89 86 73 73 76 77 84 87 82 83 78 78 79 81 86 93 92 89 93 85 92 86 79 68 58 50 52 52 52 54 66
85 90 86 86 87 88 90 93 88 89 96 97 96 95 88 82 86 89 89 91 92 89 84 82 83 85 87 84 92 89 97 90 89 88 87 77 68 63 53 50 55 56 54
88 89 86 86 88 86 90 94 96 98 97 97 97 94 93 85 86 88 90 89 91 92 92 90 84 89 90 89 90 89 84 88 92 89 78 79 72 67 57 54 51 49 53
87 89 86 83 84 88 91 93 96 96 96 94 94 92 88 87 85 84 86 89 90 92 93 94 95 89 90 92 90 88 91 92 91 94 91 89 73 67 60 57 56 58 62
87 84 82 79 78 76 86 91 94 94 94 94 92 92 90 87 87 85 86 90 89 90 92 93 92 94 91 91 92 91 92 91 87 96 98 91 93 92 84 75 74 75 81

GFSSE_sfc_rhum_111.txt.gz
RH
76 73 81 83 82 82 80 80 85 86 86 81 75 77 80 78 72 70 72 72 71 68 70 70 72 71 70 76 75 74 78 80 81 83 84 83 78 77 78 81 81 78 75
66 71 80 84 82 82 83 85 85 88 88 85 77 76 75 78 71 70 70 70 70 68 69 70 77 75 73 72 78 79 79 77 78 83 86 85 83 78 76 78 80 75 72
64 70 71 86 86 86 86 84 84 87 86 85 82 81 77 76 74 69 72 71 70 69 70 74 75 78 76 73 78 76 78 75 74 81 83 86 81 70 72 75 75 74 72
63 72 76 81 83 86 87 84 83 84 85 84 82 81 80 78 75 73 70 70 72 76 77 78 80 80 75 74 71 77 78 74 74 77 78 70 64 67 66 68 67 67 68
68 74 77 82 80 82 86 87 86 84 83 83 83 84 82 78 77 77 75 75 79 81 80 83 83 82 77 75 77 77 78 74 77 73 75 74 81 67 66 64 69 68 68
67 72 84 84 80 80 81 83 85 85 84 83 83 83 83 78 74 77 80 81 82 84 81 82 82 81 81 78 78 78 76 74 78 79 75 77 77 67 70 71 70 69 68
77 71 73 85 81 82 83 83 83 83 82 84 84 82 80 77 77 79 83 84 85 85 82 79 81 81 80 80 75 74 74 80 78 83 73 84 80 68 69 69 68 67 67
58 70 70 78 83 83 84 85 83 82 82 84 84 83 83 80 80 81 83 84 86 83 81 80 80 79 78 76 73 75 82 83 72 77 70 84 79 68 69 69 70 69 68
50 48 45 71 76 84 84 84 86 85 86 86 86 84 85 85 85 82 84 85 85 86 86 85 84 80 78 75 80 85 86 85 88 78 67 84 81 68 68 70 70 69 69
43 50 44 53 80 83 89 86 88 90 88 85 86 88 90 89 88 88 88 88 87 88 88 87 87 86 83 83 86 88 88 87 90 82 76 84 80 67 68 70 70 70 70
44 45 41 50 46 80 86 84 90 91 91 92 93 92 93 93 89 88 91 91 90 89 90 88 87 88 89 89 90 90 92 98 94 86 76 82 77 66 69 70 71 70 70
42 38 42 43 50 53 78 88 90 86 93 93 92 89 88 89 88 77 87 92 91 89 90 90 88 89 92 97 98 94 99 98 96 86 75 83 76 68 69 71 72 72 71
37 44 44 42 43 51 68 95 97 97 92 88 86 83 88 82 90 85 87 85 93 91 90 91 92 91 97 97 97 98 98 98 97 83 72 84 79 68 68 72 73 73 73
41 43 45 47 46 50 57 90 97 96 90 86 79 83 91 97 96 96 94 90 93 96 97 98 98 97 97 96 93 92 96 93 87 78 79 87 83 73 67 69 73 74 74
43 46 46 48 51 49 52 69 96 96 90 84 80 79 84 95 97 96 95 93 90 92 96 98 93 94 95 88 82 79 84 85 78 70 77 90 86 80 75 71 71 75 74
52 57 50 51 49 51 55 55 87 97 96 80 90 82 75 85 93 94 95 91 86 86 91 97 97 92 92 90 86 80 69 71 70 64 66 79 89 85 81 76 74 75 76
71 69 70 66 64 54 54 56 68 96 90 87 85 92 73 76 84 85 91 88 86 82 82 90 95 97 98 96 95 88 89 87 57 56 55 74 80 89 85 80 78 78 79
78 79 75 70 75 77 68 58 58 87 95 90 82 87 89 66 81 84 83 86 82 82 81 84 90 94 96 96 97 96 96 96 92 84 68 60 71 70 85 84 80 79 80
79 82 79 77 83 81 80 62 58 63 95 95 90 89 83 80 72 73 76 82 74 80 84 85 90 94 95 97 97 97 97 97 93 85 79 67 60 68 72 82 87 85 82
78 80 82 79 80 83 85 77 64 68 87 93 94 87 84 87 88 84 82 91 82 79 82 88 92 95 95 95 92 91 95 95 96 93 84 70 65 56 65 65 75 79 88
78 76 73 73 78 81 83 92 87 69 73 91 96 85 78 89 91 95 94 90 86 85 84 82 86 93 96 96 99 94 96 95 96 92 90 79 71 60 50 48 58 60 64
78 80 84 81 85 82 84 88 97 87 88 87 93 97 94 93 92 94 96 97 98 98 96 94 92 93 94 96 93 97 89 74 94 91 88 84 80 65 56 46 45 55 59
85 88 85 85 89 86 88 90 92 95 93 95 97 96 92 88 92 91 91 91 94 96 89 87 92 96 97 89 96 92 95 90 92 96 94 88 82 78 66 60 50 45 48
88 88 85 83 83 78 85 92 94 95 97 97 96 94 94 89 91 89 91 88 89 92 94 93 88 95 96 93 88 91 92 88 90 84 96 91 87 82 73 67 58 51 53
87 89 86 80 79 79 84 88 94 94 95 93 95 94 95 92 87 87 88 88 89 90 93 92 95 93 93 96 95 87 85 92 93 95 91 80 86 80 77 71 67 59 52
87 85 80 78 77 72 76 83 90 93 93 94 92 92 88 85 84 80 81 88 88 91 94 96 94 94 92 91 93 93 93 88 79 90 92 87 86 80 83 79 75 70 67

GFSSE_sfc_rhum_114.txt.gz
RH
76 77 78 79 81 82 80 80 82 83 84 80 79 79 80 76 72 73 74 72 70 69 70 71 68 68 72 74 72 74 79 81 82 83 84 84 80 79 79 80 82 79 74
69 75 78 81 79 82 82 83 86 87 86 83 74 76 76 76 70 71 71 71 70 69 70 73 73 73 74 77 77 78 75 77 81 83 86 86 85 79 78 82 82 74 72
69 71 74 82 81 82 82 84 86 87 86 85 80 78 75 77 71 72 71 72 72 70 70 74 75 76 73 78 79 78 75 73 77 82 82 88 84 74 75 77 76 74 70
70 73 79 82 80 83 84 83 84 86 85 84 82 79 78 77 74 72 72 72 74 77 77 76 79 78 74 73 74 79 76 72 76 83 84 74 69 66 67 70 69 69 69
70 74 80 84 81 82 84 84 83 84 84 85 84 84 81 78 78 76 75 74 77 80 80 81 83 81 78 77 72 77 77 74 74 74 80 79 85 67 64 65 66 69 70
79 74 84 86 81 81 83 83 84 84 84 84 84 85 83 79 77 77 80 83 82 84 82 82 83 81 82 80 79 79 78 75 76 81 80 80 83 67 68 70 70 69 68
63 65 74 83 82 83 81 81 82 82 83 84 84 81 79 77 77 78 83 84 84 85 82 80 83 80 79 79 78 77 77 80 79 87 84 91 84 70 70 71 69 68 67
54 50 47 79 83 84 83 83 83 82 82 83 84 83 82 80 80 81 84 86 86 83 82 81 83 82 81 81 77 77 81 82 76 81 77 91 82 69 68 69 70 69 68
51 50 45 55 69 82 87 85 85 84 83 84 83 81 83 85 85 82 85 86 85 85 87 86 86 83 81 79 79 82 85 85 90 82 72 90 85 69 69 71 70 70 69
44 49 44 47 54 62 83 86 88 89 88 86 85 87 90 91 89 88 88 89 88 88 89 89 88 86 84 83 83 88 89 89 92 85 80 86 83 70 69 71 70 70 70
43 38 42 44 44 54 74 81 88 90 92 92 93 93 93 95 92 89 92 93 91 90 90 90 89 90 89 89 89 92 92 98 96 94 84 76 80 71 69 72 71 71 70
39 38 44 46 49 46 44 80 92 87 90 93 95 95 96 95 95 86 90 93 93 92 91 91 90 90 94 98 98 95 99 98 98 97 88 76 75 72 69 73 72 72 72
41 46 47 48 50 50 55 71 94 98 95 90 88 94 93 88 95 91 92 92 97 94 94 92 95 96 97 98 99 99 98 98 99 98 85 80 73 72 68 73 74 74 73
50 54 58 55 53 53 58 60 77 94 98 88 85 85 90 97 97 98 98 95 98 98 97 98 99 98 98 98 97 98 97 98 98 95 94 85 80 73 71 70 74 75 74
76 78 78 76 72 60 58 63 68 82 95 94 87 84 83 86 97 97 98 98 95 95 96 97 98 98 98 97 96 97 94 97 96 88 83 87 83 83 79 75 73 74 74
79 82 81 77 78 79 79 70 66 78 90 97 95 85 80 88 92 97 97 98 97 95 96 98 98 99 98 97 94 90 88 83 87 84 78 77 85 85 83 78 76 74 74
83 82 81 73 78 86 86 85 73 76 74 96 95 92 83 82 88 82 91 95 93 92 86 94 98 99 99 99 98 95 94 90 81 80 80 66 76 90 87 81 77 77 78
82 84 82 75 83 86 86 87 80 66 76 94 96 92 89 80 88 89 91 88 83 87 87 90 94 97 98 99 98 98 97 98 96 92 79 77 73 74 85 86 81 79 79
86 84 84 79 80 84 84 90 89 78 83 86 96 97 88 84 84 94 88 91 94 96 93 89 92 94 96 96 97 97 98 98 96 92 95 82 68 67 68 78 87 84 84
86 83 71 72 71 84 82 80 88 89 89 89 93 95 88 85 89 94 93 95 91 96 95 94 94 95 96 96 94 95 97 97 98 98 94 87 82 68 65 73 72 80 89
86 83 74 74 80 78 78 81 84 88 92 88 91 96 93 92 94 98 96 94 95 97 97 93 94 92 95 95 98 96 97 95 94 94 95 92 86 71 64 63 66 68 69
86 81 78 79 85 80 83 84 85 85 98 98 98 92 90 88 90 90 94 96 94 97 92 92 95 97 95 96 97 97 91 87 96 95 95 92 92 81 76 63 55 56 58
92 88 87 87 87 83 84 89 89 85 97 92 92 94 90 87 90 92 94 94 94 96 95 92 93 94 95 83 85 94 92 93 95 93 97 94 90 88 83 75 67 58 54
94 88 87 83 80 73 83 91 92 96 93 95 96 94 93 87 88 89 90 93 95 95 96 94 92 93 93 96 93 88 92 91 91 84 67 82 87 91 87 83 75 64 56
90 90 94 86 75 74 78 86 92 92 94 91 91 91 91 89 84 83 85 86 90 93 94 95 96 96 95 91 94 94 94 90 86 92 91 75 66 74 88 83 79 74 65
86 84 82 76 70 69 72 73 79 84 84 86 86 85 82 76 76 74 80 84 86 84 86 90 91 93 95 96 94 94 93 95 95 96 96 92 87 76 86 86 83 78 75

GFSSE_sfc_rhum_117.txt.gz
RH
75 81 79 79 76 80 80 79 81 82 83 81 79 80 79 74 73 74 72 70 70 71 70 69 68 68 70 72 72 75 76 78 82 84 86 85 80 78 78 80 81 79 73
72 73 84 80 76 76 78 79 83 84 86 82 78 79 76 72 70 71 72 71 70 71 72 72 70 70 74 73 74 77 78 81 82 83 88 88 86 79 79 80 78 75 72
79 73 78 82 80 81 82 82 84 85 84 82 79 78 75 74 71 72 70 72 71 70 71 75 76 72 74 78 80 75 72 76 81 81 82 91 89 77 76 78 77 70 70
74 76 82 82 80 81 82 83 84 85 84 83 81 79 78 78 73 72 72 72 75 76 77 76 78 77 77 79 79 78 73 72 80 84 85 79 74 68 71 72 72 71 70
77 80 84 80 80 79 82 83 82 81 84 84 84 84 80 78 78 76 74 74 77 80 80 80 83 81 79 77 73 80 77 74 78 77 82 85 88 66 64 64 68 67 71
63 60 81 86 80 80 83 82 81 81 81 83 84 84 82 79 78 78 80 84 83 84 81 82 84 83 82 80 74 78 78 76 76 84 85 81 87 68 65 72 72 69 68
52 42 52 73 81 84 80 80 81 81 82 84 83 80 81 79 78 79 83 86 85 83 82 81 83 81 80 79 79 78 79 83 81 88 89 92 88 70 67 70 68 68 68
55 49 45 52 56 74 84 86 83 81 82 83 84 82 81 81 81 81 84 85 86 82 82 82 83 82 82 80 80 80 84 84 80 86 83 94 85 72 68 70 69 69 67
50 45 41 47 48 58 73 84 88 86 85 84 83 83 84 85 85 81 85 86 85 85 86 88 87 87 84 83 84 85 86 84 90 87 74 91 85 74 69 70 70 70 69
41 42 41 44 50 57 58 74 83 90 91 88 88 89 90 91 89 88 89 89 88 88 89 89 89 88 88 87 86 87 87 88 94 89 82 90 82 76 69 71 71 70 70
41 42 46 50 47 54 56 66 73 84 89 93 93 94 94 96 95 92 92 93 92 89 90 90 90 90 90 91 88 89 91 98 97 97 88 78 78 78 71 72 73 71 71
46 52 59 59 58 54 42 62 78 75 84 84 88 92 97 96 97 90 94 93 92 92 92 92 91 90 93 98 98 94 99 98 98 98 97 82 73 74 74 74 75 73 72
58 77 76 74 70 66 62 68 68 87 91 91 85 88 91 91 97 96 98 94 97 98 96 95 97 97 98 99 99 99 99 98 99 99 93 87 79 70 73 75 76 75 73
86 86 83 83 84 82 76 77 70 76 85 92 89 86 92 96 94 98 99 98 98 98 97 98 98 97 98 98 98 98 98 99 99 99 98 93 85 73 70 72 78 77 75
88 87 86 84 86 84 88 87 81 77 84 82 92 94 88 89 91 93 93 98 98 99 99 98 98 98 98 98 98 98 97 97 97 96 97 94 90 83 73 72 75 75 77
81 85 84 82 84 88 88 91 91 87 78 85 94 95 93 93 87 88 90 96 97 96 98 98 99 99 98 98 98 98 95 93 94 95 93 89 89 87 82 74 75 76 74
84 85 84 78 80 86 87 87 92 92 77 80 86 90 91 93 95 86 90 94 90 96 95 97 99 99 99 99 99 98 96 95 94 92 92 91 88 88 87 78 79 79 77
86 89 85 75 83 84 86 88 88 90 88 84 85 92 89 89 93 95 92 94 93 97 97 97 98 99 99 100 99 99 99 99 97 93 86 87 84 76 80 88 84 79 78
89 88 84 78 77 85 85 84 86 90 95 92 91 94 93 91 92 96 96 93 96 96 98 97 96 96 98 98 98 98 98 99 98 96 98 95 82 72 69 75 90 88 82
90 89 80 71 81 79 72 72 74 81 93 95 97 94 89 86 89 92 94 95 96 96 97 98 98 97 97 95 95 96 97 97 98 98 96 93 95 87 73 70 69 82 89
89 90 88 86 89 85 81 86 83 85 82 90 92 87 89 93 92 93 94 94 95 98 97 96 96 98 97 97 98 97 96 96 96 95 96 97 96 93 88 79 71 71 71
91 94 91 86 87 86 84 86 87 89 91 93 92 88 90 91 92 89 93 94 93 95 93 95 94 96 96 96 97 96 96 88 95 95 96 94 95 92 91 82 74 70 69
94 96 92 90 88 85 89 92 93 86 88 91 91 92 89 86 87 90 91 93 94 95 96 95 96 95 97 92 92 97 95 97 88 85 95 98 97 96 94 89 83 74 65
94 94 92 86 84 71 84 95 94 94 94 92 92 89 86 80 82 82 84 86 92 95 96 94 93 95 95 97 96 91 94 93 90 90 82 79 75 79 82 84 86 82 77
93 94 93 84 76 72 75 83 92 88 89 88 86 83 82 77 70 73 78 82 83 85 90 92 94 94 94 94 94 94 91 93 93 95 93 88 75 65 69 72 74 80 81
90 91 89 78 70 69 71 72 76 80 79 79 76 76 74 71 71 66 66 72 74 82 84 86 86 88 90 91 93 89 92 95 94 94 91 88 92 79 71 71 81 79 78